[[{"header":{"parameterUnit":"m.s-1","parameterCategory":1,"la1":30.6,"la2":29.2853,"lo1":-89.7004,"lo2":-87.6739,"dy":0.0162,"dx":0.0183,"nx":112,"ny":82,"refTime":"2026-05-19T12:00:00:Z","depth":0,"parameterNumber":2,"parameterNumberName":"U-component_of_WINDS"},"data":[0.0,0.0,0.0,0.0,0.0,0.0,0.0,0.0,0.0,0.0,0.0,0.0,0.0,0.0,0.0,0.0,0.0,0.0,0.0,0.0,0.0,0.0,0.0,0.0,0.0,0.0,0.0,0.0,0.0,0.0,0.0,0.0,0.0,0.0,0.0,0.0,0.0,0.0,0.0,0.0,0.0,0.0,0.0,0.0,0.0,0.0,0.0,0.0,0.0,0.0,0.0,0.0,0.0,0.0,0.0,0.0,0.0,0.0,0.0,0.0,0.0,0.0,0.0,0.0,0.0,0.0,0.0,0.0,0.0,0.0,0.0,0.0,0.0,0.0,0.0,0.0,0.0,0.0,0.0,0.0,0.0,0.0,0.0,0.0,0.0,0.0,0.0,0.0,0.0,0.0,-3.718,-4.1073,-4.5451,-4.7557,-4.6187,-4.441,-4.1916,-3.8498,0.0,0.0,0.0,0.0,0.0,0.0,0.0,0.0,0.0,0.0,0.0,0.0,0.0,0.0,0.0,0.0,0.0,0.0,0.0,0.0,0.0,0.0,0.0,0.0,0.0,0.0,0.0,0.0,0.0,0.0,0.0,0.0,0.0,0.0,0.0,0.0,0.0,0.0,0.0,0.0,0.0,0.0,0.0,0.0,0.0,0.0,0.0,0.0,0.0,0.0,0.0,0.0,0.0,0.0,0.0,0.0,0.0,0.0,0.0,0.0,0.0,0.0,0.0,0.0,0.0,0.0,0.0,0.0,0.0,0.0,0.0,0.0,0.0,0.0,0.0,0.0,0.0,0.0,0.0,0.0,0.0,0.0,0.0,0.0,0.0,0.0,0.0,0.0,0.0,0.0,0.0,0.0,0.0,0.0,0.0,0.0,0.0,0.0,0.0,0.0,0.0,0.0,0.0,0.0,-3.8923,-4.5259,-4.724,-4.8009,-4.7768,-4.5526,-4.2706,-3.9326,0.0,0.0,0.0,0.0,0.0,0.0,0.0,0.0,0.0,0.0,0.0,0.0,0.0,0.0,0.0,0.0,0.0,0.0,0.0,0.0,0.0,0.0,0.0,0.0,0.0,0.0,0.0,0.0,0.0,0.0,0.0,0.0,0.0,0.0,0.0,0.0,0.0,0.0,0.0,0.0,0.0,0.0,0.0,0.0,0.0,0.0,0.0,0.0,0.0,0.0,0.0,0.0,0.0,0.0,0.0,0.0,0.0,0.0,0.0,0.0,0.0,0.0,0.0,0.0,0.0,0.0,0.0,0.0,0.0,0.0,0.0,0.0,0.0,0.0,0.0,0.0,0.0,0.0,0.0,0.0,0.0,0.0,0.0,0.0,0.0,0.0,0.0,0.0,0.0,0.0,0.0,0.0,0.0,0.0,0.0,0.0,0.0,0.0,0.0,0.0,0.0,0.0,0.0,-3.7911,-4.22,-4.5817,-4.7759,-4.824,-4.6855,-4.4836,-4.22,-3.8815,-3.4289,0.0,0.0,0.0,0.0,0.0,0.0,0.0,0.0,0.0,0.0,0.0,0.0,0.0,0.0,0.0,0.0,0.0,0.0,0.0,0.0,0.0,0.0,0.0,0.0,0.0,0.0,0.0,0.0,0.0,0.0,0.0,0.0,0.0,0.0,0.0,0.0,0.0,0.0,0.0,0.0,0.0,0.0,0.0,0.0,0.0,0.0,0.0,0.0,0.0,0.0,0.0,0.0,0.0,0.0,0.0,0.0,0.0,0.0,0.0,0.0,0.0,0.0,0.0,0.0,0.0,0.0,0.0,0.0,0.0,0.0,0.0,0.0,0.0,0.0,0.0,0.0,0.0,0.0,0.0,0.0,0.0,0.0,0.0,0.0,0.0,0.0,0.0,0.0,0.0,0.0,0.0,0.0,0.0,0.0,0.0,0.0,0.0,0.0,0.0,0.0,0.0,0.0,-4.1393,-4.4701,-4.5778,-4.7644,-4.7932,-4.5787,-4.3682,-4.1123,-3.7892,-3.3737,0.0,0.0,0.0,0.0,0.0,0.0,0.0,0.0,0.0,0.0,0.0,0.0,0.0,0.0,0.0,0.0,0.0,0.0,0.0,0.0,0.0,0.0,0.0,0.0,0.0,0.0,0.0,0.0,0.0,0.0,0.0,0.0,0.0,0.0,0.0,0.0,0.0,0.0,0.0,0.0,0.0,0.0,0.0,0.0,0.0,0.0,0.0,0.0,0.0,0.0,0.0,0.0,0.0,0.0,0.0,0.0,0.0,0.0,0.0,0.0,0.0,0.0,0.0,0.0,0.0,0.0,0.0,0.0,0.0,0.0,0.0,0.0,0.0,0.0,0.0,0.0,0.0,0.0,0.0,0.0,0.0,0.0,0.0,0.0,0.0,0.0,0.0,0.0,0.0,0.0,0.0,0.0,0.0,0.0,0.0,0.0,0.0,0.0,0.0,0.0,0.0,0.0,-4.2143,-4.4932,-4.6624,-4.6971,-4.6682,-4.5691,-4.2574,-3.9565,-3.6962,-3.2827,0.0,0.0,0.0,0.0,0.0,0.0,0.0,0.0,0.0,0.0,0.0,0.0,0.0,0.0,0.0,0.0,0.0,0.0,0.0,0.0,0.0,0.0,0.0,0.0,0.0,0.0,0.0,0.0,0.0,0.0,0.0,0.0,0.0,0.0,0.0,0.0,0.0,0.0,0.0,0.0,0.0,0.0,0.0,0.0,0.0,0.0,0.0,0.0,0.0,0.0,0.0,0.0,0.0,0.0,0.0,0.0,0.0,0.0,0.0,0.0,0.0,0.0,0.0,0.0,0.0,0.0,0.0,0.0,0.0,0.0,0.0,0.0,0.0,0.0,0.0,0.0,0.0,0.0,0.0,0.0,0.0,0.0,0.0,0.0,0.0,0.0,0.0,0.0,0.0,0.0,0.0,0.0,0.0,0.0,0.0,0.0,0.0,0.0,0.0,0.0,0.0,0.0,-4.1893,-4.4759,-4.5951,-4.6586,-4.6115,-4.4156,-4.1841,-3.8942,-3.5309,0.0,0.0,0.0,0.0,0.0,0.0,0.0,0.0,0.0,0.0,0.0,0.0,0.0,0.0,0.0,0.0,0.0,0.0,0.0,0.0,0.0,0.0,0.0,0.0,0.0,0.0,0.0,0.0,0.0,0.0,0.0,0.0,0.0,0.0,0.0,0.0,0.0,0.0,0.0,0.0,0.0,0.0,0.0,0.0,0.0,0.0,0.0,0.0,0.0,0.0,0.0,0.0,0.0,0.0,0.0,0.0,0.0,0.0,0.0,0.0,0.0,0.0,0.0,0.0,0.0,0.0,0.0,0.0,0.0,0.0,0.0,0.0,0.0,0.0,0.0,0.0,0.0,0.0,0.0,0.0,0.0,0.0,0.0,0.0,0.0,0.0,0.0,0.0,0.0,0.0,0.0,0.0,0.0,0.0,0.0,0.0,0.0,0.0,0.0,0.0,0.0,0.0,-3.7834,-4.1643,-4.4355,-4.5479,-4.6124,-4.553,-4.3208,-4.1168,-3.8314,-3.4323,0.0,0.0,0.0,0.0,0.0,0.0,0.0,0.0,0.0,0.0,0.0,0.0,0.0,0.0,0.0,0.0,0.0,0.0,0.0,0.0,0.0,0.0,0.0,0.0,0.0,0.0,0.0,0.0,0.0,0.0,0.0,0.0,0.0,0.0,0.0,0.0,0.0,0.0,0.0,0.0,0.0,0.0,0.0,0.0,0.0,0.0,0.0,0.0,0.0,0.0,0.0,0.0,0.0,0.0,0.0,0.0,0.0,0.0,0.0,0.0,0.0,0.0,0.0,0.0,0.0,0.0,0.0,0.0,0.0,0.0,0.0,0.0,0.0,0.0,0.0,0.0,0.0,0.0,0.0,0.0,0.0,0.0,0.0,0.0,0.0,0.0,0.0,0.0,0.0,0.0,0.0,0.0,0.0,0.0,0.0,0.0,0.0,0.0,0.0,0.0,0.0,0.0,-3.8623,-4.1527,-4.3739,-4.5421,-4.5594,-4.4885,-4.315,-4.0562,-3.7583,0.0,0.0,0.0,0.0,0.0,0.0,0.0,0.0,0.0,0.0,0.0,0.0,0.0,0.0,0.0,0.0,0.0,0.0,0.0,0.0,0.0,0.0,0.0,0.0,0.0,0.0,0.0,0.0,0.0,0.0,0.0,0.0,0.0,0.0,0.0,0.0,0.0,0.0,0.0,0.0,0.0,0.0,0.0,0.0,0.0,0.0,0.0,0.0,0.0,0.0,0.0,0.0,0.0,0.0,0.0,0.0,0.0,0.0,0.0,0.0,0.0,0.0,0.0,0.0,0.0,0.0,0.0,0.0,0.0,0.0,0.0,0.0,0.0,0.0,0.0,0.0,0.0,0.0,0.0,0.0,0.0,0.0,0.0,0.0,0.0,0.0,0.0,0.0,0.0,0.0,0.0,0.0,0.0,0.0,0.0,0.0,0.0,0.0,0.0,0.0,0.0,0.0,0.0,-3.7655,-4.1033,-4.3605,-4.5275,-4.5448,-4.4729,-4.2948,-4.095,-3.8051,-3.4039,0.0,0.0,0.0,0.0,0.0,0.0,0.0,0.0,0.0,0.0,0.0,0.0,0.0,0.0,0.0,0.0,0.0,0.0,0.0,0.0,0.0,0.0,0.0,0.0,0.0,0.0,0.0,0.0,0.0,0.0,0.0,0.0,0.0,0.0,0.0,0.0,0.0,0.0,0.0,0.0,0.0,0.0,0.0,0.0,0.0,0.0,0.0,0.0,0.0,0.0,0.0,0.0,0.0,0.0,0.0,0.0,0.0,0.0,0.0,0.0,0.0,0.0,0.0,0.0,0.0,0.0,0.0,0.0,0.0,0.0,0.0,0.0,0.0,0.0,0.0,0.0,0.0,0.0,0.0,0.0,0.0,0.0,0.0,0.0,0.0,0.0,0.0,0.0,0.0,0.0,0.0,0.0,0.0,0.0,0.0,0.0,0.0,0.0,0.0,0.0,0.0,0.0,-3.6654,-4.0425,-4.3184,-4.455,-4.4683,-4.4096,-4.2653,-4.0602,-3.7862,-3.4329,0.0,0.0,0.0,0.0,0.0,0.0,0.0,0.0,0.0,0.0,0.0,0.0,0.0,0.0,0.0,0.0,0.0,0.0,0.0,0.0,0.0,0.0,0.0,0.0,0.0,0.0,0.0,0.0,0.0,0.0,0.0,0.0,0.0,0.0,0.0,0.0,0.0,0.0,0.0,0.0,0.0,0.0,0.0,0.0,0.0,0.0,0.0,0.0,0.0,0.0,0.0,0.0,0.0,0.0,0.0,0.0,0.0,0.0,0.0,0.0,0.0,0.0,0.0,0.0,0.0,0.0,0.0,0.0,0.0,0.0,0.0,0.0,0.0,0.0,0.0,0.0,0.0,0.0,0.0,0.0,0.0,0.0,0.0,0.0,0.0,0.0,0.0,0.0,0.0,0.0,0.0,0.0,0.0,0.0,0.0,0.0,0.0,0.0,0.0,0.0,0.0,0.0,-3.5756,-3.9728,-4.2503,-4.3379,-4.3474,-4.3109,-4.2231,-3.9861,-3.7333,-3.4835,0.0,0.0,0.0,0.0,0.0,0.0,0.0,0.0,0.0,0.0,0.0,0.0,0.0,0.0,0.0,0.0,0.0,0.0,0.0,0.0,0.0,0.0,0.0,0.0,0.0,0.0,0.0,0.0,0.0,0.0,0.0,0.0,0.0,0.0,0.0,0.0,0.0,0.0,0.0,0.0,0.0,0.0,0.0,0.0,0.0,0.0,0.0,0.0,0.0,0.0,0.0,0.0,0.0,0.0,0.0,0.0,0.0,0.0,0.0,0.0,-3.4229,-3.3128,0.0,0.0,0.0,0.0,0.0,0.0,0.0,0.0,0.0,0.0,0.0,0.0,0.0,0.0,0.0,0.0,0.0,0.0,0.0,0.0,0.0,0.0,0.0,0.0,0.0,0.0,0.0,0.0,0.0,0.0,0.0,0.0,0.0,0.0,0.0,0.0,0.0,0.0,0.0,0.0,-3.5609,-3.9153,-4.1583,-4.2408,-4.2502,-4.2133,-4.1199,-3.9977,-3.7877,-3.4678,-3.1027,0.0,0.0,0.0,0.0,0.0,0.0,0.0,0.0,0.0,0.0,0.0,0.0,0.0,0.0,0.0,0.0,0.0,0.0,0.0,0.0,0.0,0.0,0.0,0.0,0.0,0.0,0.0,0.0,0.0,0.0,0.0,0.0,0.0,0.0,0.0,0.0,0.0,0.0,0.0,0.0,0.0,0.0,0.0,0.0,0.0,0.0,0.0,0.0,0.0,0.0,0.0,0.0,0.0,0.0,0.0,0.0,0.0,0.0,0.0,-3.7734,-3.6156,0.0,0.0,0.0,0.0,0.0,0.0,0.0,0.0,0.0,0.0,0.0,0.0,0.0,0.0,0.0,0.0,0.0,0.0,0.0,0.0,0.0,0.0,0.0,0.0,0.0,0.0,0.0,0.0,0.0,0.0,0.0,0.0,0.0,0.0,0.0,0.0,0.0,0.0,0.0,0.0,-3.4791,-3.8112,-4.0414,-4.1258,-4.1351,-4.1143,-4.0651,-3.9447,-3.7635,-3.5087,-3.1845,0.0,0.0,0.0,0.0,0.0,0.0,0.0,0.0,0.0,0.0,0.0,0.0,0.0,0.0,0.0,0.0,0.0,0.0,0.0,0.0,0.0,0.0,0.0,0.0,0.0,0.0,0.0,0.0,0.0,0.0,0.0,0.0,0.0,0.0,0.0,0.0,0.0,0.0,0.0,0.0,0.0,0.0,0.0,0.0,0.0,0.0,0.0,0.0,0.0,0.0,0.0,0.0,0.0,-4.3956,-4.4341,-4.436,-4.5021,-4.5315,-4.5168,-4.1974,-4.0267,-3.968,-3.8741,0.0,0.0,0.0,0.0,0.0,0.0,0.0,0.0,0.0,0.0,0.0,0.0,0.0,0.0,0.0,0.0,0.0,0.0,0.0,0.0,0.0,0.0,0.0,0.0,-3.4444,-3.3502,-3.0143,0.0,0.0,0.0,0.0,0.0,0.0,0.0,0.0,0.0,0.0,0.0,-3.3953,-3.7055,-3.9212,-4.0067,-4.016,-4.0118,-3.9988,-3.8706,-3.7151,-3.538,-3.2611,-2.9917,0.0,0.0,0.0,0.0,0.0,0.0,0.0,0.0,0.0,0.0,0.0,0.0,0.0,0.0,0.0,0.0,0.0,0.0,0.0,0.0,0.0,0.0,0.0,0.0,0.0,0.0,0.0,0.0,0.0,0.0,0.0,0.0,-3.2973,-3.2491,0.0,0.0,0.0,0.0,0.0,0.0,0.0,0.0,0.0,0.0,0.0,0.0,0.0,-4.3149,-4.4066,-4.5443,-4.625,-4.647,-4.7278,-4.7682,-4.7682,-4.7792,-4.7829,-4.7829,-4.7994,0.0,-4.3774,-4.2286,0.0,0.0,0.0,0.0,0.0,0.0,0.0,0.0,0.0,0.0,0.0,0.0,0.0,0.0,0.0,0.0,0.0,0.0,0.0,0.0,0.0,0.0,-3.703,-3.7088,-3.6583,-3.5952,0.0,-3.3629,-3.1642,-3.0135,-2.8547,0.0,0.0,0.0,0.0,0.0,0.0,0.0,-3.3895,-3.6502,-3.8377,-3.9175,-3.9268,-3.899,-3.8284,-3.8024,-3.6891,-3.4513,-3.3317,-3.1608,-2.9174,-2.6684,0.0,0.0,0.0,0.0,0.0,0.0,0.0,0.0,0.0,0.0,0.0,0.0,0.0,0.0,0.0,0.0,0.0,0.0,0.0,0.0,0.0,0.0,0.0,0.0,0.0,0.0,0.0,0.0,0.0,-3.2888,-3.5238,-3.533,-3.5973,-3.5954,0.0,0.0,0.0,0.0,0.0,0.0,0.0,0.0,0.0,-4.3736,-4.5351,-4.6581,-4.7388,-4.8581,-4.9426,-4.9866,-5.0215,-5.0618,-5.1059,-5.1059,-5.1059,-5.1057,-5.1444,-5.0527,-4.86,-4.6049,-4.3314,-4.0579,0.0,0.0,0.0,0.0,-3.678,-3.7077,-3.7077,-3.7077,-3.7077,-3.7077,0.0,0.0,0.0,0.0,0.0,0.0,0.0,0.0,0.0,0.0,-3.8909,-3.8942,-3.8741,-3.8408,-3.8007,-3.6742,-3.5076,0.0,-3.0861,-2.9095,-2.7976,0.0,0.0,0.0,0.0,-3.1291,-3.4549,-3.629,-3.7522,-3.8339,-3.8432,-3.8098,-3.7281,-3.7225,-3.6569,-3.5027,-3.4153,-3.2797,-3.0827,-2.8374,-2.6275,0.0,0.0,0.0,0.0,0.0,0.0,0.0,0.0,0.0,0.0,0.0,0.0,0.0,0.0,0.0,0.0,0.0,0.0,0.0,0.0,0.0,0.0,0.0,0.0,0.0,0.0,0.0,0.0,-3.5644,-3.7753,-3.8355,-3.8964,-3.8961,0.0,0.0,0.0,0.0,0.0,0.0,-4.2544,-4.3975,-4.5461,-4.7095,-4.871,-4.9939,-5.0747,-5.1591,-5.2234,-5.2601,-5.2601,-5.2821,-5.3185,-5.3185,-5.3185,-5.3185,-5.3185,-5.2747,-5.1775,-4.893,-4.6085,-4.3442,-4.2416,-4.115,-3.9937,-3.9937,-4.0065,-4.0249,-4.0249,-4.0377,-4.0506,-4.0304,-3.8872,-3.7184,-3.6982,0.0,0.0,0.0,0.0,-3.7511,-3.8719,-3.9682,-4.0317,-4.0366,-4.0273,-4.0048,-3.9485,-3.8595,-3.7286,0.0,-3.2968,-3.1218,-3.0445,0.0,0.0,-2.9805,-3.0697,-3.2165,-3.4841,-3.6067,-3.6928,-3.7522,-3.7578,-3.7262,-3.6458,-3.6402,-3.5956,-3.4934,-3.4253,-3.3157,-3.1552,-2.9527,-2.7575,-2.5745,0.0,0.0,0.0,0.0,0.0,0.0,0.0,0.0,0.0,0.0,0.0,0.0,0.0,0.0,0.0,0.0,0.0,0.0,0.0,0.0,0.0,0.0,0.0,0.0,0.0,0.0,0.0,0.0,0.0,-4.0912,-4.293,0.0,0.0,0.0,0.0,-4.3019,-4.3221,-4.4287,-4.6672,-4.759,-4.8838,-5.0508,-5.2123,-5.3353,-5.4142,-5.495,-5.4987,-5.4271,-5.4271,-5.3904,-5.3185,-5.3185,-5.3185,-5.3185,-5.3185,-5.2747,-5.1867,-5.018,-4.8434,-4.6691,-4.5131,-4.3993,-4.3258,-4.3258,-4.3736,-4.4397,-4.4397,-4.4911,-4.5406,-4.4654,-4.2286,-3.957,-3.8817,-3.7991,0.0,0.0,-3.8521,-3.9748,-3.9899,-4.0522,-4.118,-4.1388,-4.0807,-4.0226,-4.0313,-3.9045,-3.7634,0.0,-3.5182,-3.3751,-3.2953,0.0,-3.0697,-3.1552,-3.237,-3.3224,-3.4141,-3.5683,-3.6705,-3.6773,-3.6773,-3.6439,-3.564,-3.5566,-3.486,-3.3243,-3.3083,-3.2351,-3.0734,-2.9805,-2.8199,-2.5745,-2.4717,0.0,0.0,0.0,0.0,0.0,0.0,0.0,0.0,0.0,0.0,0.0,0.0,0.0,0.0,0.0,0.0,0.0,0.0,0.0,0.0,0.0,0.0,0.0,0.0,0.0,0.0,0.0,0.0,-4.4066,-4.5865,0.0,-4.548,-4.5131,-4.5627,-4.7241,-4.7884,-4.926,-5.1683,-5.2068,-5.2729,-5.3849,-5.4436,-5.4876,-5.517,-5.5467,-5.5467,-5.517,-5.4638,-5.4252,-5.3959,-5.3445,-5.3185,-5.3185,-5.3185,-5.3041,-5.2692,-5.1591,-5.0178,-4.86,-4.7462,-4.6544,-4.5755,-4.5241,-4.5223,-4.548,-4.548,-4.5663,-4.5681,-4.436,-4.3149,-4.1956,-4.0653,-4.0031,-3.9827,-3.9827,-4.0244,-4.0859,-4.1406,-4.1852,-4.2186,-4.2252,-4.2057,-4.1598,-4.0606,-3.9918,-3.925,-3.8414,-3.6928,-3.5733,-3.5436,-3.4915,-3.4618,-3.4915,-3.5213,-3.5665,-3.6482,-3.6649,-3.6699,-3.6699,-3.6253,-3.5584,-3.4736,-3.4191,-3.3652,-3.3039,-3.2518,-3.1979,-3.1403,-3.0604,-2.9508,-2.8106,-2.6162,-2.421,0.0,0.0,0.0,0.0,0.0,0.0,0.0,0.0,0.0,0.0,0.0,0.0,0.0,0.0,0.0,0.0,0.0,0.0,0.0,0.0,0.0,0.0,0.0,0.0,0.0,-4.2396,-4.5516,-4.6581,-4.8636,-4.9646,-4.8838,-4.9002,-4.9699,-5.1041,-5.1683,-5.2839,-5.4693,-5.506,-5.5445,-5.5978,-5.6271,-5.64,-5.64,-5.64,-5.6124,-5.5574,-5.506,-5.4528,-5.3977,-5.3445,-5.3185,-5.3185,-5.3185,-5.3185,-5.317,-5.2619,-5.1775,-5.0692,-4.9572,-4.8819,-4.825,-4.7443,-4.715,-4.7113,-4.6819,-4.6526,-4.614,-4.5057,-4.4525,-4.4103,-4.3039,-4.2526,-4.2323,-4.2356,-4.2185,-4.2159,-4.2758,-4.3003,-4.3098,-4.3132,-4.2956,-4.25,-4.1441,-4.0773,-4.0215,-3.964,-3.8209,-3.7108,-3.7108,-3.6885,-3.6699,-3.6699,-3.6928,-3.7108,-3.7076,-3.6866,-3.6495,-3.5906,-3.538,-3.4841,-3.4253,-3.3466,-3.289,-3.2611,-3.1849,-3.1273,-3.0995,-3.0474,-2.9665,-2.853,-2.6023,-2.3906,-2.2219,0.0,0.0,0.0,0.0,0.0,0.0,0.0,0.0,0.0,0.0,0.0,0.0,0.0,0.0,0.0,0.0,0.0,0.0,0.0,0.0,0.0,0.0,0.0,-4.1132,-4.5351,-4.8379,-4.8453,-5.1277,-5.2949,-5.2179,-5.2821,-5.361,-5.4418,-5.4473,-5.4821,-5.5633,-5.6418,-5.684,-5.684,-5.7593,-5.7997,-5.7997,-5.7978,-5.7171,-5.5629,-5.5574,-5.4748,-5.3243,-5.3203,-5.3185,-5.3185,-5.3185,-5.3185,-5.3185,-5.3185,-5.3185,-5.3038,-5.1463,-5.0839,-5.0747,-4.9922,-4.9574,-4.9445,-4.86,-4.7791,-4.7131,-4.7113,-4.6562,-4.592,-4.5902,-4.5369,-4.4763,-4.4796,-4.4243,-4.3686,-4.3867,-4.3897,-4.3913,-4.3989,-4.3392,-4.2835,-4.2816,-4.1571,-4.0471,-4.0416,-3.9082,-3.7968,-3.7931,-3.7281,-3.6773,-3.6773,-3.7429,0.0,-3.5789,-3.6235,-3.6073,-3.442,-3.4216,-3.4197,-3.4197,-3.3436,-3.263,-3.1849,-3.1013,-3.0214,-2.9434,-2.9396,-2.8586,-2.6828,-2.434,-2.2242,-2.0548,0.0,0.0,0.0,0.0,0.0,0.0,0.0,0.0,0.0,0.0,0.0,0.0,0.0,0.0,0.0,0.0,0.0,0.0,0.0,0.0,0.0,-4.0842,-4.3663,-4.447,-4.7223,-4.9848,-5.1646,-5.317,-5.4216,-5.4586,-5.4803,-5.5262,-5.6088,-5.6143,-5.6492,-5.7299,-5.7556,-5.7666,-5.7666,-5.7886,-5.7997,-5.7997,-5.7428,-5.6914,-5.6455,-5.528,-5.4491,-5.4051,-5.3482,-5.3185,-5.3185,-5.3185,-5.3185,-5.3185,-5.3185,-5.3185,-5.3093,-5.2068,-5.1665,-5.1499,-5.0124,-4.9187,-4.8618,-4.8379,-4.8159,-4.7865,-4.7278,-4.6947,-4.6654,-4.6085,-4.5755,-4.5461,-4.4943,-4.4699,-4.4507,-4.4013,-4.3945,-4.3974,-4.4005,-4.3838,-4.3503,-4.2927,-4.2445,-4.1794,-4.0624,-4.0044,-3.951,-3.8878,-3.8581,-3.8432,-3.8432,-3.8618,0.0,-3.7355,-3.6922,-3.6309,-3.525,-3.4569,-3.4197,-3.4197,-3.2915,-3.2035,-3.1812,-3.0493,-2.9619,-2.9396,-2.9355,-2.8513,-2.6747,-2.5473,-2.3704,0.0,0.0,0.0,0.0,0.0,0.0,0.0,0.0,0.0,0.0,0.0,0.0,0.0,0.0,0.0,0.0,0.0,0.0,0.0,0.0,0.0,0.0,-4.3995,-4.6746,-4.8233,-4.9664,-5.1206,-5.2983,-5.4216,-5.5207,-5.6014,-5.64,-5.6804,-5.7281,-5.7299,-5.7519,-5.7978,-5.7997,-5.7997,-5.7997,-5.7997,-5.7997,-5.7997,-5.7207,-5.6638,-5.6271,-5.5005,-5.4216,-5.3885,-5.3427,-5.3185,-5.3185,-5.3185,-5.3185,-5.3185,-5.3185,-5.3185,0.0,0.0,0.0,0.0,0.0,-4.9334,-4.8306,-4.8306,-4.8306,-4.8233,-4.7736,-4.759,-4.7516,-4.7058,-4.6673,-4.6324,-4.599,-4.5469,-4.4927,-4.458,-4.4252,-4.4005,-4.4005,-4.4005,-4.3875,-4.3392,-4.3039,-4.2407,-4.1144,-4.0624,0.0,-3.925,-3.9101,-3.9101,-3.9101,-3.9101,-3.8692,-3.7541,-3.6983,-3.6253,-3.5083,-3.4494,-3.4197,-3.4197,-3.3039,0.0,0.0,0.0,-2.9728,-2.9334,-2.8896,0.0,0.0,0.0,0.0,0.0,0.0,0.0,0.0,-2.2758,-2.3588,0.0,0.0,0.0,0.0,0.0,0.0,0.0,0.0,0.0,0.0,0.0,0.0,0.0,0.0,0.0,0.0,-4.6929,-4.9279,-5.1646,-5.2068,-5.2472,-5.3371,-5.473,-5.5941,-5.6859,-5.7574,-5.7997,-5.7997,-5.7997,-5.7997,-5.7997,-5.7997,0.0,0.0,0.0,-5.7997,-5.7997,-5.7116,-5.6308,-5.5574,-5.4693,-5.3904,-5.3185,-5.3185,-5.3185,-5.3185,-5.3185,-5.3185,-5.3185,-5.3185,-5.3185,-5.3185,-5.3185,-5.3075,-5.2766,-5.1334,-4.9738,-4.8306,-4.8306,0.0,0.0,-4.8306,-4.8306,-4.8306,-4.8306,-4.7791,-4.7261,-4.737,-4.6316,-4.5149,-4.5257,-4.4655,-4.4005,-4.4005,-4.4005,-4.4005,-4.4005,-4.3448,-4.2667,-4.1757,-4.1014,-4.0215,-3.9268,-3.9101,-3.9101,-3.9101,-3.9087,-3.853,-3.7021,-3.676,-3.6092,-3.4513,0.0,0.0,-3.4197,-3.3454,-3.2692,-3.1979,-3.1076,-3.0194,-2.9311,-2.839,-2.78,-2.7606,-2.6857,-2.6059,-2.5252,-2.6059,-2.6088,-2.5397,-2.54,-2.5717,0.0,0.0,0.0,0.0,0.0,0.0,0.0,0.0,0.0,0.0,0.0,0.0,0.0,0.0,0.0,-4.592,-4.8159,-4.9978,-5.1738,-5.2564,-5.3518,-5.495,-5.5409,-5.6161,-5.7629,-5.7905,-5.7997,-5.7997,-5.7997,-5.7997,-5.7997,-5.7997,-5.7997,-5.7997,-5.7997,-5.7997,-5.7997,-5.6547,-5.5739,-5.5596,0.0,0.0,-5.3185,-5.3185,-5.3185,-5.3185,-5.3185,-5.3185,-5.3185,-5.3185,-5.3185,-5.3185,-5.3185,-5.2417,-5.1242,-5.0912,-4.9738,-4.8306,-4.8306,-4.8306,-4.8306,-4.8306,-4.8306,-4.8306,-4.8306,-4.8196,0.0,-4.7536,-4.6722,-4.5853,-4.5424,-4.4655,-4.4005,-4.4005,-4.4005,-4.4005,-4.4005,-4.3875,-4.3336,-4.1869,-4.146,-4.0884,-3.9361,-3.9101,-3.9101,-3.9101,-3.9045,-3.8683,-3.7782,-3.7042,-3.6268,-3.5349,-3.4569,-3.4136,-3.4197,-3.3406,-3.2887,-3.2767,-3.1295,-3.0236,-2.9783,-2.8913,-2.8008,-2.7064,-2.6877,-2.6399,-2.5612,-2.6399,-2.6716,-2.6555,-2.6147,-2.6327,0.0,0.0,0.0,0.0,0.0,0.0,0.0,0.0,0.0,0.0,0.0,-3.6876,-4.0948,0.0,-4.4709,-4.8361,-4.9994,-5.1226,-5.2435,-5.2949,-5.3665,-5.4858,-5.5335,-5.6069,-5.7281,-5.7758,-5.7997,-5.7997,-5.7997,-5.7997,-5.7997,-5.7997,-5.7997,-5.7997,-5.7997,-5.7997,-5.7997,-5.64,-5.5614,-5.5596,-5.3977,-5.3185,-5.3185,-5.3185,-5.3185,-5.3185,-5.3185,-5.3185,-5.3185,-5.3185,-5.3185,-5.3185,-5.3185,-5.2234,-5.0802,-5.0802,-4.9738,-4.8306,-4.8306,-4.8306,-4.8306,-4.8306,-4.8306,-4.8306,-4.8306,-4.8306,-4.8179,-4.7573,-4.6815,-4.6056,-4.5461,-4.4655,-4.4005,-4.4005,-4.4005,-4.4005,-4.4005,-4.4005,-4.3522,-4.1906,-4.159,-4.107,-3.938,-3.9073,-3.9064,-3.9064,-3.9021,-3.8549,-3.7359,-3.6845,-3.6123,-3.4877,-3.4358,-3.4099,-3.4099,-3.3334,-3.2859,-3.2895,-3.155,-3.0466,-2.9834,-2.9242,-2.8658,-2.8017,-2.8,-2.7986,-2.7954,-2.8362,-2.8539,-2.8539,-2.8209,-2.8031,0.0,0.0,0.0,0.0,0.0,0.0,0.0,-3.303,-3.4247,-3.6725,-3.8505,-4.0726,-4.4287,-4.5718,-4.7333,-5.0325,-5.1481,-5.227,-5.3096,-5.3185,-5.3445,-5.4087,-5.4876,-5.5739,-5.6712,-5.7391,-5.7831,-5.7997,-5.7997,-5.7997,-5.7997,-5.7997,-5.7997,-5.7997,-5.7997,-5.7997,-5.7997,-5.64,-5.5614,-5.5596,-5.3977,-5.3185,-5.3185,-5.3185,-5.3185,-5.3185,-5.3185,-5.3185,-5.3185,-5.3185,-5.3185,-5.3185,-5.3185,-5.2234,-5.0802,-5.0802,-4.9738,-4.8306,-4.8306,-4.8306,-4.8306,-4.8306,-4.8306,-4.8306,-4.8306,-4.8306,-4.8179,-4.7555,-4.6815,-4.6056,-4.5426,-4.4621,-4.4005,-4.4005,-4.4005,-4.4005,-4.4005,-4.4005,-4.3522,-4.1906,-4.159,-4.107,-3.938,-3.9031,-3.8993,-3.8993,-3.8983,-3.8418,-3.6934,-3.6629,-3.5977,-3.4417,-3.4129,-3.4036,-3.3985,-3.3382,-3.3,-3.2919,-3.1884,-3.0889,-3.0018,-2.9608,-2.9346,-2.918,-2.918,-2.9464,-3.0064,-3.0064,-3.0064,-3.0064,-3.0112,-2.9729,-2.6699,-2.8852,-3.1769,-3.2819,-3.4204,-3.5553,0.0,-3.6846,-3.7639,-4.0049,-4.1846,-4.3551,-4.5424,-4.7021,-4.8636,-5.0508,-5.1481,-5.227,-5.3096,-5.3185,-5.3222,-5.3314,-5.4051,-5.5133,-5.6657,-5.6895,-5.7226,-5.7941,-5.7997,-5.7997,-5.7997,-5.7997,-5.7997,-5.7997,-5.7997,-5.7997,-5.7997,-5.64,-5.5614,-5.5596,-5.3977,-5.3185,-5.3185,-5.3185,-5.3185,-5.3185,-5.3185,-5.3185,-5.3185,-5.3185,-5.3185,-5.3185,-5.3185,-5.2234,-5.0802,-5.0802,-4.9738,-4.8306,-4.8306,-4.8306,-4.8306,-4.8306,-4.8306,-4.8306,-4.8306,-4.8306,-4.816,-4.75,-4.678,-4.6039,-4.5307,-4.4554,-4.4005,-4.4005,-4.4005,-4.4005,-4.4005,-4.4005,-4.3522,-4.1906,-4.159,-4.107,-3.938,-3.9031,-3.8993,-3.8993,-3.891,-3.8519,-3.7659,-3.6897,-3.609,-3.5248,-3.4421,-3.3921,-3.3908,-3.3834,-3.3642,-3.3362,-3.2433,-3.1643,-3.1062,-3.0265,-2.9703,-2.9453,-2.947,-2.9505,-2.9591,-2.9591,-2.9591,-2.9609,-3.03,-3.0317,-3.0772,-3.2619,-3.4899,-3.6208,-3.7775,-3.9182,-4.0054,-4.0636,-4.155,-4.3497,-4.48,-4.6104,-4.7756,-4.86,-4.9591,-5.1224,-5.1775,-5.227,-5.3096,-5.2803,-5.2674,-5.313,-5.3078,-5.3628,-5.5262,-5.5831,-5.6436,-5.7244,-5.7299,-5.7519,-5.796,-5.7997,-5.7997,-5.7997,-5.7997,-5.7776,-5.7317,-5.6161,-5.5354,-5.4876,-5.3757,-5.3185,-5.3185,-5.3185,-5.3185,-5.3185,-5.3185,-5.3185,-5.3185,-5.3185,-5.3185,-5.3185,-5.3185,-5.2234,-5.0802,-5.0802,-4.9738,-4.8306,-4.8306,-4.8306,-4.8306,-4.8306,-4.8306,-4.8306,-4.8306,-4.8306,-4.8068,-4.693,-4.6394,-4.5858,-4.4668,-4.4108,-4.3883,-4.3883,-4.3883,-4.3881,-4.3929,-4.3574,-4.2922,-4.1813,-4.1219,-4.0513,-3.9305,-3.9021,-3.8935,-3.8935,-3.8866,-3.8332,-3.7047,-3.6587,-3.5901,-3.4562,-3.3995,-3.3739,-3.378,-3.3671,-3.3516,-3.3291,-3.2699,-3.1994,-3.1179,-3.0679,-3.0352,-3.0196,-3.0196,-3.0403,-3.0834,-3.0834,-3.0834,-3.0851,-3.1179,-3.1216,-3.3587,-3.5349,-3.7294,-3.8689,-4.0249,-4.1644,-4.2451,-4.3075,-4.3883,-4.5278,-4.6214,-4.7223,-4.8636,-4.9077,-4.9756,-5.1389,-5.1848,-5.227,-5.3096,-5.2711,-5.2546,-5.3133,-5.2692,-5.2784,-5.3959,-5.4803,-5.5592,-5.6418,-5.6473,-5.673,-5.7299,-5.7336,-5.7336,-5.7336,-5.7336,-5.706,-5.6473,-5.5666,-5.4968,-5.4399,-5.3592,-5.3185,-5.3185,-5.3185,-5.3185,-5.3185,-5.3185,-5.3185,-5.3185,-5.3185,-5.3185,-5.3185,-5.3185,-5.2234,-5.0802,-5.0802,-4.9738,-4.8306,-4.8306,-4.8306,-4.8306,-4.8306,-4.8306,-4.8306,-4.8306,-4.8306,-4.8031,-4.6746,-4.623,-4.5787,-4.442,-4.3954,-4.3804,-4.3804,-4.3804,-4.382,-4.3867,-4.3436,-4.2746,-4.175,-4.1111,-4.0383,-3.9259,-3.8979,-3.8877,-3.8881,-3.8822,-3.8177,-3.6519,-3.5909,-3.5128,-3.3808,-3.3573,-3.3488,-3.3451,-3.3313,-3.3132,-3.2957,-3.2654,-3.2141,-3.1341,-3.115,-3.1044,-3.1007,-3.0989,-3.1265,-3.18,-3.18,-3.18,-3.18,-3.18,-3.18,-3.3587,-3.6156,-3.8836,-3.9662,-4.1075,-4.247,-4.3277,-4.3478,-4.3736,-4.458,-4.5388,-4.6195,-4.7021,-4.781,-4.8893,-5.0563,-5.1481,-5.227,-5.3096,-5.3167,-5.3167,-5.3185,-5.3167,-5.3167,-5.3222,-5.3959,-5.4766,-5.5596,-5.5629,-5.5669,-5.5666,-5.5666,-5.5666,-5.5666,-5.5666,-5.5669,-5.5629,-5.484,-5.4418,-5.4399,-5.3592,-5.3185,-5.3185,-5.3185,-5.3185,-5.3185,-5.3185,-5.3185,-5.3185,-5.3185,-5.3185,-5.3185,-5.3185,-5.2234,-5.0802,-5.0802,-4.9738,-4.8306,-4.8306,-4.8306,-4.8306,-4.8306,-4.8306,-4.8306,-4.8306,-4.8306,-4.8141,-4.7296,-4.6599,-4.588,-4.4996,-4.4291,-4.3804,-4.3804,-4.3804,-4.3804,-4.3804,-4.3832,-4.3397,-4.1804,-4.1546,-4.1018,-3.9285,-3.8954,-3.8881,-3.8822,-3.875,-3.812,-3.6505,-3.4834,-3.3651,-3.335,-3.3247,-3.3111,-3.2842,-3.2765,-3.2603,-3.2352,-3.2249,-3.209,-3.1802,-3.1784,-3.1765,-3.1765,-3.1765,-3.1783,-3.18,-3.18,-3.18,-3.18,-3.18,-3.18,-3.6541,-3.8652,-4.0616,-4.1937,-4.3497,-4.4764,-4.5021,-4.5516,-4.581,-4.5553,-4.5296,-4.5351,-4.6159,-4.6104,-4.6636,-4.8802,-4.9848,-5.0877,-5.2215,-5.2399,-5.2601,-5.3151,-5.2729,-5.2619,-5.3148,-5.3445,-5.394,-5.473,-5.4803,-5.5042,-5.5578,-5.5614,-5.5614,-5.5614,-5.5614,-5.5335,-5.4803,-5.4546,-5.4124,-5.361,-5.3335,-5.3185,-5.3185,-5.3185,-5.3185,-5.3185,-5.3185,-5.3185,-5.3185,-5.3185,-5.3185,-5.3185,-5.3185,-5.2234,-5.0802,-5.0802,-4.9738,-4.8306,-4.8306,-4.8306,-4.8306,-4.8306,-4.8306,-4.8306,-4.8306,-4.8306,-4.8141,-4.7333,-4.6544,-4.5791,-4.4946,-4.4173,-4.36,-4.36,-4.36,-4.36,-4.3651,-4.326,-4.2608,-4.1564,-4.0947,-4.0241,-3.9139,-3.8881,-3.8623,-3.8029,-3.7389,-3.6597,-3.5567,-3.4218,-3.3125,-3.2436,-3.2683,-3.2814,-3.2669,-3.252,-3.2386,-3.2232,-3.2091,-3.193,-3.1818,-3.18,-3.18,-3.18,-3.18,-3.18,-3.18,-3.18,-3.18,-3.18,-3.18,-3.18,-3.8285,-4.0304,-4.2139,-4.2873,-4.4287,-4.5406,-4.5112,-4.5223,-4.5241,-4.4727,-4.3736,-4.3332,-4.4415,-4.4195,-4.4727,-4.7424,-4.882,-5.0143,-5.1756,-5.2252,-5.2619,-5.3151,-5.2747,-5.2637,-5.3148,-5.3185,-5.3427,-5.394,-5.3977,-5.4197,-5.4711,-5.473,-5.473,-5.473,-5.473,-5.4491,-5.3977,-5.3977,-5.372,-5.3185,-5.3185,-5.3185,-5.3185,-5.3185,-5.3185,-5.3185,-5.3185,-5.3185,-5.3185,-5.3185,-5.3185,-5.3185,-5.3185,-5.2234,-5.0802,-5.0802,-4.9738,-4.8306,-4.8306,-4.8306,-4.8306,-4.8306,-4.8306,-4.8306,-4.8306,-4.8306,-4.8196,-4.7663,-4.6746,-4.5773,-4.5259,-4.4323,-4.3515,-4.3515,-4.3515,-4.3496,-4.3548,-4.3195,-4.2529,-4.147,-4.0871,-4.0169,-3.9021,-3.8728,-3.8472,-3.7912,-3.6973,-3.5876,-3.46,-3.3933,-3.3083,-3.1796,-3.2177,-3.2471,-3.2335,-3.2197,-3.2091,-3.2055,-3.1947,-3.1856,-3.18,-3.18,-3.18,-3.18,-3.18,-3.18,-3.18,-3.18,-3.18,-3.18,-3.18,-3.18,-3.8927,-4.1222,-4.3441,-4.2671,-4.3644,-4.4544,-4.3681,-4.2873,-4.2286,-4.2194,-4.0855,-4.0212,-4.1864,-4.2139,-4.3185,-4.6452,-4.8361,-5.0013,-5.1683,-5.2674,-5.3185,-5.3185,-5.3243,-5.3259,-5.3259,-5.3259,-5.3259,-5.3259,-5.3203,-5.3185,-5.3185,-5.3185,-5.3185,-5.3185,-5.3185,-5.3185,-5.3185,-5.3185,-5.3185,-5.3185,-5.3185,-5.3185,-5.3185,-5.3185,-5.3185,-5.3185,-5.3185,-5.3185,-5.3185,-5.3185,-5.3185,-5.3185,-5.3185,-5.2234,-5.0802,-5.0802,-4.9738,-4.8306,-4.8306,-4.8306,-4.8306,-4.8306,-4.8306,-4.8306,-4.8306,-4.8306,-4.8306,-4.8306,-4.715,-4.5902,-4.5902,-4.4709,-4.3515,-4.3515,-4.3515,-4.3515,-4.3515,-4.3548,-4.312,-4.1501,-4.1175,-4.064,-3.8964,-3.8515,-3.8366,-3.835,-3.7486,-3.5999,-3.3676,-3.3906,-3.3466,-3.135,-3.1759,-3.2073,-3.1818,-3.18,-3.18,-3.18,-3.18,-3.18,-3.18,-3.18,-3.18,-3.18,-3.18,-3.18,-3.18,-3.18,-3.18,-3.18,-3.18,-3.1817,-4.1956,-4.3754,-4.5241,-4.5039,-4.5296,-4.5223,-4.3827,-4.2873,-4.1956,-4.0763,-3.8762,-3.7881,-4.0102,-4.0029,-4.0873,-4.4691,-4.7168,-4.9187,-5.0875,-5.2325,-5.3185,-5.3185,-5.3739,-5.4087,-5.4087,-5.4087,-5.4087,-5.4087,-5.3555,-5.3185,-5.3185,-5.3185,-5.3185,-5.3185,-5.3185,-5.3185,-5.3185,-5.3185,-5.3185,-5.3185,-5.3185,-5.3185,-5.3185,-5.3185,-5.3185,-5.3185,-5.3185,-5.3185,-5.3185,-5.3185,-5.3185,-5.3185,-5.3185,-5.2234,-5.0802,-5.0802,-4.9738,-4.8306,-4.8306,-4.8306,-4.8306,-4.8306,-4.8306,-4.8306,-4.8306,-4.8306,-4.8306,-4.8306,-4.715,-4.5902,-4.5902,-4.4709,-4.3515,-4.3515,-4.3515,-4.3515,-4.3515,-4.3496,-4.3054,-4.144,-4.0084,-3.9017,-3.8358,-3.817,-3.8017,-3.7756,-3.7453,-3.629,-3.3586,-3.356,-3.2858,-3.0482,-3.129,-3.193,-3.1818,-3.18,-3.18,-3.18,-3.18,-3.18,-3.18,-3.18,-3.18,-3.18,-3.18,-3.18,-3.18,-3.18,-3.18,-3.18,-3.18,-3.2093,-4.324,-4.4929,-4.6269,-4.5553,-4.5369,-4.4856,-4.2892,-4.1277,-3.9827,-3.8579,-3.6376,-3.5312,-3.7367,-3.7698,-3.8854,-4.2508,-4.5443,-4.7957,-4.9958,-5.1646,-5.2803,-5.317,-5.3922,-5.4399,-5.4399,-5.4399,-5.4399,-5.4399,-5.3665,-5.3185,-5.3185,-5.3185,-5.3185,-5.3185,-5.3185,-5.3185,-5.3185,-5.3185,-5.3185,-5.3185,-5.3185,-5.3185,-5.3185,-5.3185,-5.3185,-5.3185,0.0,-5.3185,-5.3185,-5.3185,-5.3185,-5.3185,-5.3185,-5.2234,-5.0802,-5.0802,-4.9738,-4.8306,-4.8306,-4.8306,-4.8306,-4.8306,-4.8306,-4.8306,-4.8306,-4.8306,-4.8233,-4.7865,-4.6617,-4.5296,-4.4929,-4.3901,-4.2965,-4.2965,-4.3239,-4.3515,-4.3515,-4.3515,-4.302,-4.1374,-3.9544,-3.8201,-3.8,-3.7844,-3.765,-3.7395,-3.73,-3.6271,-3.3641,-3.3688,-3.2897,-3.0038,-3.0993,-3.1838,-3.18,-3.18,-3.18,-3.18,-3.18,-3.18,-3.18,-3.18,-3.18,-3.18,-3.18,-3.18,-3.18,-3.18,-3.18,-3.18,-3.18,-3.2196,-4.3827,-4.5424,-4.6746,-4.5241,-4.4709,-4.3865,-4.1352,-3.8909,-3.6886,-3.5844,-3.3678,-3.2491,-3.4215,-3.5238,-3.6909,-4.0233,-4.3571,-4.6544,-4.8857,-5.0802,-5.2252,-5.2968,-5.394,-5.4564,-5.4564,-5.4564,-5.4564,-5.4564,-5.372,-5.3185,-5.3185,-5.3185,-5.3185,-5.3185,-5.3185,-5.3185,-5.3185,-5.3185,-5.3185,-5.3185,-5.3185,-5.3185,-5.3185,-5.3185,-5.3185,-5.3185,-5.3185,-5.3185,-5.3185,-5.3185,-5.3185,-5.3185,-5.3185,-5.2234,-5.0802,-5.0802,-4.9738,-4.8306,-4.8306,-4.8306,-4.8306,-4.8306,-4.8306,-4.8306,-4.8306,-4.8233,-4.8012,-4.7296,-4.5847,-4.4378,-4.3681,-4.2892,-4.2304,-4.2304,-4.291,-4.3515,-4.3515,-4.3406,-4.284,-4.1255,-3.9418,-3.804,-3.7721,-3.7468,-3.7264,-3.7094,-3.6992,-3.6031,-3.3647,-3.3997,-3.3223,-3.0007,-3.0938,-3.18,-3.18,-3.18,-3.18,-3.18,-3.18,-3.18,-3.18,-3.18,-3.18,-3.18,-3.18,-3.18,-3.18,-3.18,-3.18,-3.18,-3.1903,-3.2352,-4.548,-4.6269,-4.6874,-4.5938,-4.469,-4.2892,-3.9827,-3.7206,-3.4821,-3.2687,-3.032,-2.9329,-3.1604,-3.2687,-3.4527,-3.8487,-4.2378,-4.5517,-4.7259,-5.0105,-5.205,-5.2179,-5.4087,-5.5372,-5.5372,-5.5372,-5.5372,-5.5372,-5.4032,-5.3185,-5.3185,-5.3185,-5.3185,-5.3185,-5.3185,-5.3185,-5.3185,-5.3185,-5.3185,-5.3185,-5.3185,-5.3185,-5.3185,-5.3185,-5.3185,-5.3185,-5.3185,0.0,-5.3185,-5.3185,-5.3185,-5.3185,-5.3185,-5.2234,-5.0802,-5.0802,-4.9738,-4.8306,-4.8306,-4.8306,-4.8306,-4.8306,-4.8306,-4.8306,-4.8306,-4.7828,-4.7278,-4.7131,-4.5461,-4.368,-4.3551,-4.2892,-4.2304,-4.2304,-4.291,-4.3515,-4.3515,-4.2932,-4.2044,-4.0833,-3.9625,-3.8456,-3.7257,-3.6976,-3.6796,-3.6492,-3.6447,-3.5596,-3.3292,-3.3732,-3.3299,-3.0748,-3.1282,-3.18,-3.18,-3.18,-3.18,-3.18,-3.18,-3.18,-3.18,-3.18,-3.18,-3.18,-3.18,-3.18,-3.18,-3.18,-3.18,-3.18,-3.2421,-3.3128,-4.6134,-4.6671,-4.6948,-4.5698,-4.412,-4.1919,-3.8285,-3.5518,-3.3078,-3.065,-2.8558,-2.7787,-2.9787,-3.0815,-3.2687,-3.6798,-4.012,-4.3204,-4.6085,-4.893,-5.1061,-5.1885,-5.4124,-5.5427,-5.5023,-5.5335,-5.5449,-5.5005,-5.3867,-5.3185,-5.3185,-5.3185,-5.3185,-5.3185,-5.3185,-5.3185,-5.3185,-5.3185,-5.3185,-5.3185,-5.3185,-5.3185,-5.3185,-5.3185,-5.3185,-5.3185,-5.3185,-5.3185,-5.3185,-5.3185,-5.3185,-5.317,-5.2747,-5.1848,-5.0747,-5.0325,-4.937,-4.8306,-4.8306,-4.8306,-4.8306,-4.8306,-4.8306,-4.8306,-4.8306,-4.7736,-4.7021,-4.6543,-4.4692,-4.2713,-4.2222,-4.1855,-4.1614,-4.1614,-4.2548,-4.3446,-4.3446,-4.2302,-4.1089,-4.0456,-3.9084,-3.7746,-3.6987,-3.6716,-3.6568,-3.6343,-3.6301,-3.5766,-3.4283,-3.4116,-3.3254,-3.0956,-3.1351,-3.18,-3.18,-3.18,-3.18,-3.18,-3.18,-3.18,-3.18,-3.18,-3.18,-3.18,-3.18,-3.18,-3.18,-3.18,-3.18,-3.1817,-3.2559,-3.3335,-4.6366,-4.6785,-4.6812,-4.5305,-4.3344,-4.0781,-3.6909,-3.399,-3.139,-2.8987,-2.7207,-2.6583,-2.8198,-2.9133,-3.0962,-3.4871,-3.7679,-4.0671,-4.4342,-4.7443,-4.9867,-5.1318,-5.3757,-5.5078,-5.4454,-5.4968,-5.5078,-5.4454,-5.3665,-5.3185,-5.3185,-5.3185,-5.3185,-5.3185,-5.3185,-5.3185,-5.3185,-5.3185,-5.3185,-5.3185,-5.3185,-5.3185,-5.3185,-5.3185,-5.3185,-5.3185,-5.3185,-5.3185,-5.3185,-5.3185,-5.3093,-5.2894,-5.2252,-5.1389,-5.0453,-4.9831,-4.904,-4.8306,-4.8306,-4.8306,-4.8306,-4.8306,-4.8306,-4.8306,-4.8306,-4.7627,-4.6654,-4.5791,-4.376,-4.1625,-4.0754,-4.0715,-4.1002,-4.1417,-4.2478,-4.3394,-4.3305,-4.1887,-4.049,-4.0087,-3.8544,-3.7165,-3.6771,-3.655,-3.6423,-3.6322,-3.6301,-3.6025,-3.5283,-3.47,-3.3507,-3.1386,-3.1541,-3.18,-3.18,-3.1662,-3.1558,-3.1558,-3.1403,-3.1386,-3.1558,-3.1558,-3.1627,-3.18,-3.18,-3.1869,-3.2041,-3.2041,-3.211,-3.23,-3.3041,-3.3731,-4.6399,-4.6517,-4.624,-4.524,-4.2546,-3.9258,-3.5973,-3.2742,-2.9751,-2.7317,-2.5548,-2.4905,-2.651,-2.7475,-2.9108,-3.2399,-3.5624,-3.8631,-4.1168,-4.5516,-4.8765,-4.9721,-5.2601,-5.4473,-5.4418,-5.4473,-5.4473,-5.4418,-5.3665,-5.3185,-5.3185,-5.3185,-5.3185,-5.3185,-5.3185,-5.3185,-5.3185,-5.3185,-5.3185,-5.3185,-5.3185,-5.3185,-5.3185,-5.3185,-5.3185,-5.3185,-5.3185,-5.3185,0.0,-5.3185,-5.2766,-5.2087,-5.2013,-5.1061,-4.9702,-4.9554,-4.9003,-4.8306,-4.8306,-4.8306,-4.8306,-4.8306,-4.8306,-4.8306,-4.8306,-4.7241,-4.5828,-4.4967,-4.2741,-4.0508,-3.9796,-4.0089,-4.0996,-4.2842,-4.3336,-4.3323,-4.3013,-4.2082,-4.0929,-3.964,-3.8605,-3.7595,-3.6527,-3.6343,-3.6322,-3.6301,-3.6301,-3.6025,-3.5283,-3.5128,-3.4473,-3.2869,-3.2162,-3.18,-3.18,-3.1179,-3.08,-3.08,-3.011,-3.0041,-3.0765,-3.08,-3.111,-3.1783,-3.18,-3.2127,-3.28,-3.28,-3.3162,-3.3923,-3.4645,-3.5025,-4.5265,-4.5704,-4.5626,-4.4107,-4.185,-3.9043,-3.5285,-3.2248,-2.9531,-2.7108,-2.5713,-2.5264,-2.6392,-2.7255,-2.8851,-3.2069,-3.41,-3.6468,-3.99,-4.3277,-4.6085,-4.7884,-5.0545,-5.2234,-5.2234,-5.3115,-5.3683,-5.3683,-5.339,-5.3185,-5.3185,-5.3185,-5.3185,-5.3185,-5.3185,-5.3185,-5.3185,-5.3185,-5.3185,-5.3185,-5.3185,-5.3185,-5.3185,-5.3185,-5.2949,-5.2472,-5.2472,-5.2197,0.0,-5.1775,-5.1573,-5.1224,-5.0729,-5.0161,-4.9537,-4.8985,-4.8581,-4.8306,-4.8306,-4.8306,-4.8306,-4.8306,-4.8306,-4.8195,-4.768,-4.6745,-4.5517,-4.3942,-4.1977,-4.0131,-3.9283,-3.977,-4.0926,-4.2849,-4.3124,-4.292,-4.2767,-4.1409,-4.005,-3.9325,-3.8063,-3.6915,-3.6395,-3.6301,-3.6301,-3.6301,-3.6301,-3.6197,-3.5904,-3.5473,-3.4956,-3.4352,-3.3197,-3.2283,-3.1834,-3.1524,-3.1162,-3.0713,-3.0817,-3.0834,-3.0714,-3.1541,-3.2162,-3.2455,-3.2938,-3.3317,-3.3611,-3.3611,-3.3803,-3.413,-3.4872,-3.5197,-4.448,-4.531,-4.5368,-4.346,-4.1388,-3.8793,-3.4913,-3.1863,-2.931,-2.7346,-2.6127,-2.5723,-2.6759,-2.742,-2.8705,-3.1445,-3.2761,-3.4706,-3.8322,-4.1111,-4.3608,-4.5792,-4.8214,-4.9811,-5.005,-5.1756,-5.2949,-5.3167,-5.3185,-5.3185,-5.3185,-5.3185,-5.3185,-5.3185,-5.3185,-5.3185,-5.3185,-5.3185,-5.3185,-5.3185,-5.3185,-5.3185,-5.3185,-5.2968,-5.2546,-5.1977,-5.1738,-5.1316,0.0,-5.0802,-5.0655,-5.038,-4.9831,-4.9445,-4.9132,-4.8488,-4.8267,-4.8248,-4.8229,-4.8229,-4.8267,-4.8267,-4.8287,-4.8103,-4.6925,-4.6154,-4.52,-4.2988,-4.1044,-3.9507,-3.9067,-3.9703,-4.0901,-4.2519,-4.2693,-4.2458,-4.2313,-4.0931,-3.9589,-3.9054,-3.7783,-3.67,-3.6374,-3.6301,-3.6301,-3.6301,-3.6301,-3.6301,-3.6301,-3.5852,-3.5439,-3.5214,-3.4231,-3.3283,-3.2541,-3.2265,-3.1903,-3.1369,-3.1627,-3.1662,-3.1351,-3.2352,-3.3007,-3.3248,-3.38,-3.4217,-3.4441,-3.4441,-3.4545,-3.4749,-3.5283,-3.5525,-4.4448,-4.5599,-4.5635,-4.367,-4.1132,-3.8236,-3.487,-3.1458,-2.8785,-2.7952,-2.6513,-2.5888,-2.7486,-2.7787,-2.8319,-2.9953,-3.1568,-3.3482,-3.5991,-3.9111,-4.1735,-4.3349,-4.5681,-4.7443,-4.8251,-5.0563,-5.2344,-5.313,-5.3185,-5.3185,-5.3185,-5.3185,-5.3185,-5.3185,-5.3185,-5.3185,-5.3185,-5.3185,-5.3185,-5.3185,-5.3185,-5.3185,-5.3167,-5.238,-5.1995,-5.1958,-5.1151,-5.082,0.0,-5.0802,-5.0325,-4.961,-4.961,-4.9058,-4.8305,-4.8226,-4.8187,-4.8187,-4.805,-4.809,-4.8187,-4.8187,-4.8247,-4.7956,-4.6153,-4.5469,-4.4765,-4.215,-3.9857,-3.839,-3.9121,-3.9985,-4.0952,-4.1979,-4.2115,-4.1927,-4.1583,-4.0872,-3.9962,-3.8822,-3.7996,-3.7236,-3.6439,-3.6301,-3.6301,-3.6301,-3.6301,-3.6301,-3.6301,-3.6284,-3.6008,-3.5266,-3.518,-3.489,-3.4148,-3.3352,-3.2886,-3.2886,-3.2196,-3.2127,-3.2852,-3.2904,-3.3266,-3.4079,-3.4113,-3.4456,-3.518,-3.518,-3.5559,-3.6284,-3.6284,-3.6284,-4.1225,-4.2713,-4.324,-4.1357,-3.9713,-3.7673,-3.426,-3.1734,-2.9695,-2.8284,-2.7551,-2.7316,-2.7779,-2.8287,-2.898,-3.0026,-3.1091,-3.2632,-3.5059,-3.7738,-4.0267,-4.2415,-4.5296,-4.7865,-4.9829,-5.0729,-5.1738,-5.3093,-5.3185,-5.3185,-5.3185,-5.3185,-5.3185,-5.3185,-5.3185,-5.3185,-5.3185,-5.3185,-5.2931,-5.238,-5.238,-5.2087,-5.1555,-5.1298,-5.0875,-5.0363,-5.0106,-4.9627,-4.9095,-4.9095,-4.8948,-4.871,-4.871,-4.8545,-4.8287,-4.8208,-4.8012,-4.7793,-4.7852,-4.7834,-4.7813,-4.8012,-4.817,-4.8066,-4.6792,-4.5827,-4.4421,-4.0836,-3.8969,-3.8284,-3.92,-4.01,-4.1023,-4.2032,-4.2065,-4.1788,-4.1485,-4.069,-3.974,-3.8794,-3.7991,-3.7254,-3.6439,-3.6301,-3.6301,-3.6301,-3.6301,-3.6301,-3.6301,-3.6301,-3.6215,-3.5973,-3.5956,-3.5439,-3.4217,-3.3872,-3.349,-3.2938,-3.3197,-3.3214,-3.2921,-3.3904,-3.4594,-3.4835,-3.5335,-3.5714,-3.5956,-3.5956,-3.6077,-3.6301,-3.6255,-3.6255,-3.825,-3.9767,-4.0403,-3.8862,-3.774,-3.629,-3.3465,-3.1476,-2.9917,-2.8841,-2.8305,-2.8122,-2.8352,-2.8713,-2.9152,-2.9666,-3.0687,-3.2137,-3.4252,-3.6931,-3.9937,-4.3259,-4.57,-4.8067,-5.0563,-5.1077,-5.1793,-5.3093,-5.3185,-5.3078,-5.2766,-5.2747,-5.2619,-5.2307,-5.2873,-5.3059,-5.2747,-5.3059,-5.2803,-5.1995,-5.1995,-5.1573,-5.0802,-5.049,-5.0068,-4.9574,-4.9262,-4.8802,0.0,-4.8306,-4.8306,-4.8287,-4.8286,-4.8267,-4.8247,-4.801,-4.7767,-4.75,-4.756,-4.7582,-4.7606,-4.7809,-4.7731,-4.7332,-4.625,-4.478,-4.2905,-4.0114,-3.8872,-3.8615,-3.9599,-4.05,-4.1273,-4.1856,-4.1809,-4.1565,-4.1255,-4.0724,-3.9945,-3.8824,-3.8237,-3.7581,-3.649,-3.6301,-3.6301,-3.6301,-3.6301,-3.6301,-3.6301,-3.6301,-3.6301,-3.6301,-3.6301,-3.5921,-3.5007,-3.4921,-3.4714,-3.4214,-3.4645,-3.4697,-3.4197,-3.5094,-3.5611,-3.5611,-3.6059,-3.6301,-3.6301,-3.6259,-3.6255,-3.6255,-3.6208,-3.6405,0.0,-3.6871,-3.738,-3.6377,-3.5514,-3.4434,-3.2553,-3.0876,0.0,-2.9531,-2.8817,-2.841,-2.9074,-2.9133,-2.9097,-2.9097,-3.0448,-3.2076,-3.3733,-3.6909,-4.0799,-4.5516,-4.6727,-4.8158,-5.0637,-5.1555,-5.2307,-5.3078,-5.3115,-5.2766,-5.1958,-5.1903,-5.1555,-5.0747,-5.2234,-5.2674,-5.1903,-5.2656,-5.2637,-5.183,-5.183,-5.1408,-5.06,-4.9867,-4.9519,0.0,-4.8655,-4.8306,-4.8306,-4.8306,-4.8306,-4.8287,-4.8226,-4.8187,-4.809,-4.766,-4.7363,-4.7232,-4.7178,-4.7312,-4.749,-4.7636,-4.709,-4.6125,-4.4835,-4.2718,-4.063,-3.9909,-3.9344,-3.9225,-4.0157,-4.1041,-4.1666,-4.1539,-4.1445,-4.13,-4.0965,-4.0912,-4.0446,-3.8888,-3.8594,-3.8094,-3.6559,-3.6266,-3.6215,-3.6215,-3.6215,-3.6215,-3.6215,-3.6266,-3.6301,-3.6301,-3.6301,-3.6301,-3.6301,-3.6301,-3.6301,-3.6301,-3.6301,-3.6301,-3.6301,-3.6301,-3.6301,-3.6301,-3.628,-3.628,-3.628,-3.6208,-3.62,-3.6273,-3.6273,-3.6728,-3.226,0.0,-3.6415,-3.4848,-3.4759,-3.4421,0.0,-3.113,-3.0598,-2.9813,-2.9392,-2.9189,-2.9257,-2.9628,-2.9922,-2.9922,-3.1274,-3.3109,-3.5385,-3.9551,-4.3699,-4.7315,-4.7902,-4.9003,-5.1481,-5.1885,-5.2068,-5.227,-5.227,-5.1922,-5.1114,-5.1077,-5.071,-4.9922,-5.0839,-5.1279,-5.1077,-5.1279,-5.0949,-5.0161,-5.0161,-4.9719,-4.8893,-4.8691,-4.8618,-4.86,-4.8398,-4.8306,-4.8306,-4.8306,-4.8306,-4.8287,-4.8226,-4.8012,-4.771,-4.7454,-4.6989,-4.6501,-4.6778,-4.6962,-4.7107,-4.75,-4.7373,-4.6675,-4.4665,-4.241,-4.0432,-3.9858,-3.9344,-3.9246,-4.0264,-4.1077,-4.1613,-4.1644,-4.1463,-4.1186,-4.0942,-4.0912,-4.0446,-3.8888,-3.8594,-3.8094,-3.6559,-3.5818,-3.5456,-3.5456,-3.5456,-3.5456,-3.5456,-3.5956,-3.6301,-3.6301,-3.6301,-3.6301,-3.6301,-3.6301,-3.6301,-3.6301,-3.6301,-3.6301,-3.6301,-3.6301,-3.6276,-3.6229,-3.6127,-3.6084,-3.6084,-3.5949,-3.6283,-3.7045,-3.6935,-3.7413,-3.1217,-3.2795,-3.3979,-3.302,-3.313,-3.2972,-3.1146,-3.043,-3.0083,-2.9849,-2.9344,-2.9119,-2.9736,-3.0037,-3.0448,-3.117,-3.2339,-3.4412,-3.801,-4.1699,-4.5112,-4.7957,-4.8655,-4.9572,-5.1279,-5.1444,-5.1444,-5.1444,-5.1444,-5.1096,-5.0288,-5.0251,-4.9866,-4.9022,-4.9426,-4.9848,-5.0251,-5.0618,-5.0398,-4.961,-4.961,-4.9132,-4.8306,-4.8306,-4.8306,-4.8306,-4.8306,-4.8306,-4.8306,-4.8306,-4.8306,-4.8287,-4.8169,-4.7891,-4.75,-4.7191,-4.6666,-4.6161,-4.6429,-4.6666,-4.6926,-4.7331,-4.6966,-4.6041,-4.4337,-4.2141,-4.0236,-4.0262,-3.9881,-3.9748,-4.0748,-4.1341,-4.1657,-4.1622,-4.1463,-4.1209,-4.0965,-4.0912,-4.0446,-3.8888,-3.887,-3.8612,-3.7094,-3.6801,-3.6749,-3.6749,-3.6749,-3.6728,-3.6664,-3.7068,-3.7193,-3.6801,-3.6793,-3.6676,-3.6289,-3.6255,-3.6276,-3.6301,-3.6301,-3.6301,-3.6301,-3.6276,-3.6212,-3.6122,-3.6041,-3.5975,-3.5927,-3.6179,-3.6581,-3.7125,-3.7445,-3.8094,-3.1408,-3.179,-3.1847,-3.1713,-3.179,-3.1656,-3.0777,-3.0006,-2.9594,-3.0032,-2.9374,-2.9083,-3.0302,-3.0582,-3.1078,-3.2572,-3.388,-3.6303,-4.082,-4.3425,-4.5792,-4.8214,-4.9132,-4.9922,-5.0729,-5.0802,-5.0747,-5.0637,-5.0618,-5.0251,-4.9463,-4.9408,-4.9058,-4.8324,-4.8306,-4.8655,-4.939,-5.0086,-5.0086,-4.9408,-4.9408,-4.9003,-4.8306,-4.8306,-4.8306,-4.8306,0.0,0.0,-4.8306,-4.8306,-4.8306,-4.8287,-4.8072,-4.7767,-4.7363,-4.6916,-4.6405,-4.5938,-4.6137,-4.6447,-4.676,-4.6914,-4.6184,-4.4988,-4.3675,-4.1766,-4.0152,-4.059,-4.0331,-4.0157,-4.1218,-4.1556,-4.16,-4.1512,-4.1418,-4.1272,-4.0965,-4.0912,-4.048,-3.9043,-3.9267,-3.9267,-3.7909,-3.8099,-3.8422,-3.8422,-3.8422,-3.8355,-3.8259,-3.8413,-3.8264,-3.7533,-3.745,-3.715,-3.6427,-3.6234,-3.6191,-3.6259,-3.6259,-3.6259,-3.6259,-3.6187,-3.6131,-3.6146,-3.6124,-3.6127,-3.6129,-3.6741,-3.712,-3.7279,-3.8001,-3.8788,-3.2088,-3.3051,-3.3433,-3.2699,-3.307,-3.3394,-3.2508,-3.2203,-3.1917,-3.1219,-3.0829,-3.0612,-3.066,-3.1621,-3.2686,-3.355,-3.6658,-3.9937,-4.2727,-4.4617,-4.6617,-4.9115,-4.9519,-4.9922,-5.0729,-5.0802,-5.0508,-4.9849,-4.9794,-4.9407,-4.8545,-4.8508,-4.8434,-4.8306,-4.8306,-4.8361,-4.8508,-4.8618,-4.8618,-4.8508,-4.8508,-4.8434,-4.8306,-4.8306,-4.8306,-4.8306,0.0,-4.8306,-4.8306,-4.8306,-4.8306,-4.8287,-4.8072,-4.7585,-4.6954,-4.6713,-4.6154,-4.5563,-4.6055,-4.6308,-4.6347,-4.5594,-4.5187,-4.4509,-4.2077,-4.1069,-4.0642,-4.0066,-3.9467,-3.9363,-4.1001,-4.1351,-4.1305,-4.1396,-4.1272,-4.1099,-4.0935,-4.0912,-4.0636,-3.9698,-3.9612,-3.9422,-3.8577,-3.8013,-3.7668,-3.7668,-3.7575,-3.7487,-3.7465,-3.7929,-3.8248,-3.8237,-3.7586,-3.7158,-3.7131,-3.6444,-3.6041,-3.6041,-3.6041,-3.6041,-3.6041,-3.5927,-3.6151,-3.6758,-3.6701,-3.6971,-3.7591,-3.7692,-3.8129,-3.886,-3.8962,-3.9518,-3.1591,-3.2344,-3.2764,-3.328,-3.4025,-3.4426,-3.3586,-3.2661,-3.2008,-3.2001,-3.1531,-3.1467,-3.2599,-3.322,-3.4202,-3.6172,-3.9509,-4.2229,-4.3349,-4.5259,-4.6985,-4.8104,-4.8636,-4.904,-4.9407,-4.9462,-4.9297,-4.893,-4.8893,-4.8728,-4.8324,-4.8306,-4.8306,-4.8306,-4.8306,-4.8306,-4.8306,-4.8306,-4.8306,-4.8306,-4.8306,-4.8306,-4.8306,-4.8306,-4.8306,-4.8306,0.0,-4.8306,-4.8287,-4.8267,-4.8247,-4.8208,-4.785,-4.7349,-4.6707,-4.6161,-4.577,-4.5563,-4.5955,-4.6087,-4.6027,-4.5667,-4.5142,-4.4369,-4.2659,-4.1567,-4.0825,-4.044,-3.9848,-3.957,-4.0793,-4.1088,-4.1041,-4.1111,-4.1059,-4.0976,-4.0912,-4.0912,-4.067,-3.9853,-4.0043,-4.0095,-3.9319,-3.9272,-3.9319,-3.9227,-3.9198,-3.9065,-3.8924,-3.9238,-3.9289,-3.889,-3.8555,-3.8162,-3.7718,-3.7308,-3.6763,-3.6048,-3.6368,-3.6568,-3.6485,-3.6809,-3.7131,-3.7418,-3.7405,-3.755,-3.7905,-3.8311,-3.8691,-3.9103,-3.9583,-3.9965,-3.0777,-3.1331,-3.1847,-3.3337,-3.4445,-3.5095,-3.4674,-3.3547,-3.276,-3.3364,-3.2909,-3.2928,-3.4632,-3.5175,-3.625,-3.8872,-4.1528,-4.344,-4.3992,-4.5663,-4.6947,-4.7333,-4.7921,-4.8306,-4.8306,-4.8306,-4.8306,-4.8306,-4.8306,-4.8306,-4.8306,-4.8306,-4.8306,-4.8306,-4.8306,-4.8306,-4.8306,-4.8306,-4.8306,-4.8306,-4.8306,-4.8306,-4.8306,-4.8306,-4.8306,-4.8306,-4.8306,-4.8306,-4.8287,-4.8226,-4.813,-4.803,-4.76,-4.7084,-4.6424,-4.5675,-4.5476,-4.5563,-4.5803,-4.5778,-4.5684,-4.562,-4.497,-4.3988,-4.2955,-4.1705,-4.0636,-4.0636,-4.0164,-3.9888,-4.0705,-4.0912,-4.0912,-4.0912,-4.0912,-4.0912,-4.0912,-4.0912,-4.0722,-4.0095,-4.0498,-4.0705,-4.0077,-4.0468,-4.0817,-4.0721,-4.0648,-4.0527,-4.033,-4.0362,-4.0165,-3.9523,-3.9374,-3.8949,-3.8031,-3.798,-3.7534,-3.6524,-3.6979,-3.724,-3.7148,-3.7674,-3.8034,-3.8159,-3.8159,-3.8244,-3.8413,-3.8971,-3.9242,-3.9283,-3.9934,-4.0188,-3.0032,-3.0873,-3.1713,-3.2585,-3.4017,-3.5392,-3.6156,-3.6214,-3.6129,-3.6133,-3.607,-3.6026,-3.6004,-3.7546,-3.9338,-4.0868,-4.188,-4.3251,-4.5424,-4.5883,-4.6544,-4.8049,-4.8269,-4.8306,-4.8306,-4.8306,-4.8306,-4.8306,-4.8306,-4.8306,-4.8306,-4.8306,-4.8306,-4.8306,-4.8306,-4.8306,-4.8306,-4.8306,-4.8306,-4.8306,-4.8306,-4.8306,-4.8306,-4.8306,-4.8306,-4.8306,-4.8306,-4.8306,-4.8287,-4.8226,-4.7992,-4.7611,-4.741,-4.6788,-4.6013,-4.5563,-4.5397,-4.5423,-4.545,-4.545,-4.5303,-4.4647,-4.3905,-4.3024,-4.1516,-4.0457,-3.9784,-3.9784,-3.9733,-3.9888,-4.0705,-4.0912,-4.0912,-4.0912,-4.0912,-4.0912,-4.0912,-4.0912,-4.0877,-4.0825,-4.086,-4.0877,-4.0825,-4.0758,-4.0697,-4.0697,-4.0502,-4.033,-4.0305,-4.0188,-4.0154,-4.0195,-3.951,-3.8708,-3.7956,-3.7905,-3.7855,-3.7777,-3.7811,-3.7845,-3.7821,-3.7872,-3.8227,-3.8903,-3.892,-3.9242,-3.9943,-3.9994,-4.0028,-4.0028,-4.0079,-4.0113,-2.9956,-3.0433,-3.1006,-3.2355,-3.3578,-3.4808,-3.6194,-3.6882,-3.7379,-3.7905,-3.844,-3.8756,-3.851,-3.938,-4.041,-4.1275,-4.2435,-4.3652,-4.4983,-4.603,-4.6856,-4.748,-4.8012,-4.8306,-4.8306,-4.8306,-4.8306,-4.8306,-4.8306,-4.8306,-4.8306,-4.8306,-4.8306,-4.8306,-4.8306,-4.8306,-4.8306,-4.8306,-4.8306,-4.8306,-4.8306,-4.8306,-4.8306,-4.8306,-4.8306,-4.8306,-4.8306,-4.8306,-4.8287,-4.8149,-4.787,-4.7475,-4.6765,-4.6186,-4.5701,-4.5502,-4.5397,-4.5397,-4.5397,-4.5397,-4.5345,-4.5079,-4.4475,-4.369,-4.2654,-4.1774,-4.1026,-4.0584,-4.0463,-4.0532,-4.0825,-4.0912,-4.0912,-4.0912,-4.0912,-4.0912,-4.0912,-4.0912,-4.0912,-4.0912,-4.0912,-4.0871,-4.0793,-4.0721,-4.0648,-4.0478,-4.0355,-4.028,-4.0188,-4.0121,-4.0138,-4.0163,-3.9884,-3.9571,-3.9276,-3.9259,-3.9259,-3.9259,-3.8836,-3.8582,-3.8582,-3.9005,-3.9394,-3.969,-3.969,-3.9825,-4.0096,-4.0096,-4.0096,-4.0096,-4.0096,-4.0367,-2.9707,-2.9994,-3.0472,-3.161,-3.2955,-3.4445,-3.6118,-3.7349,-3.8438,-3.9565,-4.0473,-4.0911,-4.0425,-4.1,-4.1552,-4.1566,-4.2804,-4.3977,-4.4616,-4.5645,-4.6526,-4.7039,-4.759,-4.8012,-4.8288,-4.8306,-4.8306,-4.8306,-4.8306,-4.8306,-4.8306,-4.8306,-4.8306,-4.8306,-4.8306,-4.8306,-4.8306,-4.8306,-4.8306,-4.8306,-4.8306,-4.8306,-4.8306,-4.8306,-4.8306,-4.8306,-4.8306,-4.8306,-4.8287,-4.8092,-4.7687,-4.712,-4.6186,-4.5701,-4.5528,-4.5423,-4.5397,-4.5363,-4.5121,-4.5061,-4.5027,-4.4785,-4.4182,-4.3483,-4.2965,-4.2275,-4.155,-4.105,-4.0912,-4.0912,-4.0912,-4.0912,-4.0912,-4.0912,-4.0912,-4.0912,-4.0912,-4.0912,-4.0912,-4.0912,-4.0912,-4.0864,-4.0721,-4.0673,-4.0576,-4.033,-4.0263,-4.0213,-4.0096,-4.0096,-4.0096,-4.0096,-4.0096,-4.0096,-4.0096,-4.0096,-4.0096,-4.0096,-3.9639,-3.9368,-3.9368,-3.9842,-4.0096,-4.0096,-4.0096,-4.0096,-4.0096,-4.0096,-4.0096,-4.0113,-4.035,-4.0713,-2.9166,-2.9548,-3.023,-3.0249,-3.2141,-3.4445,-3.6137,-3.7818,-3.9508,-4.1189,-4.2172,-4.2427,-4.1508,-4.2465,-4.3024,-4.1908,-4.2943,-4.4077,-4.4616,-4.4691,-4.5278,-4.6892,-4.7094,-4.7406,-4.8214,-4.8306,-4.8306,-4.8306,-4.8306,-4.8306,-4.8287,-4.8287,-4.8287,-4.8306,-4.8306,-4.8306,-4.8306,-4.8306,-4.8306,-4.8306,-4.8306,-4.8306,-4.8306,-4.8306,-4.8306,-4.8306,-4.8306,-4.8306,-4.8287,-4.8072,-4.7436,-4.6518,-4.5718,-4.5397,-4.5397,-4.5397,-4.5397,-4.5276,-4.457,-4.4311,-4.4173,-4.3431,-4.2654,-4.2016,-4.2016,-4.1481,-4.0912,-4.0912,-4.0912,-4.0912,-4.0912,-4.0912,-4.0912,-4.0912,-4.0912,-4.0912,-4.0912,-4.0912,-4.0912,-4.0912,-4.0912,-4.0864,-4.0721,-4.0583,-4.0461,-4.033,-4.0188,-4.0096,-4.0096,-4.0096,-4.0096,-4.0096,-4.0096,-4.0096,-4.0096,-4.0096,-4.0096,-4.0096,-4.0096,-4.0096,-4.0096,-4.0096,-4.0096,-4.0096,-4.0096,-4.0096,-4.0096,-4.0096,-4.0096,-4.013,-4.0849,-4.1221,-3.0624,-3.1324,-3.2241,-3.3414,-3.4292,-3.5439,-3.775,-3.9565,-4.1399,-4.3692,-4.3873,-4.3528,-4.324,-4.2913,-4.2693,-4.2677,-4.2932,-4.3307,-4.3788,-4.4342,-4.4874,-4.5351,-4.6415,-4.7186,-4.7424,-4.7957,-4.8267,-4.8228,-4.8246,-4.8189,-4.8092,-4.8092,-4.8131,-4.8226,-4.8246,-4.8247,-4.8306,-4.8306,-4.8306,-4.8306,-4.8306,-4.8306,-4.8306,-4.8306,-4.8306,-4.8287,-4.8247,-4.8246,-4.8169,-4.7396,-4.6794,-4.6259,-4.5641,-4.5397,-4.5397,-4.5397,-4.5397,-4.5276,-4.457,-4.4311,-4.4173,-4.3431,-4.2654,-4.2016,-4.2016,-4.1481,-4.0912,-4.0912,-4.0912,-4.0912,-4.0912,-4.0912,-4.0912,-4.0912,-4.0912,-4.0912,-4.0912,-4.0912,-4.0912,-4.0912,-4.0912,-4.084,-4.0607,-4.0534,-4.0436,-4.0188,-4.0138,-4.0096,-4.0096,-4.0096,-4.0096,-4.0096,-4.0096,-4.0096,-4.0096,-4.0096,-4.0096,-4.0096,-4.0096,-4.0096,-4.0096,-4.0096,-4.0096,-4.0096,-4.0096,-4.0096,-4.0096,-4.0096,-4.0383,-4.0882,-4.1102,-4.1762,-3.1255,-3.2344,-3.3547,-3.4866,-3.5954,-3.7464,-4.032,-4.1514,-4.2641,-4.4848,-4.4876,-4.4418,-4.4064,-4.3672,-4.3321,-4.3139,-4.3196,-4.3339,-4.3475,-4.392,-4.4342,-4.4672,-4.5553,-4.6397,-4.7039,-4.7497,-4.7898,-4.8189,-4.8148,-4.809,-4.8012,-4.7992,-4.807,-4.8187,-4.8187,-4.8228,-4.8306,-4.8306,-4.8306,-4.8306,-4.8306,-4.8305,-4.8267,-4.8267,-4.8267,-4.8247,-4.8052,-4.7911,-4.7767,-4.6863,-4.6363,-4.6062,-4.5589,-4.5397,-4.5363,-4.5079,-4.4958,-4.482,-4.3759,-4.3396,-4.3276,-4.2534,-4.1964,-4.1567,-4.1567,-4.1257,-4.0912,-4.0912,-4.0912,-4.0912,-4.0912,-4.0912,-4.0912,-4.0912,-4.0912,-4.0912,-4.0912,-4.0912,-4.0912,-4.0912,-4.0864,-4.0752,-4.0534,-4.0461,-4.0362,-4.0121,-4.0096,-4.0096,-4.0096,-4.0096,-4.0096,-4.0096,-4.0096,-4.0096,-4.0096,-4.0096,-4.0096,-4.0096,-4.0096,-4.0096,-4.0096,-4.0096,-4.0096,-4.0096,-4.0096,-4.0096,-4.0096,-4.0096,-4.0485,-4.1221,-4.1508,-4.2269,-3.1236,-3.2783,-3.4312,-3.5209,-3.7349,-4.0081,-4.3261,-4.3433,-4.3367,-4.4972,-4.5307,-4.5048,-4.4255,-4.4547,-4.4543,-4.3402,-4.3662,-4.3878,-4.3549,-4.3497,-4.3773,-4.4489,-4.4654,-4.5278,-4.6727,-4.6872,-4.718,-4.7893,-4.7924,-4.7862,-4.7862,-4.7935,-4.803,-4.8168,-4.8168,-4.8207,-4.8287,-4.8287,-4.825,-4.8196,-4.8269,-4.823,-4.8078,-4.8169,-4.8168,-4.8108,-4.7713,-4.7417,-4.7169,-4.6459,-4.6087,-4.5912,-4.5537,-4.5397,-4.5311,-4.4561,-4.4311,-4.4087,-4.2534,-4.2016,-4.1895,-4.1153,-4.0912,-4.0912,-4.0912,-4.0912,-4.0912,-4.0912,-4.0912,-4.0912,-4.0912,-4.0912,-4.0912,-4.0912,-4.0912,-4.0912,-4.0912,-4.0912,-4.0912,-4.0871,-4.0793,-4.0648,-4.051,-4.0387,-4.0238,-4.0138,-4.0096,-4.0096,-4.0096,-4.0096,-4.0096,-4.0096,-4.0096,-4.0096,-4.0096,-4.0096,-4.0096,-4.0096,-4.0096,-4.0096,-4.0096,-4.0096,-4.0096,-4.0096,-4.0096,-4.0096,-4.0096,-4.0096,-4.0493,-4.1322,-4.1982,-4.2726,-3.1083,-3.3184,-3.5305,-3.6795,-3.9069,-4.1495,-4.3529,-4.3873,-4.4036,-4.5067,-4.5307,-4.5239,-4.5048,-4.4947,-4.4733,-4.4199,-4.405,-4.3862,-4.3481,-4.3411,-4.3484,-4.3649,-4.4253,-4.4748,-4.5096,-4.57,-4.6063,-4.6092,-4.6653,-4.6939,-4.6839,-4.7417,-4.7842,-4.7963,-4.7963,-4.8046,-4.8226,-4.8226,-4.7936,-4.7369,-4.8012,-4.7937,-4.7291,-4.7913,-4.8008,-4.7639,-4.7327,-4.6954,-4.6572,-4.6211,-4.5905,-4.5667,-4.5459,-4.5397,-4.5311,-4.4561,-4.4311,-4.4087,-4.2534,-4.2016,-4.1895,-4.1153,-4.0912,-4.0912,-4.0912,-4.0912,-4.0912,-4.0912,-4.0912,-4.0912,-4.0912,-4.0912,-4.0912,-4.0912,-4.0912,-4.0912,-4.0912,-4.0912,-4.0864,-4.0769,-4.0721,-4.0624,-4.0387,-4.033,-4.0238,-4.0138,-4.0096,-4.0096,-4.0096,-4.0096,-4.0096,-4.0096,-4.0096,-4.0096,-4.0096,-4.0096,-4.0096,-4.0096,-4.0096,-4.0096,-4.0096,-4.0096,-4.0096,-4.0096,-4.0096,-4.0096,-4.0096,-4.0096,-4.079,-4.2066,-4.2219,-4.3014,-3.093,-3.3318,-3.5897,-3.8801,-4.0826,-4.245,-4.3701,-4.4312,-4.4743,-4.5201,-4.5307,-4.5307,-4.5307,-4.5091,-4.4789,-4.4457,-4.4151,-4.3832,-4.3446,-4.334,-4.3323,-4.3394,-4.3724,-4.4108,-4.4547,-4.4894,-4.5201,-4.5486,-4.5827,-4.6003,-4.5924,-4.6323,-4.6599,-4.6757,-4.6757,-4.7021,-4.7621,-4.7255,-4.7074,-4.7094,-4.7131,-4.7018,-4.6823,-4.7429,-4.7542,-4.7227,-4.6747,-4.6418,-4.6186,-4.5854,-4.5641,-4.5502,-4.5423,-4.5397,-4.5259,-4.419,-4.3776,-4.3552,-4.2016,-4.1481,-4.1412,-4.1032,-4.0912,-4.0912,-4.0912,-4.0912,-4.0912,-4.0912,-4.0912,-4.0912,-4.0912,-4.0912,-4.0912,-4.0912,-4.0912,-4.0912,-4.0912,-4.0864,-4.0793,-4.0721,-4.06,-4.0478,-4.033,-4.0238,-4.0188,-4.0096,-4.0096,-4.0096,-4.0096,-4.0096,-4.0096,-4.0096,-4.0096,-4.0096,-4.0096,-4.0096,-4.0096,-4.0096,-4.0096,-4.0265,-4.0595,-4.0629,-4.0468,-4.0113,-4.0096,-4.0096,-4.0096,-4.0096,-4.0874,-4.2286,-4.2286,-4.3115,-3.0395,-3.3184,-3.6405,-4.0473,-4.202,-4.2812,-4.3776,-4.4539,-4.5104,-4.5237,-4.5286,-4.5307,-4.5307,-4.5091,-4.4789,-4.4443,-4.4106,-4.3767,-4.3394,-4.3251,-4.3214,-4.3341,-4.3251,-4.3488,-4.4254,-4.4198,-4.4358,-4.4993,-4.5078,-4.5091,-4.5091,-4.5218,-4.5349,-4.5465,-4.5465,-4.5872,-4.676,-4.6101,-4.6066,-4.6672,-4.5975,-4.588,-4.6329,-4.6554,-4.6735,-4.6888,-4.6158,-4.5877,-4.5887,-4.5537,-4.5397,-4.5397,-4.5397,-4.5397,-4.5207,-4.3741,-4.3189,-4.2982,-4.1429,-4.0912,-4.0912,-4.0912,-4.0912,-4.0912,-4.0912,-4.0912,-4.0912,-4.0912,-4.0912,-4.0912,-4.0912,-4.0912,-4.0912,-4.0912,-4.0888,-4.0864,-4.0864,-4.0793,-4.0697,-4.0624,-4.0412,-4.028,-4.028,-4.0163,-4.0096,-4.0096,-4.0096,-4.0096,-4.0096,-4.0096,-4.0096,-4.0096,-4.0096,-4.0096,-4.0096,-4.0096,-4.0096,-4.0096,-4.0096,-4.0434,-4.117,-4.1204,-4.0967,-4.0502,-4.0485,-4.0485,-4.0485,-4.0485,-4.1153,-4.2489,-4.2489,-4.3234,-2.8759,-3.2707,-3.7141,-4.0559,-4.1502,-4.2007,-4.3566,-4.3994,-4.4279,-4.4973,-4.5213,-4.5307,-4.5307,-4.5091,-4.4764,-4.4393,-4.4079,-4.3718,-4.3215,-4.3123,-4.3123,-4.3141,-4.3123,-4.3159,-4.3287,-4.3287,-4.3249,-4.3246,-4.3879,-4.4258,-4.4258,-4.491,-4.5309,-4.5329,-4.5329,-4.5464,-4.5768,-4.5677,-4.5405,-4.4931,-4.4711,-4.4813,-4.5209,-4.4667,-4.5221,-4.6613,-4.5938,-4.5649,-4.5641,-4.5476,-4.5397,-4.5397,-4.5397,-4.5397,-4.5207,-4.3741,-4.3189,-4.2982,-4.1429,-4.0912,-4.0912,-4.0912,-4.0912,-4.0912,-4.0912,-4.0912,-4.0912,-4.0912,-4.0912,-4.0912,-4.0912,-4.0912,-4.0912,-4.0912,-4.0817,-4.0721,-4.0721,-4.0721,-4.0624,-4.0404,-4.0238,-4.0138,-4.0138,-4.0096,-4.0096,-4.0096,-4.0096,-4.0096,-4.0096,-4.0096,-4.0096,-4.0096,-4.0096,-4.0096,-4.0096,-4.0096,-4.0096,-4.0096,-4.0096,-4.0434,-4.117,-4.1204,-4.1457,-4.1982,-4.1999,-4.1999,-4.1999,-4.1999,-4.2439,-4.324,-4.324,-4.3741,-2.9383,-3.3333,-3.701,-3.9395,-4.071,-4.1594,-4.2335,-4.3229,-4.401,-4.4352,-4.4824,-4.5181,-4.5181,-4.4967,-4.4661,-4.4308,-4.3952,-4.3582,-4.316,-4.303,-4.303,-4.3086,-4.303,-4.303,-4.3086,-4.303,-4.2957,-4.2901,-4.3226,-4.3425,-4.3425,-4.3751,-4.3951,-4.3951,-4.3951,-4.4284,-4.491,-4.4379,-4.3903,-4.3539,-4.3879,-4.4041,-4.3992,-4.3893,-4.4261,-4.4928,-4.4273,-4.432,-4.4863,-4.4811,-4.5044,-4.5397,-4.5397,-4.5139,-4.4647,-4.3586,-4.2913,-4.2378,-4.1291,-4.0912,-4.0912,-4.0912,-4.0912,-4.0912,-4.0912,-4.0912,-4.0912,-4.0912,-4.0912,-4.0912,-4.0912,-4.0912,-4.0912,-4.0912,-4.0793,-4.0673,-4.0568,-4.0502,-4.0429,-4.0213,-4.0138,-4.0096,-4.0096,-4.0096,-4.0096,-4.0096,-4.0096,-4.0096,-4.0096,-4.0096,-4.0096,-4.0096,-4.084,-4.1247,-4.095,-4.1196,-4.1348,-4.1348,-4.1348,-4.166,-4.2405,-4.2412,-4.2811,-4.3582,-4.2726,-4.2286,-4.2286,-4.2286,-4.2675,-4.3392,-4.3392,-4.3842,-2.965,-3.2935,-3.5639,-3.7727,-3.9175,-4.0259,-4.0885,-4.1988,-4.3061,-4.3707,-4.4334,-4.481,-4.5,-4.4846,-4.4568,-4.4221,-4.3839,-4.3478,-4.3105,-4.2957,-4.2938,-4.303,-4.2957,-4.2938,-4.303,-4.2957,-4.2901,-4.2901,-4.2901,-4.2901,-4.2901,-4.2901,-4.2901,-4.2901,-4.2901,-4.3285,-4.4053,-4.3209,-4.2692,-4.2518,-4.299,-4.3027,-4.2701,-4.2876,-4.2945,-4.2925,-4.2782,-4.316,-4.3984,-4.4199,-4.4613,-4.5147,-4.5328,-4.4958,-4.4207,-4.3465,-4.2689,-4.1895,-4.117,-4.0912,-4.0912,-4.0912,-4.0912,-4.0912,-4.0912,-4.0912,-4.0912,-4.0912,-4.0912,-4.0912,-4.0912,-4.0912,-4.0888,-4.0864,-4.0745,-4.06,-4.0421,-4.0305,-4.0213,-4.0138,-4.0096,-4.0096,-4.0096,-4.0096,-4.0096,-4.0096,-4.0096,-4.0383,-4.1145,-4.1247,-4.1247,-4.1247,-4.2245,-4.2726,-4.2388,-4.2303,-4.2286,-4.2286,-4.2286,-4.2625,-4.3358,-4.3392,-4.3792,-4.4581,-4.3481,-4.2861,-4.2861,-4.2861,-4.3166,-4.3707,-4.3707,-4.4028,-2.8325,-3.0328,-3.2435,-3.5634,-3.6502,-3.7157,-3.9467,-4.0044,-4.0783,-4.322,-4.3751,-4.4016,-4.4775,-4.4802,-4.4554,-4.4076,-4.3772,-4.3425,-4.2994,-4.2901,-4.2901,-4.2919,-4.2901,-4.2901,-4.2919,-4.2901,-4.2901,-4.2901,-4.2901,-4.2901,-4.2901,-4.2901,-4.2901,-4.2901,-4.2901,-4.2993,-4.3177,-4.267,-4.2297,-4.2015,-4.1753,-4.1503,-4.1307,-4.1047,-4.0933,-4.091,-4.2159,-4.2835,-4.3133,-4.3967,-4.4328,-4.4432,-4.5121,-4.4958,-4.4207,-4.3465,-4.2689,-4.1895,-4.117,-4.0912,-4.0912,-4.0912,-4.0912,-4.0912,-4.0912,-4.0912,-4.0912,-4.0912,-4.0912,-4.0912,-4.0912,-4.0912,-4.0864,-4.0745,-4.0624,-4.0485,-4.033,-4.0188,-4.0113,-4.0096,-4.0096,-4.0096,-4.0096,-4.0096,-4.0096,-4.0096,-4.0096,-4.1128,-4.4005,-4.4378,-4.4378,-4.4378,-4.4445,-4.4479,-4.4462,-4.3115,-4.2286,-4.2286,-4.2286,-4.2625,-4.3358,-4.3392,-4.3792,-4.4581,-4.453,-4.4479,-4.4479,-4.4479,-4.4513,-4.4547,-4.4547,-4.4564,-2.5307,-2.7668,-3.0274,-3.2534,-3.427,-3.5922,-3.7845,-3.9123,-4.0317,-4.1787,-4.2962,-4.3796,-4.408,-4.4366,-4.443,-4.4004,-4.371,-4.3392,-4.2957,-4.2901,-4.2901,-4.2901,-4.2901,-4.2901,-4.2901,-4.2901,-4.2901,-4.2901,-4.2901,-4.2901,-4.2901,-4.2901,-4.2901,-4.2901,-4.2861,-4.2707,-4.247,-4.213,-4.1839,-4.16,-4.1401,-4.1255,-4.1123,-4.0948,-4.0776,-4.0593,-4.0974,-4.1511,-4.2124,-4.2431,-4.2627,-4.2712,-4.2987,-4.2693,-4.2102,-4.1826,-4.155,-4.1257,-4.0998,-4.0912,-4.0912,-4.0912,-4.0912,-4.0912,-4.0912,-4.0912,-4.0912,-4.0912,-4.0912,-4.0912,-4.0912,-4.0912,-4.0847,-4.0607,-4.0412,-4.0238,-4.0188,-4.051,-4.0798,-4.0798,-4.0933,-4.1052,-4.1052,-4.0536,-4.0096,-4.0096,-4.1754,-4.3379,-4.4462,-4.4615,-4.4615,-4.4615,-4.4615,-4.4615,-4.4615,-4.409,-4.3785,-4.3785,-4.3785,-4.3876,-4.4147,-4.4164,-4.4327,-4.4598,-4.4615,-4.4615,-4.4615,-4.4615,-4.4615,-4.4615,-4.4615,-4.4615,-2.3566,-2.5653,-2.8004,-2.9962,-3.187,-3.3752,-3.5704,-3.7239,-3.8706,-4.0412,-4.1632,-4.2567,-4.3092,-4.3414,-4.3666,-4.3869,-4.366,-4.3357,-4.2975,-4.2901,-4.2901,-4.2901,-4.2901,-4.2901,-4.2901,-4.2901,-4.2901,-4.2901,-4.2901,0.0,-4.2901,-4.2901,-4.2863,-4.2805,-4.267,-4.2391,-4.1934,-4.1596,-4.1333,-4.1232,-4.1117,-4.1065,-4.1023,-4.0918,-4.0734,-4.0485,-4.0313,-4.0585,-4.1187,-4.1476,-4.1654,-4.1763,-4.2062,-4.1776,-4.1202,-4.125,-4.1119,-4.0912,-4.0912,-4.0912,-4.0912,-4.0912,-4.0912,-4.0912,-4.0912,-4.0912,-4.0912,-4.0912,-4.0912,-4.0912,-4.0912,-4.0823,-4.0704,-4.0485,-4.0246,-4.018,-4.0434,-4.0849,-4.1136,-4.0882,-4.1238,-4.1491,-4.1136,-4.0553,-4.0451,-4.1467,-4.3328,-4.4615,-4.4615,-4.4615,-4.4615,-4.4615,-4.4615,-4.4615,-4.4615,-4.4615,-4.4615,-4.4615,-4.4615,-4.4615,-4.4615,-4.4615,-4.4615,-4.4615,-4.4615,-4.4615,-4.4615,-4.4615,-4.4615,-4.4615,-4.4615,-4.4615,0.0,0.0,0.0,-2.8032,-2.9292,-3.0568,-3.2994,-3.4226,-3.5799,-3.9104,-3.978,-4.0272,-4.1856,-4.1967,-4.2244,-4.3578,-4.3607,-4.3339,-4.2957,-4.2901,-4.2901,-4.2901,-4.2901,-4.2901,-4.2901,-4.2901,-4.2901,-4.2901,-4.2901,-4.2901,-4.2901,-4.2901,-4.2805,-4.2609,-4.2335,-4.2005,-4.1604,-4.1053,-4.0836,-4.0894,-4.0819,-4.0836,-4.0912,-4.0819,-4.0676,-4.0485,-4.0238,-4.0163,-4.0356,-4.1204,-4.1552,-4.1621,-4.2517,-4.2413,-4.1751,-4.1874,-4.1498,-4.0912,-4.0912,-4.0912,-4.0912,-4.0912,-4.0912,-4.0912,-4.0912,-4.0912,-4.0912,-4.0912,-4.0912,-4.0912,-4.0912,-4.0704,-4.0461,-4.033,-4.0188,-4.0299,-4.1018,-4.1187,-4.1018,-4.0333,-4.101,-4.1399,-4.04,-4.0231,-4.123,-4.4175,-4.4615,-4.4615,-4.4615,-4.4615,-4.4615,-4.4615,-4.4615,-4.4615,-4.4615,-4.4615,-4.4615,-4.4615,-4.4615,-4.4615,-4.4615,-4.4615,-4.4615,-4.4615,-4.4615,-4.4615,-4.4615,-4.4615,-4.4615,-4.4615,-4.4615,-4.4615,-2.2724,0.0,0.0,0.0,0.0,0.0,-2.9783,-3.2141,-3.4643,-3.6784,-3.8566,-4.0014,-4.0942,-4.1407,-4.1683,-4.1796,-4.2193,-4.2592,-4.2866,-4.2901,-4.2901,-4.2901,-4.2901,-4.2901,-4.2901,-4.2901,-4.2901,0.0,-4.2901,-4.2901,-4.2901,-4.2901,-4.2749,-4.2472,-4.2151,-4.177,-4.1318,-4.0813,-4.0638,-4.0745,-4.0847,-4.0894,-4.0912,-4.0894,-4.0752,-4.0485,-4.0238,-4.0138,-4.0163,-4.0434,-4.0246,-3.9878,-4.0148,-4.0202,-4.0147,-4.0171,-4.049,-4.0912,-4.0912,-4.0912,-4.0912,-4.0912,-4.0912,-4.0912,-4.0912,-4.0912,-4.0912,-4.0912,-4.0912,-4.0888,-4.0793,-4.0551,-4.0355,-4.0305,-4.0188,-4.0163,-4.0367,-4.0967,-4.1644,-4.2168,-4.3064,-4.3684,-4.3413,-4.3362,-4.365,-4.4479,-4.4615,-4.4615,-4.4615,-4.4615,-4.4615,-4.4615,-4.4615,-4.4615,-4.4615,-4.4615,-4.4615,-4.4615,-4.4615,-4.4615,-4.4615,-4.4615,-4.4615,-4.4615,-4.4615,-4.4615,-4.4615,-4.4615,-4.4615,-4.4615,-4.4615,-4.4615,-2.3379,-2.3859,-2.434,-2.4701,0.0,0.0,-2.801,-3.0227,-3.2596,-3.4263,-3.6238,-3.7857,-3.8507,-3.9122,-3.9536,-3.9473,-4.0083,-4.0991,-4.2231,-4.2683,-4.2774,-4.2448,-4.2701,-4.2755,-4.2429,-4.2701,-4.2901,-4.2901,-4.2901,-4.2901,-4.2901,-4.2901,-4.2729,-4.2371,-4.1945,-4.1534,-4.1088,-4.059,-4.0436,-4.0624,-4.0782,-4.0877,-4.0912,-4.0877,-4.0734,-4.0485,-4.0238,-4.0096,-4.0096,-4.0096,-3.9884,-3.9585,-3.9634,-3.9715,-3.9843,-3.9963,-4.035,-4.0817,-4.0888,-4.0912,-4.0912,-4.0912,-4.0912,-4.0912,-4.0912,-4.0912,-4.0912,-4.0912,-4.0864,-4.0769,-4.0576,-4.0429,-4.0305,-4.0213,-4.0163,-4.0214,-4.0654,-4.1322,-4.1863,-4.1847,-4.3345,-4.4615,-4.4615,-4.4615,-4.4615,-4.4615,-4.4615,-4.4615,-4.4615,-4.4615,-4.4615,-4.4615,-4.4615,-4.4615,-4.4615,-4.4615,-4.4615,-4.4615,-4.4615,-4.4615,-4.4615,-4.4615,-4.4615,-4.4615,-4.4615,-4.4615,-4.4615,-4.4615,-4.4615,-4.4615,-4.4615,-4.4615,-2.4998,-2.5242,-2.5437,-2.6051,-2.6197,0.0,-2.6944,-2.8408,-3.0086,-3.1659,-3.3261,-3.4584,-3.5285,-3.5882,-3.6406,-3.6831,-3.7593,-3.892,-4.1144,-4.214,-4.2375,-4.165,-4.2194,-4.2357,-4.1632,-4.2212,-4.2665,-4.2755,-4.2865,-4.29,-4.29,-4.2863,-4.2689,-4.2267,-4.1735,-4.1288,-4.0871,-4.0362,-4.0238,-4.0485,-4.0676,-4.0789,-4.0847,-4.0789,-4.0652,-4.0461,-4.0196,-4.0096,-4.0096,-4.0096,-4.0096,-4.0096,-4.0238,-4.0305,-4.033,-4.0576,-4.0673,-4.0721,-4.084,-4.0888,-4.0912,-4.0912,-4.0912,-4.0912,-4.0912,-4.0912,-4.0912,-4.0888,-4.0769,-4.06,-4.0355,-4.0305,-4.0238,-4.0138,-4.0096,-4.035,-4.1221,-4.1745,-4.1788,-4.079,-4.277,-4.4615,-4.4615,-4.4615,-4.4615,-4.4615,-4.4615,-4.4615,-4.4615,-4.4615,-4.4615,-4.4615,-4.4615,-4.4615,-4.4615,-4.4615,-4.4615,-4.4615,-4.4615,-4.4615,-4.4615,-4.4615,-4.4615,-4.4615,-4.4615,-4.4615,-4.4615,-4.4615,-4.4615,-4.4615,-4.4615,-4.4615,-2.761,-2.7718,-2.7468,-2.6446,-2.6197,0.0,-2.4719,-2.6273,-2.8245,-2.9215,-3.0655,-3.2136,-3.346,-3.3659,-3.3814,-3.4316,-3.5564,-3.7264,-3.9531,-4.0492,-4.0908,-4.0745,-4.0854,-4.0908,-4.0745,-4.089,-4.1234,-4.1886,-4.252,-4.2881,-4.2822,-4.2727,-4.2452,-4.198,-4.1507,-4.1094,-4.0745,-4.0313,-4.0188,-4.0337,-4.0493,-4.0566,-4.0583,-4.0566,-4.0468,-4.033,-4.0163,-4.0096,-4.0096,-4.0096,-4.0096,-4.0096,-4.0138,-4.0213,-4.0305,-4.0355,-4.0527,-4.0697,-4.0721,-4.0817,-4.0912,-4.0912,-4.0912,-4.0912,-4.0912,-4.0912,-4.0888,-4.0769,-4.0576,-4.0379,-4.0305,-4.0213,-4.0121,-4.0113,-4.0096,-4.0146,-4.035,-4.0468,-4.1162,-4.3311,-4.4209,-4.4615,-4.4615,-4.4615,-4.4615,-4.4615,-4.4615,-4.4615,-4.4615,-4.4615,-4.4615,-4.4615,-4.4615,-4.4615,-4.4615,-4.4615,-4.4615,-4.4615,-4.4615,-4.4615,-4.4615,-4.4615,-4.4615,-4.4615,-4.4615,-4.4615,-4.4615,-4.4615,-4.4615,-4.4615,-4.4615,-4.4615,-2.9404,-2.9194,-2.868,-2.7579,-2.6668,0.0,0.0,-2.5514,-2.6862,-2.7269,-2.8598,-3.003,-3.1111,-3.1518,-3.1738,-3.1878,-3.3191,-3.4571,-3.5654,-3.8192,-3.9948,-3.9948,-4.0275,-4.0365,-4.0003,-4.0275,-4.0836,-4.1632,-4.2085,-4.2408,-4.2689,-4.2512,-4.221,-4.1762,-4.126,-4.0884,-4.0607,-4.0263,-4.0121,-4.0188,-4.0288,-4.0296,-4.0296,-4.0296,-4.0246,-4.0188,-4.0138,-4.0096,-4.0096,-4.0096,-4.0096,-4.0096,-4.0096,-4.0138,-4.0213,-4.028,-4.0379,-4.0527,-4.0648,-4.0745,-4.0817,-4.0888,-4.0912,-4.0912,-4.0912,-4.0847,-4.0769,-4.0551,-4.0404,-4.0263,-4.0213,-4.0163,-4.0096,-4.0096,-4.0096,-4.0096,-4.0096,-4.0096,-4.0993,-4.4022,-4.4615,-4.4615,-4.4615,-4.4615,-4.4615,-4.4615,-4.4615,-4.4615,-4.4615,-4.4615,-4.4615,-4.4615,-4.4615,-4.4615,-4.4615,-4.4615,-4.4615,-4.4615,-4.4615,-4.4615,-4.4615,-4.4615,-4.4615,-4.4615,-4.4615,-4.4615,-4.4615,-4.4615,-4.4615,-4.4615,-4.4615,-4.4615,-3.1108,-3.0739,-3.011,-2.9251,-2.7669,-2.6041,0.0,0.0,0.0,-2.5924,-2.7079,-2.8297,-2.8993,-2.9485,-2.9743,-2.9672,-3.0812,-3.1715,0.0,-3.5349,0.0,-3.8645,-3.9242,-3.9423,-3.8971,-3.9587,-4.0293,-4.0981,-4.1144,-4.1485,-4.2086,-4.1991,-4.1732,-4.1332,-4.0938,-4.0669,-4.0461,-4.0221,-4.0096,-4.0096,-4.0096,-4.0096,-4.0096,-4.0096,-4.0096,-4.0096,-4.0096,-4.0096,-4.0096,-4.0096,-4.0096,-4.0096,-4.0096,-4.0096,-4.0096,-4.0213,-4.028,-4.033,-4.0551,-4.0648,-4.0673,-4.0793,-4.0823,-4.0823,-4.0823,-4.0745,-4.0576,-4.0355,-4.028,-4.0255,-4.0138,-4.0096,-4.0096,-4.0096,-4.0096,-4.0096,-4.0096,-4.0553,-4.1687,-4.4141,-4.4615,-4.4615,-4.4615,-4.4615,-4.4615,-4.4615,-4.4615,-4.4615,-4.4615,-4.4615,-4.4615,-4.4615,-4.4615,-4.4615,-4.4615,-4.4615,-4.4615,-4.4615,-4.4615,-4.4615,-4.4615,-4.4615,-4.4615,-4.4615,-4.4615,-4.4615,-4.4615,-4.4615,-4.4615,-4.4615,-4.4615,-4.4615,-3.3371,-3.3377,-3.2981,-3.1658,-2.9524,-2.7361,-2.5847,0.0,-2.5652,-2.5652,0.0,-2.7212,-2.801,0.0,0.0,-2.7963,-2.8717,0.0,-2.9979,-3.1763,-3.381,-3.5949,-3.6274,-3.658,-3.7212,-3.7889,-3.8377,-3.8572,-3.9155,-3.9752,-4.0356,-4.0684,-4.0701,-4.0284,-4.0438,-4.0485,-4.0313,-4.0171,-4.0096,-4.0096,-4.0096,-4.0096,-4.0096,-4.0096,-4.0096,-4.0096,-4.0096,-4.0096,-4.0096,-4.0096,-4.0096,-4.0096,-4.0096,-4.0096,-4.0096,-4.0138,-4.0188,-4.0288,-4.033,-4.0412,-4.0534,-4.0534,-4.0558,-4.0558,-4.0558,-4.0436,-4.0355,-4.0305,-4.0213,-4.0138,-4.0096,-4.0096,-4.0096,-4.0096,-4.0096,-4.0096,-4.0096,-4.2211,-4.4192,-4.453,-4.4615,-4.4615,-4.4615,-4.4615,-4.4615,-4.4615,-4.4615,-4.4615,-4.4615,-4.4615,-4.4615,-4.4615,-4.4615,-4.4615,-4.4615,-4.4615,-4.4615,-4.4615,-4.4615,-4.4615,-4.4615,-4.4615,-4.4615,-4.4615,-4.4615,-4.4615,-4.4615,-4.4615,-4.4615,-4.4615,-4.4615,-4.4615,-3.5035,-3.4412,-3.3381,-3.1894,-3.0044,-2.8146,-2.6514,-2.6117,-2.6117,-2.6117,0.0,0.0,0.0,0.0,0.0,0.0,-2.7581,0.0,0.0,0.0,-3.117,-3.4063,0.0,0.0,-3.617,-3.6499,-3.6845,-3.7298,-3.7658,-3.8258,-3.9182,-3.9613,-3.9834,-3.9875,-3.9713,-3.9797,-4.0188,-4.0138,-4.0096,-4.0096,-4.0096,-4.0096,-4.0096,-4.0096,-4.0096,-4.0096,-4.0096,-4.0096,-4.0096,-4.0096,-4.0096,-4.0096,-4.0096,-4.0096,-4.0096,-4.0096,-4.0138,-4.0188,-4.0263,-4.0355,-4.0387,-4.0485,-4.051,-4.0485,-4.0412,-4.0337,-4.0263,-4.0213,-4.0121,-4.0096,-4.0096,-4.0096,-4.0096,-4.0096,-4.0096,-4.0265,-4.0832,-4.2888,-4.4615,-4.4615,-4.4615,-4.4615,-4.4615,-4.4615,-4.4615,-4.4615,-4.4615,-4.4615,-4.4615,-4.4615,-4.4615,-4.4615,-4.4615,-4.4615,-4.4615,-4.4615,-4.4615,-4.4615,-4.4615,-4.4615,-4.4615,-4.4615,-4.4615,-4.4615,-4.4615,-4.4615,-4.4615,-4.4615,-4.4615,-4.4615,-4.4615,-4.4615,-3.6266,-3.5311,-3.3897,-3.2328,-3.0563,-2.879,-2.7123,-2.6746,-2.6801,-2.702,-2.7239,0.0,0.0,0.0,-2.7668,-2.6813,0.0,-2.706,-2.6783,-2.7423,0.0,0.0,0.0,0.0,0.0,-3.4769,-3.5209,-3.5652,-3.5972,-3.6628,-3.776,-3.8435,-3.8846,-3.8981,-3.8986,-3.9242,-3.9791,-3.9994,-4.0096,-4.0096,-4.0096,-4.0096,-4.0096,-4.0096,-4.0096,-4.0096,-4.0096,-4.0096,-4.0096,-4.0096,-4.0096,-4.0096,-4.0096,-4.0096,-4.0096,-4.0096,-4.0096,-4.0096,-4.0213,-4.0238,-4.0263,-4.0362,-4.0395,-4.0387,-4.0263,-4.0238,-4.0213,-4.0138,-4.0096,-4.0096,-4.0096,-4.0096,-4.0096,-4.0096,-4.0096,-4.0383,-4.1373,-4.2946,-4.4276,-4.4564,-4.4615,-4.4615,-4.4615,-4.4615,-4.4615,-4.4615,-4.4615,-4.4615,-4.4615,-4.4615,-4.4615,-4.4615,-4.4615,-4.4615,-4.4615,-4.4615,-4.4615,-4.4615,-4.4615,-4.4615,-4.4615,-4.4615,-4.4615,-4.4615,-4.4615,-4.4615,-4.4615,-4.4615,-4.4615,-4.4615,-4.4615,-4.4615,0.0,0.0,0.0,-3.3752,-3.1542,-2.9362,-2.7743,-2.7363,-2.7598,-2.8377,-2.915,-2.9942,-3.0758,-2.9608,-2.8323,-2.7508,-2.6729,0.0,0.0,-2.5769,-2.7182,0.0,0.0,0.0,0.0,-3.2403,-3.3242,0.0,-3.3788,-3.4693,-3.583,-3.7065,-3.7564,-3.7211,-3.837,-3.9005,-3.9039,-3.9757,-4.0096,-4.0096,-4.0096,-4.0096,-4.0096,-4.0096,-4.0096,-4.0096,-4.0096,-4.0096,-4.0096,-4.0096,-4.0096,-4.0096,-4.0096,-4.0096,-4.0096,-4.0096,-4.0096,-4.0096,-4.0096,-4.0113,-4.0113,-4.0096,-4.0096,-4.0096,-4.0113,-4.0113,-4.0113,-4.0096,-4.0096,-4.0096,-4.0096,-4.0096,-4.0096,-4.0096,-4.0096,-4.0383,-4.1373,-4.2422,-4.3436,-4.4429,-4.4615,-4.4615,-4.4615,-4.4615,-4.4615,-4.4615,-4.4615,-4.4615,-4.4615,-4.4615,-4.4615,-4.4615,-4.4615,-4.4615,-4.4615,-4.4615,-4.4615,-4.4615,-4.4615,-4.4615,-4.4615,-4.4615,-4.4615,-4.4615,-4.4615,-4.4615,-4.4615,-4.4615,-4.4615,-4.4615,-4.4615,-4.4615,0.0,0.0,-3.62,-3.4606,0.0,0.0,0.0,0.0,0.0,-3.0133,-3.0822,-3.1473,-3.1727,-3.0912,-2.9753,-2.8401,-2.7061,-2.6113,0.0,-2.557,0.0,-2.7254,-2.9313,-3.0672,0.0,0.0,0.0,-3.1953,-3.2583,0.0,-3.4612,-3.5376,-3.6096,-3.6803,-3.76,-3.8253,-3.8715,-3.9539,-3.9961,-3.9961,-4.0062,-4.0096,-4.0096,-4.0096,-4.0096,-4.0096,-4.0096,-4.0096,-4.0096,-4.0096,-4.0096,-4.0096,-4.0096,-4.0096,-4.0096,-4.0096,-4.0096,-4.0096,-4.0096,-4.0096,-4.0096,-4.0096,-4.0096,-4.0096,-4.0096,-4.0096,-4.0096,-4.0096,-4.0096,-4.0096,-4.0096,-4.0468,-4.0832,-4.0832,-4.1187,-4.1779,-4.2625,-4.3064,-4.3572,-4.4445,-4.4615,-4.4615,-4.4615,-4.4615,-4.4615,-4.4615,-4.4615,-4.4615,-4.4615,-4.4615,-4.4615,-4.4615,-4.4615,-4.4615,-4.4615,-4.4615,-4.4615,-4.4615,-4.4615,-4.4615,-4.4615,-4.4615,-4.4615,-4.4615,-4.4615,-4.4615,-4.4615,-4.4615,-4.4615,-4.4615,-4.4615,-4.4615,-3.8209,-3.7611,0.0,-3.5367,-3.441,0.0,-3.1143,0.0,-3.1926,0.0,0.0,0.0,-3.3846,-3.3027,-3.1655,-2.9771,-2.8093,-2.6753,0.0,-2.5335,-2.519,-2.5715,-2.7652,-2.9104,-2.9485,-3.0506,-3.0987,-3.059,-3.1399,-3.2266,0.0,-3.4138,-3.5026,-3.5796,-3.6911,-3.7719,-3.8204,-3.932,-3.9901,-3.9901,-4.0037,-4.0096,-4.0096,-4.0096,-4.0096,-4.0096,-4.0096,-4.0096,-4.0096,-4.0096,-4.0096,-4.0096,-4.0096,-4.0096,-4.0096,-4.0096,-4.0096,-4.0096,-4.0096,-4.0096,-4.0096,-4.0096,-4.0096,-4.0096,-4.0096,-4.0096,-4.0096,-4.0096,-4.0096,-4.0163,-4.0409,-4.0832,-4.1271,-4.1525,-4.1948,-4.2489,-4.3223,-4.3392,-4.3656,-4.4445,-4.4615,-4.4615,-4.4615,-4.4615,-4.4615,-4.4615,-4.4615,-4.4615,-4.4615,-4.4615,-4.4615,-4.4615,-4.4615,-4.4615,-4.4615,-4.4615,-4.4615,-4.4615,-4.4615,-4.4615,-4.4615,-4.4615,-4.4615,-4.4615,-4.4615,-4.4615,-4.4615,-4.4615,-4.4615,-4.4615,-4.4615,-4.4615]},{"header":{"parameterUnit":"m.s-1","parameterCategory":1,"la1":30.6,"la2":29.2853,"lo1":-89.7004,"lo2":-87.6739,"dy":0.0162,"dx":0.0183,"nx":112,"ny":82,"refTime":"2026-05-19T12:00:00:Z","depth":0,"parameterNumber":3,"parameterNumberName":"V-component_of_WINDS"},"data":[0.0,0.0,0.0,0.0,0.0,0.0,0.0,0.0,0.0,0.0,0.0,0.0,0.0,0.0,0.0,0.0,0.0,0.0,0.0,0.0,0.0,0.0,0.0,0.0,0.0,0.0,0.0,0.0,0.0,0.0,0.0,0.0,0.0,0.0,0.0,0.0,0.0,0.0,0.0,0.0,0.0,0.0,0.0,0.0,0.0,0.0,0.0,0.0,0.0,0.0,0.0,0.0,0.0,0.0,0.0,0.0,0.0,0.0,0.0,0.0,0.0,0.0,0.0,0.0,0.0,0.0,0.0,0.0,0.0,0.0,0.0,0.0,0.0,0.0,0.0,0.0,0.0,0.0,0.0,0.0,0.0,0.0,0.0,0.0,0.0,0.0,0.0,0.0,0.0,0.0,0.6556,0.7196,0.8014,0.8332,0.7885,0.7382,0.678,0.6011,0.0,0.0,0.0,0.0,0.0,0.0,0.0,0.0,0.0,0.0,0.0,0.0,0.0,0.0,0.0,0.0,0.0,0.0,0.0,0.0,0.0,0.0,0.0,0.0,0.0,0.0,0.0,0.0,0.0,0.0,0.0,0.0,0.0,0.0,0.0,0.0,0.0,0.0,0.0,0.0,0.0,0.0,0.0,0.0,0.0,0.0,0.0,0.0,0.0,0.0,0.0,0.0,0.0,0.0,0.0,0.0,0.0,0.0,0.0,0.0,0.0,0.0,0.0,0.0,0.0,0.0,0.0,0.0,0.0,0.0,0.0,0.0,0.0,0.0,0.0,0.0,0.0,0.0,0.0,0.0,0.0,0.0,0.0,0.0,0.0,0.0,0.0,0.0,0.0,0.0,0.0,0.0,0.0,0.0,0.0,0.0,0.0,0.0,0.0,0.0,0.0,0.0,0.0,0.0,0.6907,0.798,0.833,0.8465,0.8369,0.7925,0.7386,0.6757,0.0,0.0,0.0,0.0,0.0,0.0,0.0,0.0,0.0,0.0,0.0,0.0,0.0,0.0,0.0,0.0,0.0,0.0,0.0,0.0,0.0,0.0,0.0,0.0,0.0,0.0,0.0,0.0,0.0,0.0,0.0,0.0,0.0,0.0,0.0,0.0,0.0,0.0,0.0,0.0,0.0,0.0,0.0,0.0,0.0,0.0,0.0,0.0,0.0,0.0,0.0,0.0,0.0,0.0,0.0,0.0,0.0,0.0,0.0,0.0,0.0,0.0,0.0,0.0,0.0,0.0,0.0,0.0,0.0,0.0,0.0,0.0,0.0,0.0,0.0,0.0,0.0,0.0,0.0,0.0,0.0,0.0,0.0,0.0,0.0,0.0,0.0,0.0,0.0,0.0,0.0,0.0,0.0,0.0,0.0,0.0,0.0,0.0,0.0,0.0,0.0,0.0,0.0,0.6685,0.7441,0.8079,0.8421,0.8506,0.8262,0.7906,0.7441,0.6844,0.5738,0.0,0.0,0.0,0.0,0.0,0.0,0.0,0.0,0.0,0.0,0.0,0.0,0.0,0.0,0.0,0.0,0.0,0.0,0.0,0.0,0.0,0.0,0.0,0.0,0.0,0.0,0.0,0.0,0.0,0.0,0.0,0.0,0.0,0.0,0.0,0.0,0.0,0.0,0.0,0.0,0.0,0.0,0.0,0.0,0.0,0.0,0.0,0.0,0.0,0.0,0.0,0.0,0.0,0.0,0.0,0.0,0.0,0.0,0.0,0.0,0.0,0.0,0.0,0.0,0.0,0.0,0.0,0.0,0.0,0.0,0.0,0.0,0.0,0.0,0.0,0.0,0.0,0.0,0.0,0.0,0.0,0.0,0.0,0.0,0.0,0.0,0.0,0.0,0.0,0.0,0.0,0.0,0.0,0.0,0.0,0.0,0.0,0.0,0.0,0.0,0.0,0.0,0.7299,0.7882,0.8072,0.8401,0.8452,0.8022,0.7702,0.7251,0.6681,0.5949,0.0,0.0,0.0,0.0,0.0,0.0,0.0,0.0,0.0,0.0,0.0,0.0,0.0,0.0,0.0,0.0,0.0,0.0,0.0,0.0,0.0,0.0,0.0,0.0,0.0,0.0,0.0,0.0,0.0,0.0,0.0,0.0,0.0,0.0,0.0,0.0,0.0,0.0,0.0,0.0,0.0,0.0,0.0,0.0,0.0,0.0,0.0,0.0,0.0,0.0,0.0,0.0,0.0,0.0,0.0,0.0,0.0,0.0,0.0,0.0,0.0,0.0,0.0,0.0,0.0,0.0,0.0,0.0,0.0,0.0,0.0,0.0,0.0,0.0,0.0,0.0,0.0,0.0,0.0,0.0,0.0,0.0,0.0,0.0,0.0,0.0,0.0,0.0,0.0,0.0,0.0,0.0,0.0,0.0,0.0,0.0,0.0,0.0,0.0,0.0,0.0,0.0,0.7431,0.7923,0.8221,0.8282,0.8231,0.8005,0.7459,0.6976,0.6559,0.5825,0.0,0.0,0.0,0.0,0.0,0.0,0.0,0.0,0.0,0.0,0.0,0.0,0.0,0.0,0.0,0.0,0.0,0.0,0.0,0.0,0.0,0.0,0.0,0.0,0.0,0.0,0.0,0.0,0.0,0.0,0.0,0.0,0.0,0.0,0.0,0.0,0.0,0.0,0.0,0.0,0.0,0.0,0.0,0.0,0.0,0.0,0.0,0.0,0.0,0.0,0.0,0.0,0.0,0.0,0.0,0.0,0.0,0.0,0.0,0.0,0.0,0.0,0.0,0.0,0.0,0.0,0.0,0.0,0.0,0.0,0.0,0.0,0.0,0.0,0.0,0.0,0.0,0.0,0.0,0.0,0.0,0.0,0.0,0.0,0.0,0.0,0.0,0.0,0.0,0.0,0.0,0.0,0.0,0.0,0.0,0.0,0.0,0.0,0.0,0.0,0.0,0.0,0.7387,0.7892,0.8102,0.8214,0.8183,0.7935,0.7566,0.713,0.6584,0.0,0.0,0.0,0.0,0.0,0.0,0.0,0.0,0.0,0.0,0.0,0.0,0.0,0.0,0.0,0.0,0.0,0.0,0.0,0.0,0.0,0.0,0.0,0.0,0.0,0.0,0.0,0.0,0.0,0.0,0.0,0.0,0.0,0.0,0.0,0.0,0.0,0.0,0.0,0.0,0.0,0.0,0.0,0.0,0.0,0.0,0.0,0.0,0.0,0.0,0.0,0.0,0.0,0.0,0.0,0.0,0.0,0.0,0.0,0.0,0.0,0.0,0.0,0.0,0.0,0.0,0.0,0.0,0.0,0.0,0.0,0.0,0.0,0.0,0.0,0.0,0.0,0.0,0.0,0.0,0.0,0.0,0.0,0.0,0.0,0.0,0.0,0.0,0.0,0.0,0.0,0.0,0.0,0.0,0.0,0.0,0.0,0.0,0.0,0.0,0.0,0.0,0.6671,0.7343,0.7821,0.7968,0.8133,0.8131,0.7911,0.7769,0.7404,0.6749,0.0,0.0,0.0,0.0,0.0,0.0,0.0,0.0,0.0,0.0,0.0,0.0,0.0,0.0,0.0,0.0,0.0,0.0,0.0,0.0,0.0,0.0,0.0,0.0,0.0,0.0,0.0,0.0,0.0,0.0,0.0,0.0,0.0,0.0,0.0,0.0,0.0,0.0,0.0,0.0,0.0,0.0,0.0,0.0,0.0,0.0,0.0,0.0,0.0,0.0,0.0,0.0,0.0,0.0,0.0,0.0,0.0,0.0,0.0,0.0,0.0,0.0,0.0,0.0,0.0,0.0,0.0,0.0,0.0,0.0,0.0,0.0,0.0,0.0,0.0,0.0,0.0,0.0,0.0,0.0,0.0,0.0,0.0,0.0,0.0,0.0,0.0,0.0,0.0,0.0,0.0,0.0,0.0,0.0,0.0,0.0,0.0,0.0,0.0,0.0,0.0,0.0,0.681,0.7322,0.7712,0.7958,0.7988,0.7965,0.79,0.8022,0.7775,0.0,0.0,0.0,0.0,0.0,0.0,0.0,0.0,0.0,0.0,0.0,0.0,0.0,0.0,0.0,0.0,0.0,0.0,0.0,0.0,0.0,0.0,0.0,0.0,0.0,0.0,0.0,0.0,0.0,0.0,0.0,0.0,0.0,0.0,0.0,0.0,0.0,0.0,0.0,0.0,0.0,0.0,0.0,0.0,0.0,0.0,0.0,0.0,0.0,0.0,0.0,0.0,0.0,0.0,0.0,0.0,0.0,0.0,0.0,0.0,0.0,0.0,0.0,0.0,0.0,0.0,0.0,0.0,0.0,0.0,0.0,0.0,0.0,0.0,0.0,0.0,0.0,0.0,0.0,0.0,0.0,0.0,0.0,0.0,0.0,0.0,0.0,0.0,0.0,0.0,0.0,0.0,0.0,0.0,0.0,0.0,0.0,0.0,0.0,0.0,0.0,0.0,0.0,0.7107,0.7744,0.8229,0.8545,0.8577,0.8694,0.8933,0.8844,0.8567,0.7976,0.0,0.0,0.0,0.0,0.0,0.0,0.0,0.0,0.0,0.0,0.0,0.0,0.0,0.0,0.0,0.0,0.0,0.0,0.0,0.0,0.0,0.0,0.0,0.0,0.0,0.0,0.0,0.0,0.0,0.0,0.0,0.0,0.0,0.0,0.0,0.0,0.0,0.0,0.0,0.0,0.0,0.0,0.0,0.0,0.0,0.0,0.0,0.0,0.0,0.0,0.0,0.0,0.0,0.0,0.0,0.0,0.0,0.0,0.0,0.0,0.0,0.0,0.0,0.0,0.0,0.0,0.0,0.0,0.0,0.0,0.0,0.0,0.0,0.0,0.0,0.0,0.0,0.0,0.0,0.0,0.0,0.0,0.0,0.0,0.0,0.0,0.0,0.0,0.0,0.0,0.0,0.0,0.0,0.0,0.0,0.0,0.0,0.0,0.0,0.0,0.0,0.0,0.7541,0.8593,0.9327,0.9571,0.96,0.9725,0.9994,0.9841,0.9528,0.8918,0.0,0.0,0.0,0.0,0.0,0.0,0.0,0.0,0.0,0.0,0.0,0.0,0.0,0.0,0.0,0.0,0.0,0.0,0.0,0.0,0.0,0.0,0.0,0.0,0.0,0.0,0.0,0.0,0.0,0.0,0.0,0.0,0.0,0.0,0.0,0.0,0.0,0.0,0.0,0.0,0.0,0.0,0.0,0.0,0.0,0.0,0.0,0.0,0.0,0.0,0.0,0.0,0.0,0.0,0.0,0.0,0.0,0.0,0.0,0.0,0.0,0.0,0.0,0.0,0.0,0.0,0.0,0.0,0.0,0.0,0.0,0.0,0.0,0.0,0.0,0.0,0.0,0.0,0.0,0.0,0.0,0.0,0.0,0.0,0.0,0.0,0.0,0.0,0.0,0.0,0.0,0.0,0.0,0.0,0.0,0.0,0.0,0.0,0.0,0.0,0.0,0.0,0.8091,0.963,1.0696,1.0816,1.0839,1.0848,1.0971,1.0914,1.0529,0.9743,0.0,0.0,0.0,0.0,0.0,0.0,0.0,0.0,0.0,0.0,0.0,0.0,0.0,0.0,0.0,0.0,0.0,0.0,0.0,0.0,0.0,0.0,0.0,0.0,0.0,0.0,0.0,0.0,0.0,0.0,0.0,0.0,0.0,0.0,0.0,0.0,0.0,0.0,0.0,0.0,0.0,0.0,0.0,0.0,0.0,0.0,0.0,0.0,0.0,0.0,0.0,0.0,0.0,0.0,0.0,0.0,0.0,0.0,0.0,0.0,1.2458,1.2058,0.0,0.0,0.0,0.0,0.0,0.0,0.0,0.0,0.0,0.0,0.0,0.0,0.0,0.0,0.0,0.0,0.0,0.0,0.0,0.0,0.0,0.0,0.0,0.0,0.0,0.0,0.0,0.0,0.0,0.0,0.0,0.0,0.0,0.0,0.0,0.0,0.0,0.0,0.0,0.0,0.8878,1.008,1.09,1.1066,1.1091,1.1191,1.1425,1.1369,1.104,1.0355,0.9338,0.0,0.0,0.0,0.0,0.0,0.0,0.0,0.0,0.0,0.0,0.0,0.0,0.0,0.0,0.0,0.0,0.0,0.0,0.0,0.0,0.0,0.0,0.0,0.0,0.0,0.0,0.0,0.0,0.0,0.0,0.0,0.0,0.0,0.0,0.0,0.0,0.0,0.0,0.0,0.0,0.0,0.0,0.0,0.0,0.0,0.0,0.0,0.0,0.0,0.0,0.0,0.0,0.0,0.0,0.0,0.0,0.0,0.0,0.0,1.3734,1.316,0.0,0.0,0.0,0.0,0.0,0.0,0.0,0.0,0.0,0.0,0.0,0.0,0.0,0.0,0.0,0.0,0.0,0.0,0.0,0.0,0.0,0.0,0.0,0.0,0.0,0.0,0.0,0.0,0.0,0.0,0.0,0.0,0.0,0.0,0.0,0.0,0.0,0.0,0.0,0.0,0.9608,1.0929,1.1827,1.2074,1.2102,1.2187,1.2331,1.206,1.1641,1.1021,1.0002,0.0,0.0,0.0,0.0,0.0,0.0,0.0,0.0,0.0,0.0,0.0,0.0,0.0,0.0,0.0,0.0,0.0,0.0,0.0,0.0,0.0,0.0,0.0,0.0,0.0,0.0,0.0,0.0,0.0,0.0,0.0,0.0,0.0,0.0,0.0,0.0,0.0,0.0,0.0,0.0,0.0,0.0,0.0,0.0,0.0,0.0,0.0,0.0,0.0,0.0,0.0,0.0,0.0,1.5999,1.6084,1.6146,1.6386,1.6549,1.644,1.5277,1.4656,1.4442,1.4053,0.0,0.0,0.0,0.0,0.0,0.0,0.0,0.0,0.0,0.0,0.0,0.0,0.0,0.0,0.0,0.0,0.0,0.0,0.0,0.0,0.0,0.0,0.0,0.0,1.2324,1.1823,1.06,0.0,0.0,0.0,0.0,0.0,0.0,0.0,0.0,0.0,0.0,0.0,1.0259,1.1728,1.2741,1.3019,1.3049,1.2987,1.2945,1.253,1.2071,1.1453,1.0557,0.9684,0.0,0.0,0.0,0.0,0.0,0.0,0.0,0.0,0.0,0.0,0.0,0.0,0.0,0.0,0.0,0.0,0.0,0.0,0.0,0.0,0.0,0.0,0.0,0.0,0.0,0.0,0.0,0.0,0.0,0.0,0.0,0.0,1.2083,1.1866,0.0,0.0,0.0,0.0,0.0,0.0,0.0,0.0,0.0,0.0,0.0,0.0,0.0,1.5705,1.6039,1.6596,1.6891,1.6971,1.7208,1.7355,1.7355,1.7395,1.7408,1.7408,1.7468,0.0,1.5986,1.5391,0.0,0.0,0.0,0.0,0.0,0.0,0.0,0.0,0.0,0.0,0.0,0.0,0.0,0.0,0.0,0.0,0.0,0.0,0.0,0.0,0.0,0.0,1.3386,1.3225,1.2955,1.2687,0.0,1.1457,1.0626,1.0083,0.9413,0.0,0.0,0.0,0.0,0.0,0.0,0.0,1.0646,1.1728,1.2469,1.2729,1.2759,1.2668,1.2439,1.2355,1.1986,1.1214,1.0785,1.0232,0.9444,0.8638,0.0,0.0,0.0,0.0,0.0,0.0,0.0,0.0,0.0,0.0,0.0,0.0,0.0,0.0,0.0,0.0,0.0,0.0,0.0,0.0,0.0,0.0,0.0,0.0,0.0,0.0,0.0,0.0,0.0,1.2256,1.2826,1.2859,1.3093,1.3086,0.0,0.0,0.0,0.0,0.0,0.0,0.0,0.0,0.0,1.5919,1.6506,1.6954,1.7248,1.7682,1.7989,1.815,1.8277,1.8424,1.8584,1.8584,1.8584,1.8646,1.8724,1.839,1.7689,1.676,1.5765,1.477,0.0,0.0,0.0,0.0,1.3387,1.3541,1.3541,1.3541,1.3541,1.3541,0.0,0.0,0.0,0.0,0.0,0.0,0.0,0.0,0.0,0.0,1.3874,1.3838,1.3529,1.3178,1.2901,1.2249,1.1566,0.0,1.0251,0.9559,0.9022,0.0,0.0,0.0,0.0,0.9941,1.1101,1.1748,1.2192,1.2457,1.2487,1.2379,1.2113,1.2095,1.1838,1.1339,1.1056,1.0617,0.9979,0.9185,0.8506,0.0,0.0,0.0,0.0,0.0,0.0,0.0,0.0,0.0,0.0,0.0,0.0,0.0,0.0,0.0,0.0,0.0,0.0,0.0,0.0,0.0,0.0,0.0,0.0,0.0,0.0,0.0,0.0,1.3194,1.3741,1.3913,1.4182,1.4133,0.0,0.0,0.0,0.0,0.0,0.0,1.5537,1.6005,1.6547,1.7141,1.7729,1.8176,1.847,1.8778,1.9011,1.9145,1.9145,1.9225,1.9424,1.9424,1.9424,1.9424,1.9424,1.9199,1.8844,1.7809,1.6774,1.5812,1.5491,1.5028,1.4536,1.4536,1.4583,1.4649,1.4649,1.4696,1.4743,1.4669,1.4148,1.3534,1.346,0.0,0.0,0.0,0.0,1.3606,1.3997,1.4149,1.4228,1.4146,1.3818,1.3449,1.3163,1.268,1.216,0.0,1.0911,1.0294,0.9892,0.0,0.0,0.9648,0.9937,1.0412,1.1279,1.1676,1.1999,1.2192,1.221,1.2107,1.1802,1.1784,1.1639,1.1309,1.1129,1.0773,1.0214,0.9558,0.8927,0.8303,0.0,0.0,0.0,0.0,0.0,0.0,0.0,0.0,0.0,0.0,0.0,0.0,0.0,0.0,0.0,0.0,0.0,0.0,0.0,0.0,0.0,0.0,0.0,0.0,0.0,0.0,0.0,0.0,0.0,1.4941,1.5678,0.0,0.0,0.0,0.0,1.5604,1.5678,1.6119,1.7045,1.738,1.7776,1.8384,1.8971,1.9419,1.9706,2.0,2.0013,1.9753,1.9753,1.9619,1.9424,1.9424,1.9424,1.9424,1.9424,1.9199,1.8878,1.8202,1.7629,1.7052,1.6482,1.6012,1.5691,1.5691,1.5919,1.6214,1.6214,1.6346,1.6526,1.6253,1.5391,1.4402,1.4128,1.3828,0.0,0.0,1.3973,1.4369,1.4178,1.435,1.4482,1.3999,1.3703,1.3411,1.3147,1.2687,1.2228,0.0,1.1431,1.0966,1.0707,0.0,0.9937,1.0214,1.0478,1.0755,1.1093,1.1594,1.1926,1.1904,1.1904,1.1796,1.1537,1.1513,1.1285,1.0761,1.0749,1.0472,0.9949,0.9648,0.9094,0.8303,0.818,0.0,0.0,0.0,0.0,0.0,0.0,0.0,0.0,0.0,0.0,0.0,0.0,0.0,0.0,0.0,0.0,0.0,0.0,0.0,0.0,0.0,0.0,0.0,0.0,0.0,0.0,0.0,0.0,1.6039,1.6693,0.0,1.661,1.6482,1.6663,1.7194,1.7428,1.7929,1.8811,1.8951,1.9192,1.9599,1.9813,1.9973,2.008,2.012,2.012,2.008,1.9887,1.9746,1.9639,1.9452,1.9424,1.9424,1.9424,1.9305,1.9178,1.8778,1.8263,1.7689,1.7275,1.6941,1.6653,1.6466,1.646,1.6553,1.6553,1.662,1.6627,1.6146,1.5705,1.5271,1.4796,1.462,1.4496,1.4496,1.4548,1.4569,1.4663,1.4513,1.432,1.4188,1.397,1.3616,1.3194,1.297,1.2753,1.2481,1.1999,1.1567,1.1471,1.1303,1.1206,1.1303,1.1399,1.1588,1.1854,1.1908,1.188,1.188,1.1736,1.1519,1.1286,1.1068,1.0894,1.0695,1.0527,1.0352,1.0166,0.9907,0.9552,0.9064,0.8722,0.8218,0.0,0.0,0.0,0.0,0.0,0.0,0.0,0.0,0.0,0.0,0.0,0.0,0.0,0.0,0.0,0.0,0.0,0.0,0.0,0.0,0.0,0.0,0.0,0.0,0.0,1.5431,1.6567,1.6954,1.7702,1.807,1.7776,1.7896,1.8151,1.8577,1.8811,1.9232,1.9907,2.004,2.018,2.0374,2.0481,2.0528,2.0528,2.0528,2.0428,2.0227,2.004,1.9846,1.9646,1.9452,1.9424,1.9424,1.9424,1.9424,1.9352,1.9152,1.8844,1.845,1.8043,1.7829,1.7621,1.7268,1.7161,1.7148,1.7041,1.6934,1.6794,1.64,1.6206,1.6052,1.5665,1.5531,1.5404,1.5312,1.5094,1.4877,1.488,1.465,1.4368,1.4327,1.4113,1.3809,1.3465,1.3248,1.3067,1.288,1.2415,1.2012,1.2012,1.194,1.188,1.188,1.1999,1.2012,1.2047,1.1934,1.1814,1.1667,1.1453,1.1279,1.1129,1.0833,1.0647,1.0557,1.031,1.0124,1.0033,0.9865,0.9639,0.9339,0.877,0.8261,0.7759,0.0,0.0,0.0,0.0,0.0,0.0,0.0,0.0,0.0,0.0,0.0,0.0,0.0,0.0,0.0,0.0,0.0,0.0,0.0,0.0,0.0,0.0,0.0,1.5022,1.6506,1.7609,1.7635,1.8727,1.9272,1.8991,1.9225,1.9512,1.9806,1.9826,1.9953,2.018,2.0535,2.0688,2.0688,2.0962,2.1109,2.1109,2.1102,2.0808,2.0247,2.0227,1.9927,1.9379,1.943,1.9424,1.9424,1.9424,1.9424,1.9424,1.9424,1.9424,1.937,1.8731,1.8504,1.847,1.8109,1.7982,1.7935,1.7689,1.7454,1.7213,1.7206,1.7005,1.6714,1.6707,1.6513,1.6237,1.5973,1.5722,1.5363,1.4838,1.4688,1.464,1.4346,1.4099,1.3918,1.3912,1.3507,1.3101,1.3083,1.2699,1.2337,1.2324,1.2113,1.1904,1.1904,1.2161,0.0,1.1585,1.173,1.1721,1.1184,1.1117,1.1111,1.1111,1.0864,1.0563,1.031,1.0039,0.9781,0.9528,0.9516,0.9357,0.9009,0.844,0.7931,0.7504,0.0,0.0,0.0,0.0,0.0,0.0,0.0,0.0,0.0,0.0,0.0,0.0,0.0,0.0,0.0,0.0,0.0,0.0,0.0,0.0,0.0,1.5017,1.5892,1.6186,1.7188,1.8143,1.8798,1.9352,1.9733,1.98,1.9947,2.0114,2.0414,2.0434,2.0561,2.0855,2.0949,2.0989,2.0989,2.1069,2.1109,2.1109,2.0902,2.0715,2.0548,2.012,1.9833,1.9673,1.9466,1.9424,1.9424,1.9424,1.9424,1.9424,1.9424,1.9424,1.939,1.8951,1.8804,1.8744,1.8182,1.7903,1.7695,1.7609,1.7528,1.7481,1.7266,1.7146,1.7038,1.6774,1.6653,1.649,1.6026,1.5719,1.5379,1.4833,1.4544,1.4394,1.4298,1.4244,1.4135,1.3948,1.3791,1.358,1.32,1.2963,1.2837,1.2632,1.2536,1.2487,1.2487,1.2548,0.0,1.2137,1.1952,1.1754,1.1411,1.1232,1.1111,1.1111,1.0695,1.037,1.0298,0.9871,0.9588,0.9516,0.9644,0.9575,0.9308,0.8927,0.8423,0.0,0.0,0.0,0.0,0.0,0.0,0.0,0.0,0.0,0.0,0.0,0.0,0.0,0.0,0.0,0.0,0.0,0.0,0.0,0.0,0.0,0.0,1.6121,1.7014,1.7555,1.8076,1.8637,1.935,1.9733,2.0094,2.0388,2.0528,2.0675,2.0848,2.0855,2.0935,2.1102,2.1109,2.1109,2.1109,2.1109,2.1109,2.1109,2.0822,2.0615,2.0481,2.002,1.9733,1.9613,1.9446,1.9424,1.9424,1.9424,1.9424,1.9424,1.9424,1.9424,0.0,0.0,0.0,0.0,0.0,1.7956,1.7582,1.7582,1.7582,1.7555,1.7434,1.738,1.7353,1.7128,1.6987,1.6803,1.6229,1.5767,1.536,1.4862,1.4485,1.4298,1.4298,1.4298,1.4256,1.4099,1.3984,1.3779,1.3369,1.32,0.0,1.2753,1.2705,1.2705,1.2705,1.2705,1.2572,1.2198,1.2017,1.1736,1.1357,1.1208,1.1111,1.1111,1.0695,0.0,0.0,0.0,0.9695,0.9708,0.9844,0.0,0.0,0.0,0.0,0.0,0.0,0.0,0.0,0.8509,0.8966,0.0,0.0,0.0,0.0,0.0,0.0,0.0,0.0,0.0,0.0,0.0,0.0,0.0,0.0,0.0,0.0,1.7081,1.7936,1.8798,1.8951,1.9098,1.9426,1.992,2.0361,2.0695,2.0955,2.1109,2.1109,2.1109,2.1109,2.1109,2.1109,0.0,0.0,0.0,2.1109,2.1109,2.0788,2.0494,2.0227,1.9907,1.9619,1.9424,1.9424,1.9424,1.9424,1.9424,1.9424,1.9424,1.9424,1.9424,1.9424,1.9424,1.9383,1.9205,1.8684,1.8103,1.7582,1.7582,0.0,0.0,1.7582,1.7582,1.7582,1.7582,1.7454,1.7085,1.6484,1.5948,1.5436,1.4869,1.4509,1.4298,1.4298,1.4298,1.4298,1.4298,1.4117,1.3863,1.3568,1.3326,1.3067,1.2759,1.2705,1.2705,1.2705,1.2747,1.2566,1.2029,1.1944,1.1727,1.1214,0.0,0.0,1.1111,1.087,1.0622,1.0352,1.0097,1.003,1.02,1.0228,1.036,1.0597,1.0478,1.0265,0.9915,1.0265,1.0244,0.9972,0.975,1.0066,0.0,0.0,0.0,0.0,0.0,0.0,0.0,0.0,0.0,0.0,0.0,0.0,0.0,0.0,0.0,1.677,1.7528,1.8129,1.8831,1.9132,1.9479,2.0,2.0167,2.0441,2.0975,2.1076,2.1109,2.1109,2.1109,2.1109,2.1109,2.1109,2.1109,2.1109,2.1109,2.1109,2.1109,2.0581,2.0287,2.0167,0.0,0.0,1.9424,1.9424,1.9424,1.9424,1.9424,1.9424,1.9424,1.9424,1.9424,1.9424,1.9424,1.9078,1.8651,1.8531,1.8103,1.7582,1.7582,1.7582,1.7582,1.7582,1.7582,1.7582,1.7582,1.7542,0.0,1.6542,1.6088,1.5732,1.4924,1.4509,1.4298,1.4298,1.4298,1.4298,1.4298,1.4256,1.4081,1.3604,1.3471,1.3284,1.2789,1.2705,1.2705,1.2705,1.2875,1.2849,1.2276,1.2215,1.2003,1.1486,1.1357,1.1298,1.1111,1.1016,1.0844,1.0647,1.0433,1.0633,1.1358,1.128,1.1387,1.1768,1.1756,1.1582,1.1236,1.1582,1.1686,1.1615,1.0931,1.0905,0.0,0.0,0.0,0.0,0.0,0.0,0.0,0.0,0.0,0.0,0.0,1.3467,1.4955,0.0,1.6273,1.7602,1.8196,1.8582,1.9085,1.9272,1.9533,1.9967,2.014,2.0408,2.0848,2.1022,2.1109,2.1109,2.1109,2.1109,2.1109,2.1109,2.1109,2.1109,2.1109,2.1109,2.1109,2.0528,2.0173,2.0167,1.9646,1.9424,1.9424,1.9424,1.9424,1.9424,1.9424,1.9424,1.9424,1.9424,1.9424,1.9424,1.9424,1.9011,1.849,1.849,1.8103,1.7582,1.7582,1.7582,1.7582,1.7582,1.7582,1.7582,1.7582,1.7582,1.7417,1.6555,1.6177,1.5802,1.4936,1.4509,1.4298,1.4298,1.4298,1.4298,1.4298,1.4298,1.4141,1.3616,1.3513,1.3344,1.2795,1.279,1.2881,1.2881,1.3009,1.2945,1.25,1.2373,1.213,1.167,1.1496,1.1409,1.1409,1.1234,1.1114,1.1006,1.1134,1.1429,1.1978,1.2187,1.2461,1.2842,1.2834,1.2864,1.2887,1.3075,1.3157,1.3157,1.2893,1.2812,0.0,0.0,0.0,0.0,0.0,0.0,0.0,1.2267,1.2465,1.3367,1.4015,1.4823,1.6119,1.664,1.7228,1.8317,1.8738,1.9025,1.9325,1.9424,1.9452,1.9686,1.9973,2.0287,2.0641,2.0889,2.1049,2.1109,2.1109,2.1109,2.1109,2.1109,2.1109,2.1109,2.1109,2.1109,2.1109,2.0528,2.0173,2.0167,1.9646,1.9424,1.9424,1.9424,1.9424,1.9424,1.9424,1.9424,1.9424,1.9424,1.9424,1.9424,1.9424,1.9011,1.849,1.849,1.8103,1.7582,1.7582,1.7582,1.7582,1.7582,1.7582,1.7582,1.7582,1.7582,1.7417,1.6607,1.6177,1.5802,1.4979,1.4552,1.4298,1.4298,1.4298,1.4298,1.4298,1.4298,1.4141,1.3616,1.3513,1.3344,1.2795,1.2918,1.3094,1.3094,1.3185,1.3088,1.2717,1.2523,1.2256,1.1809,1.1627,1.1595,1.1744,1.1576,1.1484,1.1657,1.204,1.2441,1.2858,1.326,1.3645,1.3996,1.3996,1.4172,1.4501,1.4501,1.4501,1.4501,1.4849,1.4742,1.0182,1.1329,1.2715,1.2928,1.3301,1.3603,0.0,1.3548,1.3653,1.4626,1.5231,1.5798,1.6533,1.7114,1.7702,1.8384,1.8738,1.9025,1.9325,1.9424,1.9437,1.947,1.9673,2.0067,2.0621,2.0708,2.0828,2.1089,2.1109,2.1109,2.1109,2.1109,2.1109,2.1109,2.1109,2.1109,2.1109,2.0528,2.0173,2.0167,1.9646,1.9424,1.9424,1.9424,1.9424,1.9424,1.9424,1.9424,1.9424,1.9424,1.9424,1.9424,1.9424,1.9011,1.849,1.849,1.8103,1.7582,1.7582,1.7582,1.7582,1.7582,1.7582,1.7582,1.7582,1.7582,1.7469,1.6821,1.6336,1.5852,1.5214,1.4692,1.4298,1.4298,1.4298,1.4298,1.4298,1.4298,1.4141,1.3616,1.3513,1.3344,1.2795,1.2918,1.3094,1.3094,1.3398,1.3452,1.3013,1.2885,1.2647,1.2094,1.1978,1.1929,1.1966,1.194,1.2245,1.2932,1.3104,1.3677,1.4816,1.4802,1.5012,1.5455,1.5464,1.5482,1.5528,1.5528,1.5528,1.5537,1.5942,1.5698,1.1391,1.2196,1.3179,1.3583,1.4077,1.4552,1.4727,1.4841,1.5072,1.5832,1.6306,1.678,1.7323,1.7689,1.805,1.8644,1.8844,1.9025,1.9325,1.9219,1.9172,1.9403,1.9319,1.9519,2.0114,2.0321,2.0541,2.0835,2.0855,2.0935,2.1096,2.1109,2.1109,2.1109,2.1109,2.1029,2.0862,2.0441,2.0147,1.9973,1.9566,1.9424,1.9424,1.9424,1.9424,1.9424,1.9424,1.9424,1.9424,1.9424,1.9424,1.9424,1.9424,1.9011,1.849,1.849,1.8103,1.7582,1.7582,1.7582,1.7582,1.7582,1.7582,1.7582,1.7582,1.7582,1.7436,1.6676,1.6315,1.6014,1.5272,1.4919,1.479,1.479,1.479,1.4736,1.4592,1.4421,1.4154,1.3586,1.3393,1.3163,1.2771,1.3009,1.3264,1.3264,1.3525,1.3574,1.3164,1.3001,1.2713,1.2282,1.2415,1.2489,1.2378,1.2673,1.3076,1.3535,1.4091,1.4665,1.5291,1.5506,1.5716,1.6056,1.6056,1.6166,1.6395,1.6395,1.6395,1.6404,1.6578,1.6467,1.2225,1.2866,1.3574,1.4082,1.4649,1.5157,1.5451,1.5678,1.5972,1.648,1.682,1.7188,1.7702,1.7862,1.811,1.8704,1.8871,1.9025,1.9325,1.9185,1.9125,1.9339,1.9178,1.9212,1.9639,1.9947,2.0234,2.0535,2.0555,2.0648,2.0855,2.0869,2.0869,2.0869,2.0869,2.0768,2.0555,2.0261,2.0007,1.98,1.9506,1.9424,1.9424,1.9424,1.9424,1.9424,1.9424,1.9424,1.9424,1.9424,1.9424,1.9424,1.9424,1.9011,1.849,1.849,1.8103,1.7582,1.7582,1.7582,1.7582,1.7582,1.7582,1.7582,1.7582,1.7582,1.7423,1.6726,1.6428,1.6158,1.5512,1.5188,1.5083,1.5083,1.5083,1.5035,1.4838,1.4586,1.4251,1.3717,1.3407,1.3121,1.2851,1.3137,1.3434,1.3483,1.3652,1.366,1.3247,1.2981,1.2786,1.264,1.2929,1.3149,1.3135,1.3586,1.4021,1.433,1.5054,1.5546,1.5797,1.6086,1.6333,1.6443,1.6477,1.6624,1.6908,1.6908,1.6908,1.6908,1.6908,1.6908,1.2225,1.316,1.4135,1.4436,1.495,1.5458,1.5752,1.5771,1.5919,1.6226,1.652,1.6814,1.7172,1.746,1.7796,1.8404,1.8738,1.9025,1.9325,1.9417,1.9417,1.9424,1.9417,1.9417,1.9437,1.9639,1.9933,2.0167,2.0247,2.0193,2.0261,2.0261,2.0261,2.0261,2.0261,2.0193,2.0247,1.996,1.9806,1.98,1.9506,1.9424,1.9424,1.9424,1.9424,1.9424,1.9424,1.9424,1.9424,1.9424,1.9424,1.9424,1.9424,1.9011,1.849,1.849,1.8103,1.7582,1.7582,1.7582,1.7582,1.7582,1.7582,1.7582,1.7582,1.7582,1.7522,1.7273,1.6731,1.6247,1.5934,1.5467,1.5083,1.5083,1.5083,1.5083,1.5083,1.4879,1.452,1.3987,1.3649,1.3377,1.3145,1.327,1.3483,1.3652,1.3913,1.3874,1.3287,1.2851,1.2833,1.339,1.3644,1.397,1.4494,1.4716,1.5117,1.5692,1.5947,1.6307,1.6821,1.6855,1.689,1.689,1.689,1.6899,1.6908,1.6908,1.6908,1.6908,1.6908,1.6908,1.33,1.4068,1.4783,1.5264,1.5832,1.6293,1.6386,1.6567,1.6673,1.658,1.6486,1.6506,1.68,1.678,1.6974,1.7762,1.8143,1.8455,1.9005,1.9072,1.9145,1.9345,1.9192,1.9152,1.941,1.9452,1.9633,1.992,1.9947,2.0034,2.016,2.0173,2.0173,2.0173,2.0173,2.014,1.9947,1.9853,1.97,1.9512,1.9412,1.9424,1.9424,1.9424,1.9424,1.9424,1.9424,1.9424,1.9424,1.9424,1.9424,1.9424,1.9424,1.9011,1.849,1.849,1.8103,1.7582,1.7582,1.7582,1.7582,1.7582,1.7582,1.7582,1.7582,1.7582,1.7522,1.7286,1.6883,1.6497,1.6248,1.586,1.5547,1.5547,1.5547,1.5547,1.5404,1.516,1.4775,1.421,1.39,1.3611,1.3333,1.3483,1.363,1.3607,1.3655,1.3547,1.3121,1.3264,1.3425,1.356,1.4126,1.4653,1.4974,1.5294,1.5621,1.5982,1.6263,1.6577,1.6874,1.6908,1.6908,1.6908,1.6908,1.6908,1.6908,1.6908,1.6908,1.6908,1.6908,1.6908,1.3935,1.4669,1.5337,1.5605,1.6119,1.6526,1.642,1.646,1.6522,1.6279,1.5919,1.5772,1.6166,1.6086,1.6279,1.732,1.7769,1.8189,1.8838,1.9018,1.9152,1.9345,1.9199,1.9158,1.941,1.9424,1.9446,1.9633,1.9646,1.9726,1.9913,1.992,1.992,1.992,1.992,1.9833,1.9646,1.9646,1.9553,1.9424,1.9424,1.9424,1.9424,1.9424,1.9424,1.9424,1.9424,1.9424,1.9424,1.9424,1.9424,1.9424,1.9424,1.9011,1.849,1.849,1.8103,1.7582,1.7582,1.7582,1.7582,1.7582,1.7582,1.7582,1.7582,1.7582,1.7542,1.7407,1.7014,1.666,1.6473,1.6132,1.5784,1.5784,1.5784,1.5778,1.5635,1.5402,1.506,1.4482,1.4123,1.388,1.3674,1.3857,1.405,1.3987,1.41,1.3906,1.3195,1.3667,1.4086,1.4156,1.4876,1.5444,1.5771,1.6053,1.6263,1.6377,1.6586,1.676,1.6908,1.6908,1.6908,1.6908,1.6908,1.6908,1.6908,1.6908,1.6908,1.6908,1.6908,1.6908,1.4168,1.5003,1.5758,1.5531,1.5885,1.6213,1.5899,1.5605,1.5391,1.5357,1.487,1.4636,1.5237,1.5337,1.5718,1.6965,1.7602,1.8203,1.8811,1.9172,1.9424,1.9424,1.9379,1.945,1.945,1.945,1.945,1.945,1.943,1.9424,1.9424,1.9424,1.9424,1.9424,1.9424,1.9424,1.9424,1.9424,1.9424,1.9424,1.9424,1.9424,1.9424,1.9424,1.9424,1.9424,1.9424,1.9424,1.9424,1.9424,1.9424,1.9424,1.9424,1.9011,1.849,1.849,1.8103,1.7582,1.7582,1.7582,1.7582,1.7582,1.7582,1.7582,1.7582,1.7582,1.7582,1.7582,1.7161,1.6707,1.6707,1.6273,1.5784,1.5784,1.5784,1.5784,1.5784,1.5635,1.5323,1.4747,1.4379,1.4192,1.4182,1.4496,1.4776,1.4817,1.5145,1.4911,1.3521,1.4044,1.4725,1.5163,1.5748,1.6342,1.6874,1.6908,1.6908,1.6908,1.6908,1.6908,1.6908,1.6908,1.6908,1.6908,1.6908,1.6908,1.6908,1.6908,1.6908,1.6908,1.6908,1.6917,1.5271,1.5925,1.6466,1.6393,1.6486,1.646,1.5898,1.5605,1.5271,1.4836,1.4108,1.3788,1.4596,1.4569,1.4877,1.6321,1.7168,1.7903,1.8517,1.9045,1.9424,1.9424,1.9559,1.9686,1.9686,1.9686,1.9686,1.9686,1.9492,1.9424,1.9424,1.9424,1.9424,1.9424,1.9424,1.9424,1.9424,1.9424,1.9424,1.9424,1.9424,1.9424,1.9424,1.9424,1.9424,1.9424,1.9424,1.9424,1.9424,1.9424,1.9424,1.9424,1.9424,1.9011,1.849,1.849,1.8103,1.7582,1.7582,1.7582,1.7582,1.7582,1.7582,1.7582,1.7582,1.7582,1.7582,1.7582,1.7161,1.6707,1.6707,1.6273,1.5784,1.5784,1.5784,1.5784,1.5784,1.5778,1.5564,1.5032,1.4589,1.4491,1.5013,1.5276,1.5602,1.6124,1.6382,1.5873,1.3998,1.4898,1.5541,1.5115,1.59,1.6577,1.6874,1.6908,1.6908,1.6908,1.6908,1.6908,1.6908,1.6908,1.6908,1.6908,1.6908,1.6908,1.6908,1.6908,1.6908,1.6908,1.6908,1.7064,1.5738,1.6353,1.684,1.658,1.6513,1.6326,1.5611,1.5023,1.4496,1.4041,1.324,1.2852,1.3601,1.3721,1.4142,1.5524,1.654,1.7455,1.8183,1.8798,1.9219,1.9352,1.9626,1.98,1.98,1.98,1.98,1.98,1.9533,1.9424,1.9424,1.9424,1.9424,1.9424,1.9424,1.9424,1.9424,1.9424,1.9424,1.9424,1.9424,1.9424,1.9424,1.9424,1.9424,1.9424,0.0,1.9424,1.9424,1.9424,1.9424,1.9424,1.9424,1.9011,1.849,1.849,1.8103,1.7582,1.7582,1.7582,1.7582,1.7582,1.7582,1.7582,1.7582,1.7582,1.7555,1.7481,1.6967,1.6486,1.6353,1.5979,1.5638,1.5638,1.5684,1.5784,1.5784,1.5784,1.5658,1.5212,1.5031,1.5144,1.5643,1.6015,1.6419,1.6944,1.7245,1.6865,1.5243,1.5933,1.6223,1.5388,1.6177,1.6795,1.6908,1.6908,1.6908,1.6908,1.6908,1.6908,1.6908,1.6908,1.6908,1.6908,1.6908,1.6908,1.6908,1.6908,1.6908,1.6908,1.6908,1.7119,1.5898,1.6533,1.7072,1.6466,1.6273,1.602,1.5102,1.4162,1.338,1.3046,1.2258,1.1866,1.2496,1.2826,1.3434,1.4693,1.5858,1.6941,1.7782,1.849,1.9018,1.9279,1.9633,1.986,1.986,1.986,1.986,1.986,1.9553,1.9424,1.9424,1.9424,1.9424,1.9424,1.9424,1.9424,1.9424,1.9424,1.9424,1.9424,1.9424,1.9424,1.9424,1.9424,1.9424,1.9424,1.9424,1.9424,1.9424,1.9424,1.9424,1.9424,1.9424,1.9011,1.849,1.849,1.8103,1.7582,1.7582,1.7582,1.7582,1.7582,1.7582,1.7582,1.7582,1.7555,1.7475,1.7273,1.6744,1.6152,1.5899,1.5611,1.5398,1.5398,1.5618,1.5784,1.5784,1.5798,1.5752,1.5476,1.5627,1.5903,1.6304,1.6829,1.7277,1.7594,1.7942,1.7817,1.6776,1.695,1.6837,1.5871,1.645,1.6908,1.6908,1.6908,1.6908,1.6908,1.6908,1.6908,1.6908,1.6908,1.6908,1.6908,1.6908,1.6908,1.6908,1.6908,1.6908,1.6908,1.6963,1.7202,1.6553,1.6898,1.7119,1.672,1.6266,1.5611,1.4496,1.3588,1.2717,1.1897,1.1035,1.0675,1.1503,1.1897,1.261,1.4008,1.5424,1.6623,1.7259,1.8237,1.8945,1.8991,1.9686,2.0154,2.0154,2.0154,2.0154,2.0154,1.9666,1.9424,1.9424,1.9424,1.9424,1.9424,1.9424,1.9424,1.9424,1.9424,1.9424,1.9424,1.9424,1.9424,1.9424,1.9424,1.9424,1.9424,1.9424,0.0,1.9424,1.9424,1.9424,1.9424,1.9424,1.9011,1.849,1.849,1.8103,1.7582,1.7582,1.7582,1.7582,1.7582,1.7582,1.7582,1.7582,1.7467,1.7266,1.7213,1.6547,1.5844,1.5798,1.5611,1.5398,1.5398,1.5618,1.5784,1.5784,1.5785,1.5876,1.6084,1.6261,1.6622,1.7522,1.7885,1.8296,1.8895,1.9024,1.8629,1.747,1.7513,1.7288,1.6306,1.6633,1.6908,1.6908,1.6908,1.6908,1.6908,1.6908,1.6908,1.6908,1.6908,1.6908,1.6908,1.6908,1.6908,1.6908,1.6908,1.6908,1.6908,1.7238,1.7614,1.6054,1.6412,1.6683,1.6351,1.5949,1.5257,1.3935,1.2971,1.208,1.1156,1.0394,1.0114,1.0842,1.1216,1.1897,1.3394,1.4603,1.5725,1.6774,1.7809,1.8522,1.8885,1.97,2.0174,2.0027,2.014,2.0113,2.002,1.9606,1.9424,1.9424,1.9424,1.9424,1.9424,1.9424,1.9424,1.9424,1.9424,1.9424,1.9424,1.9424,1.9424,1.9424,1.9424,1.9424,1.9424,1.9424,1.9424,1.9424,1.9424,1.9424,1.9352,1.9199,1.8871,1.847,1.8317,1.7969,1.7582,1.7582,1.7582,1.7582,1.7582,1.7582,1.7582,1.7582,1.7434,1.7172,1.7171,1.6488,1.5758,1.5734,1.5545,1.5352,1.5352,1.5697,1.6028,1.6028,1.6132,1.6341,1.6603,1.6893,1.7351,1.804,1.8456,1.8834,1.9222,1.9301,1.9017,1.8229,1.8044,1.7542,1.6416,1.667,1.6908,1.6908,1.6908,1.6908,1.6908,1.6908,1.6908,1.6908,1.6908,1.6908,1.6908,1.6908,1.6908,1.6908,1.6908,1.6908,1.6917,1.7312,1.7724,1.5121,1.5597,1.6005,1.5821,1.5509,1.4843,1.3434,1.2371,1.1464,1.0586,0.9936,0.9708,1.0298,1.064,1.1269,1.2692,1.3714,1.4803,1.6139,1.7268,1.8089,1.8615,1.9566,2.0047,1.982,2.0007,2.0047,1.982,1.9533,1.9424,1.9424,1.9424,1.9424,1.9424,1.9424,1.9424,1.9424,1.9424,1.9424,1.9424,1.9424,1.9424,1.9424,1.9424,1.9424,1.9424,1.9424,1.9424,1.9424,1.9424,1.939,1.9252,1.9018,1.8704,1.8364,1.8075,1.7849,1.7582,1.7582,1.7582,1.7582,1.7582,1.7582,1.7582,1.7582,1.7335,1.7096,1.7007,1.6416,1.5822,1.5695,1.5578,1.5483,1.5434,1.5829,1.6224,1.6407,1.6658,1.6979,1.7378,1.7718,1.8076,1.8434,1.8825,1.9112,1.9262,1.9301,1.9155,1.876,1.8402,1.7816,1.6688,1.6771,1.6908,1.6908,1.6835,1.678,1.678,1.6697,1.6688,1.678,1.678,1.6817,1.6908,1.6908,1.6945,1.7037,1.7037,1.7073,1.7174,1.7568,1.7935,1.4241,1.4779,1.5192,1.5412,1.5014,1.4289,1.3093,1.1917,1.0828,0.9976,0.9299,0.9065,0.9682,1.0,1.0595,1.1832,1.2966,1.4013,1.5035,1.6567,1.7749,1.8035,1.9145,1.9826,1.9806,1.9826,1.9826,1.9806,1.9533,1.9424,1.9424,1.9424,1.9424,1.9424,1.9424,1.9424,1.9424,1.9424,1.9424,1.9424,1.9424,1.9424,1.9424,1.9424,1.9424,1.9424,1.9424,1.9424,0.0,1.9424,1.9205,1.8958,1.8931,1.8522,1.8029,1.8036,1.7836,1.7582,1.7582,1.7582,1.7582,1.7582,1.7582,1.7582,1.7582,1.7194,1.6737,1.6645,1.646,1.611,1.5626,1.5842,1.6149,1.5805,1.5988,1.6359,1.7052,1.7323,1.7743,1.8696,1.8777,1.8795,1.9167,1.9222,1.9262,1.9301,1.9301,1.9155,1.876,1.8678,1.833,1.7477,1.7101,1.6908,1.6908,1.6578,1.6376,1.6376,1.601,1.5973,1.6358,1.6376,1.6541,1.6899,1.6908,1.7082,1.744,1.744,1.7633,1.799,1.8421,1.8623,1.2766,1.343,1.3895,1.4172,1.4155,1.373,1.2582,1.1618,1.0748,0.9866,0.9359,0.9164,0.9606,0.992,1.0501,1.1712,1.2412,1.3273,1.4522,1.5752,1.6774,1.7428,1.8397,1.9011,1.9011,1.9332,1.9539,1.9539,1.9432,1.9424,1.9424,1.9424,1.9424,1.9424,1.9424,1.9424,1.9424,1.9424,1.9424,1.9424,1.9424,1.9424,1.9424,1.9424,1.9272,1.9098,1.9098,1.8998,0.0,1.8844,1.8771,1.8644,1.8464,1.8195,1.7969,1.7829,1.7682,1.7582,1.7582,1.7582,1.7582,1.7582,1.7582,1.7601,1.7531,1.7245,1.6961,1.7143,1.696,1.6674,1.6574,1.6524,1.6483,1.6341,1.6716,1.7232,1.766,1.8059,1.8464,1.9127,1.9081,1.9012,1.925,1.9301,1.9301,1.9301,1.9301,1.9246,1.9091,1.8861,1.8586,1.8265,1.7651,1.7165,1.6927,1.6762,1.6569,1.6331,1.6386,1.6395,1.6288,1.6771,1.7101,1.7257,1.7513,1.7715,1.7871,1.7871,1.7926,1.81,1.8493,1.8715,1.14,1.2088,1.2688,1.3028,1.3248,1.3074,1.2107,1.1362,1.0668,0.9953,0.9477,0.9331,0.974,0.998,1.0448,1.1484,1.1924,1.2632,1.3948,1.4963,1.5872,1.6667,1.7549,1.813,1.8217,1.8838,1.9272,1.9417,1.9424,1.9424,1.9424,1.9424,1.9424,1.9424,1.9424,1.9424,1.9424,1.9424,1.9424,1.9424,1.9424,1.9424,1.9424,1.9279,1.9125,1.8918,1.8831,1.8677,0.0,1.849,1.8437,1.8337,1.8075,1.7935,1.7883,1.7768,1.7747,1.774,1.7793,1.7793,1.7747,1.7747,1.7635,1.7568,1.7545,1.7486,1.7464,1.7532,1.7475,1.7435,1.7701,1.7573,1.7362,1.7287,1.7684,1.8241,1.8673,1.8978,1.9255,1.9632,1.946,1.9257,1.9289,1.9301,1.9301,1.9301,1.9301,1.9301,1.9301,1.9063,1.8843,1.8724,1.8201,1.7697,1.7303,1.7156,1.6963,1.6679,1.6817,1.6835,1.667,1.7202,1.755,1.7678,1.7972,1.8145,1.8264,1.8264,1.8319,1.8476,1.876,1.8889,1.021,1.0947,1.1537,1.2162,1.2428,1.2332,1.1752,1.1101,1.0512,1.0174,0.9617,0.9391,0.997,1.0114,1.0307,1.0902,1.149,1.2228,1.31,1.4235,1.519,1.5724,1.6627,1.7326,1.7562,1.8404,1.9052,1.9403,1.9424,1.9424,1.9424,1.9424,1.9424,1.9424,1.9424,1.9424,1.9424,1.9424,1.9424,1.9424,1.9424,1.9424,1.9417,1.9065,1.8925,1.8911,1.8617,1.8497,0.0,1.849,1.8317,1.7995,1.7995,1.7856,1.7641,1.7911,1.8016,1.8016,1.8325,1.822,1.8016,1.8016,1.7799,1.7573,1.7543,1.7796,1.8086,1.7567,1.785,1.8414,1.8922,1.9018,1.8933,1.88,1.8972,1.9384,2.0113,2.01,2.0088,2.0425,2.0149,1.9747,1.9375,1.9301,1.9301,1.9301,1.9301,1.9301,1.9301,1.9292,1.9146,1.8751,1.8705,1.8502,1.8109,1.7734,1.7486,1.7486,1.7119,1.7082,1.7468,1.7495,1.7688,1.8072,1.8091,1.832,1.8705,1.8705,1.8907,1.9292,1.9292,1.9292,0.9234,0.991,1.0481,1.084,1.1154,1.1249,1.072,1.0349,1.0044,0.9704,0.9554,0.9573,0.9905,1.0226,1.0548,1.0929,1.1316,1.1877,1.2804,1.3782,1.4656,1.5438,1.6543,1.7481,1.8136,1.8464,1.8831,1.939,1.9424,1.9424,1.9424,1.9424,1.9424,1.9424,1.9424,1.9424,1.9424,1.9424,1.9265,1.9065,1.9065,1.8958,1.8764,1.8671,1.8517,1.8268,1.8175,1.8063,1.7869,1.7869,1.7816,1.7729,1.7729,1.7669,1.7635,1.7905,1.837,1.8826,1.8729,1.8722,1.8774,1.837,1.795,1.7613,1.7786,1.8167,1.8514,1.8718,1.8744,1.8724,1.8803,1.8912,1.8966,1.8824,1.9225,1.982,2.0402,2.0509,2.0522,2.0519,2.02,1.9756,1.9375,1.9301,1.9301,1.9301,1.9301,1.9301,1.9301,1.9301,1.9256,1.9127,1.9118,1.8843,1.8145,1.7962,1.7807,1.7513,1.7651,1.766,1.7504,1.8027,1.8394,1.8522,1.8788,1.899,1.9118,1.9118,1.9182,1.9301,1.9429,1.9429,0.8392,0.8862,0.9235,0.9554,0.9848,0.9979,0.9635,0.9473,0.9361,0.9267,0.9334,0.9512,0.9866,1.0309,1.0646,1.0834,1.1169,1.1697,1.2509,1.3487,1.4536,1.5745,1.669,1.7554,1.8404,1.8591,1.8851,1.939,1.9424,1.9319,1.9205,1.9199,1.9152,1.9038,1.931,1.9312,1.9199,1.9312,1.9219,1.8925,1.8925,1.8771,1.849,1.8377,1.8223,1.7982,1.7869,1.7762,0.0,1.7582,1.7582,1.7635,1.7694,1.7747,1.7799,1.8429,1.8997,1.9554,1.9457,1.9406,1.9294,1.8893,1.8502,1.8288,1.8686,1.872,1.8879,1.9782,1.9646,1.92,1.91,1.9209,1.9355,1.9351,1.9774,2.0329,2.0907,2.1087,2.1016,2.0589,2.0278,1.993,1.9402,1.9301,1.9301,1.9301,1.9301,1.9301,1.9301,1.9301,1.9301,1.9301,1.9301,1.91,1.8614,1.8568,1.8458,1.8192,1.8421,1.8449,1.8183,1.866,1.8935,1.8935,1.9173,1.9301,1.9301,1.9381,1.9429,1.9429,1.9557,1.9561,0.0,0.7837,0.8073,0.8356,0.8526,0.8665,0.8608,0.8526,0.0,0.8888,0.9017,0.9265,0.9869,1.0352,1.0626,1.0626,1.1082,1.1635,1.2278,1.3434,1.485,1.6567,1.7065,1.7588,1.843,1.8764,1.9038,1.9319,1.9332,1.9205,1.8911,1.8891,1.8764,1.847,1.9011,1.9172,1.8891,1.9165,1.9158,1.8865,1.8865,1.8711,1.8417,1.8089,1.7962,0.0,1.7709,1.7582,1.7582,1.7582,1.7582,1.7635,1.7911,1.8016,1.822,1.9316,1.9983,2.0292,2.0514,2.0205,1.9732,1.9428,1.9265,1.9401,2.002,1.9581,1.9162,2.0665,2.0481,1.9771,1.9694,1.9796,1.9985,2.0204,2.0439,2.0817,2.1553,2.1696,2.1449,2.0677,2.0521,2.0255,1.9439,1.9283,1.9256,1.9256,1.9256,1.9256,1.9256,1.9283,1.9301,1.9301,1.9301,1.9301,1.9301,1.9301,1.9301,1.9301,1.9301,1.9301,1.9301,1.9301,1.9301,1.9301,1.9341,1.9341,1.9341,1.9557,1.9655,1.9643,1.9643,1.9786,0.6894,0.0,0.7823,0.7766,0.7985,0.8145,0.0,0.787,0.8056,0.8338,0.8741,0.9203,0.9754,1.0419,1.0928,1.0928,1.1383,1.2051,1.2879,1.4396,1.5905,1.7221,1.7435,1.7836,1.8738,1.8885,1.8951,1.9025,1.9025,1.8898,1.8604,1.8591,1.8457,1.8109,1.8504,1.8664,1.8591,1.8664,1.8544,1.8195,1.8195,1.8096,1.7796,1.7722,1.7695,1.7689,1.7615,1.7582,1.7582,1.7582,1.7582,1.7635,1.7911,1.837,1.9034,1.9717,2.0798,2.1869,2.1318,2.0909,2.0483,1.9554,1.9502,2.0053,2.0768,2.0285,1.9665,2.0804,2.0481,1.9728,1.9475,1.9813,2.0184,2.0031,2.0447,2.1042,2.1597,2.1696,2.1449,2.0677,2.0521,2.0255,1.9439,1.9045,1.8852,1.8852,1.8852,1.8852,1.8852,1.9118,1.9301,1.9301,1.9301,1.9301,1.9301,1.9301,1.9301,1.9301,1.9301,1.9301,1.9301,1.9301,1.939,1.9518,1.9666,1.9745,1.9745,2.0029,2.0112,2.0062,2.0263,2.0367,0.6635,0.7008,0.7261,0.7169,0.7307,0.7385,0.7048,0.7025,0.7222,0.7754,0.8276,0.8902,0.9734,1.049,1.1082,1.1383,1.177,1.2525,1.3834,1.5177,1.642,1.7455,1.7709,1.8043,1.8664,1.8724,1.8724,1.8724,1.8724,1.8597,1.8303,1.829,1.815,1.7842,1.7989,1.8143,1.829,1.8424,1.8343,1.7995,1.7995,1.7883,1.7582,1.7582,1.7582,1.7582,1.7582,1.7582,1.7582,1.7582,1.7582,1.7635,1.801,1.8684,1.9554,2.0336,2.1514,2.2577,2.2021,2.1514,2.0893,1.9908,2.0118,2.0861,2.1326,2.0839,2.0281,2.1127,2.0761,2.0035,1.9819,1.994,2.0093,2.0076,2.0447,2.0997,2.1553,2.1696,2.1449,2.0677,2.0668,2.053,1.9723,1.9567,1.954,1.954,1.954,1.958,1.97,1.9813,1.9828,1.9774,1.9666,1.9552,1.9448,1.9429,1.939,1.9301,1.9301,1.9301,1.9301,1.939,1.9508,1.9715,1.9824,1.9942,2.0069,2.0417,2.0539,2.0526,2.0756,2.0953,0.6676,0.6757,0.6769,0.6741,0.6757,0.6729,0.6542,0.6412,0.6561,0.7349,0.7871,0.8546,0.97,1.053,1.1235,1.1815,1.2331,1.3213,1.4908,1.5859,1.6667,1.7549,1.7883,1.8109,1.8464,1.849,1.847,1.843,1.8424,1.829,1.7942,1.7922,1.7856,1.7589,1.7582,1.7709,1.7916,1.823,1.823,1.7922,1.7922,1.7836,1.7582,1.7582,1.7582,1.7582,0.0,0.0,1.7582,1.7582,1.7582,1.7635,1.8213,1.8997,1.9983,2.1011,2.2072,2.3029,2.2627,2.203,2.131,2.0582,2.0925,2.1639,2.1657,2.1281,2.0958,2.1469,2.0995,2.0351,2.0326,2.0212,2.0121,2.0303,2.0538,2.0916,2.1553,2.1696,2.1467,2.0759,2.0879,2.0879,2.0104,2.0204,2.0429,2.0429,2.0429,2.0555,2.0773,2.0694,2.056,2.0432,2.0175,1.9909,1.9727,1.9673,1.9548,1.9381,1.9381,1.9381,1.9381,1.9597,1.9822,2.0036,2.0076,2.0232,2.0545,2.0893,2.1055,2.1091,2.1282,2.1556,0.6857,0.7025,0.7106,0.6988,0.7029,0.7098,0.6947,0.6882,0.7003,0.7423,0.7865,0.8453,0.9337,1.0504,1.1495,1.1922,1.3207,1.4536,1.5551,1.6239,1.6967,1.7816,1.7962,1.8109,1.8464,1.849,1.8384,1.8082,1.8062,1.7983,1.7669,1.7655,1.7629,1.7582,1.7582,1.7602,1.7655,1.7695,1.7695,1.7655,1.7655,1.7629,1.7582,1.7582,1.7582,1.7582,0.0,1.7582,1.7582,1.7582,1.7582,1.7635,1.8213,1.9346,2.0783,2.1412,2.2636,2.3845,2.2837,2.2274,2.192,2.1686,2.1856,2.2131,2.1787,2.1607,2.1496,2.1248,2.0709,2.0273,2.0498,2.0673,2.0763,2.0583,2.0916,2.1338,2.1651,2.1696,2.1549,2.1108,2.1062,2.0961,2.0512,2.0159,1.9976,1.9976,2.019,2.0354,2.0395,2.0808,2.1038,2.0815,2.062,2.0386,2.0108,1.9942,1.9824,1.9824,1.9824,1.9824,1.9824,2.0069,2.0349,2.0744,2.0923,2.1238,2.1648,2.1707,2.1848,2.1986,2.2044,2.2131,0.6751,0.6875,0.6964,0.7074,0.7232,0.7317,0.7139,0.698,0.695,0.7425,0.7715,0.8284,0.9463,1.0514,1.1652,1.2943,1.4283,1.5318,1.5724,1.6473,1.7101,1.7508,1.7702,1.7849,1.7983,1.8003,1.7943,1.7809,1.7796,1.7736,1.7589,1.7582,1.7582,1.7582,1.7582,1.7582,1.7582,1.7582,1.7582,1.7582,1.7582,1.7582,1.7582,1.7582,1.7582,1.7582,0.0,1.7582,1.7635,1.7747,1.7799,1.7905,1.8788,1.9916,2.1285,2.2577,2.3447,2.3845,2.3038,2.2728,2.2761,2.252,2.2568,2.2668,2.2444,2.2044,2.165,2.1502,2.1076,2.0764,2.1123,2.1275,2.1365,2.123,2.1374,2.1616,2.1696,2.1696,2.1568,2.119,2.1291,2.1319,2.0906,2.0827,2.0906,2.1077,2.1172,2.1376,2.1632,2.175,2.1779,2.1613,2.1371,2.1154,2.0907,2.084,2.0535,1.9931,2.0159,2.0322,2.0432,2.0772,2.1115,2.144,2.1541,2.168,2.1885,2.2119,2.2282,2.2349,2.2452,2.2611,0.6542,0.666,0.6769,0.7086,0.7322,0.746,0.737,0.7131,0.7076,0.7511,0.7749,0.8248,0.9523,1.067,1.1997,1.3861,1.4961,1.5704,1.5957,1.662,1.7146,1.7286,1.7442,1.7582,1.7582,1.7582,1.7582,1.7582,1.7582,1.7582,1.7582,1.7582,1.7582,1.7582,1.7582,1.7582,1.7582,1.7582,1.7582,1.7582,1.7582,1.7582,1.7582,1.7582,1.7582,1.7582,1.7582,1.7582,1.7635,1.7911,1.8115,1.8377,1.9413,2.0534,2.1895,2.3587,2.4053,2.3845,2.3338,2.3388,2.3529,2.3182,2.3037,2.3021,2.272,2.2117,2.1549,2.1549,2.1355,2.1209,2.1586,2.1696,2.1696,2.1696,2.1696,2.1696,2.1696,2.1696,2.1595,2.1319,2.1476,2.1586,2.131,2.1574,2.1874,2.2052,2.2185,2.2407,2.2759,2.2662,2.2494,2.2361,2.2107,2.1868,2.1627,2.1598,2.1236,2.0402,2.0709,2.0962,2.1124,2.1424,2.1738,2.2031,2.2031,2.208,2.2178,2.25,2.2656,2.2623,2.2824,2.2969,0.6384,0.6562,0.6741,0.6963,0.7269,0.7563,0.7726,0.7739,0.7762,0.7928,0.812,0.8483,0.9228,1.0988,1.2734,1.4072,1.4728,1.5422,1.6477,1.67,1.6941,1.7488,1.7569,1.7582,1.7582,1.7582,1.7582,1.7582,1.7582,1.7582,1.7582,1.7582,1.7582,1.7582,1.7582,1.7582,1.7582,1.7582,1.7582,1.7582,1.7582,1.7582,1.7582,1.7582,1.7582,1.7582,1.7582,1.7582,1.7635,1.7911,1.8422,1.9176,1.982,2.12,2.2878,2.3845,2.4202,2.4152,2.4102,2.4102,2.4088,2.3615,2.3222,2.2756,2.2016,2.1511,2.1154,2.1154,2.1126,2.1209,2.1586,2.1696,2.1696,2.1696,2.1696,2.1696,2.1696,2.1696,2.1678,2.165,2.1668,2.1678,2.165,2.19,2.2097,2.2097,2.2451,2.2759,2.2803,2.2969,2.295,2.2799,2.2582,2.2292,2.1914,2.1885,2.1855,2.1756,2.1775,2.1795,2.1836,2.1865,2.207,2.2461,2.2471,2.2656,2.3003,2.3033,2.3052,2.3052,2.3081,2.3101,0.6367,0.6469,0.6591,0.6914,0.7175,0.7399,0.7735,0.7882,0.7988,0.8143,0.8346,0.8725,0.9513,1.0967,1.2451,1.366,1.456,1.5458,1.6317,1.6754,1.7112,1.734,1.7475,1.7582,1.7582,1.7582,1.7582,1.7582,1.7582,1.7582,1.7582,1.7582,1.7582,1.7582,1.7582,1.7582,1.7582,1.7582,1.7582,1.7582,1.7582,1.7582,1.7582,1.7582,1.7582,1.7582,1.7582,1.7582,1.7635,1.8062,1.8736,1.9665,2.1251,2.2526,2.3538,2.4003,2.4202,2.4202,2.4202,2.4202,2.4174,2.3969,2.3648,2.3169,2.262,2.2153,2.1814,2.1522,2.1458,2.1495,2.165,2.1696,2.1696,2.1696,2.1696,2.1696,2.1696,2.1696,2.1696,2.1696,2.1696,2.1731,2.1919,2.2052,2.2185,2.2495,2.2715,2.2847,2.2969,2.3047,2.3057,2.3013,2.2911,2.2789,2.2676,2.2666,2.2666,2.2666,2.2422,2.2275,2.2275,2.2519,2.2744,2.2857,2.2857,2.2935,2.3091,2.3091,2.3091,2.3091,2.3091,2.3247,0.6314,0.6375,0.6477,0.6755,0.7005,0.7322,0.7718,0.7939,0.817,0.841,0.8649,0.9023,0.9658,1.089,1.2111,1.3205,1.4322,1.5358,1.6184,1.667,1.6991,1.7179,1.738,1.7534,1.7575,1.7582,1.7582,1.7582,1.7582,1.7582,1.7582,1.7582,1.7582,1.7582,1.7582,1.7582,1.7582,1.7582,1.7582,1.7582,1.7582,1.7582,1.7582,1.7582,1.7582,1.7582,1.7582,1.7582,1.7635,1.816,1.9146,2.055,2.2526,2.3538,2.3954,2.4152,2.4202,2.4183,2.4055,2.396,2.3941,2.3813,2.3492,2.3059,2.2785,2.2419,2.2034,2.1769,2.1696,2.1696,2.1696,2.1696,2.1696,2.1696,2.1696,2.1696,2.1696,2.1696,2.1696,2.1696,2.1696,2.1785,2.2052,2.2141,2.2318,2.2759,2.2838,2.2925,2.3091,2.3091,2.3091,2.3091,2.3091,2.3091,2.3091,2.3091,2.3091,2.3091,2.2828,2.2672,2.2672,2.2945,2.3091,2.3091,2.3091,2.3091,2.3091,2.3091,2.3091,2.3101,2.3237,2.3506,0.6233,0.6314,0.6391,0.6395,0.6795,0.7322,0.7722,0.8082,0.8398,0.8755,0.9108,0.9406,0.9487,1.0686,1.1932,1.2763,1.3901,1.5069,1.6129,1.6321,1.6536,1.7125,1.7199,1.7313,1.7549,1.7582,1.7582,1.7582,1.7582,1.7582,1.7635,1.7635,1.7635,1.7582,1.7582,1.7582,1.7582,1.7582,1.7582,1.7582,1.7582,1.7582,1.7582,1.7582,1.7582,1.7582,1.7582,1.7582,1.7635,1.8213,1.9709,2.1878,2.3546,2.4202,2.4202,2.4202,2.4202,2.4137,2.3636,2.3499,2.3425,2.3032,2.262,2.2282,2.2282,2.1998,2.1696,2.1696,2.1696,2.1696,2.1696,2.1696,2.1696,2.1696,2.1696,2.1696,2.1696,2.1696,2.1696,2.1696,2.1696,2.1785,2.2052,2.2264,2.2485,2.2759,2.2969,2.3091,2.3091,2.3091,2.3091,2.3091,2.3091,2.3091,2.3091,2.3091,2.3091,2.3091,2.3091,2.3091,2.3091,2.3091,2.3091,2.3091,2.3091,2.3091,2.3091,2.3091,2.3091,2.311,2.3584,2.3799,0.6509,0.6694,0.689,0.7102,0.7289,0.7533,0.8024,0.841,0.88,0.9287,0.9375,0.9401,0.9438,1.0253,1.129,1.2439,1.3485,1.4543,1.5775,1.6139,1.6388,1.6563,1.6951,1.7233,1.732,1.7514,1.7687,1.7852,1.7859,1.7957,1.816,1.816,1.8055,1.7911,1.7859,1.7799,1.7582,1.7582,1.7582,1.7582,1.7582,1.7582,1.7582,1.7582,1.7582,1.7635,1.7799,1.7859,1.801,1.9753,2.114,2.2375,2.3696,2.4202,2.4202,2.4202,2.4202,2.4137,2.3636,2.3499,2.3425,2.3032,2.262,2.2282,2.2282,2.1998,2.1696,2.1696,2.1696,2.1696,2.1696,2.1696,2.1696,2.1696,2.1696,2.1696,2.1696,2.1696,2.1696,2.1696,2.1696,2.183,2.222,2.2353,2.253,2.2969,2.3057,2.3091,2.3091,2.3091,2.3091,2.3091,2.3091,2.3091,2.3091,2.3091,2.3091,2.3091,2.3091,2.3091,2.3091,2.3091,2.3091,2.3091,2.3091,2.3091,2.3091,2.3091,2.3257,2.3603,2.373,2.4111,0.6643,0.6875,0.7131,0.7411,0.7642,0.7963,0.8616,0.8824,0.9064,0.9482,0.9539,0.9441,0.9416,1.0183,1.1204,1.2319,1.3361,1.4448,1.5663,1.5985,1.6139,1.6259,1.6636,1.6945,1.7179,1.7464,1.773,1.7957,1.8122,1.822,1.837,1.8422,1.8272,1.8016,1.8016,1.7852,1.7582,1.7582,1.7582,1.7582,1.7582,1.7641,1.7747,1.7747,1.7747,1.7799,1.8265,1.8632,1.8997,2.0987,2.2114,2.2778,2.3795,2.4202,2.4183,2.3969,2.3904,2.3831,2.3206,2.3014,2.295,2.2556,2.2254,2.2044,2.2044,2.1879,2.1696,2.1696,2.1696,2.1696,2.1696,2.1696,2.1696,2.1696,2.1696,2.1696,2.1696,2.1696,2.1696,2.1696,2.1785,2.1954,2.2353,2.2485,2.2662,2.3047,2.3091,2.3091,2.3091,2.3091,2.3091,2.3091,2.3091,2.3091,2.3091,2.3091,2.3091,2.3091,2.3091,2.3091,2.3091,2.3091,2.3091,2.3091,2.3091,2.3091,2.3091,2.3091,2.3315,2.3799,2.3965,2.4404,0.6639,0.6968,0.7293,0.7484,0.7939,0.8519,0.9245,0.9282,0.9218,0.9559,0.9579,0.9575,0.9457,1.0387,1.1468,1.2394,1.3505,1.4682,1.5689,1.5832,1.5932,1.6248,1.6308,1.6536,1.7123,1.7408,1.7699,1.7966,1.8217,1.8433,1.8433,1.8461,1.8377,1.8069,1.8069,1.7964,1.7635,1.7635,1.7621,1.7542,1.7569,1.7733,1.7975,1.801,1.8069,1.8227,1.8975,1.9702,2.0388,2.1912,2.2728,2.3079,2.3895,2.4202,2.4156,2.3694,2.3499,2.338,2.2556,2.2282,2.2217,2.1824,2.1696,2.1696,2.1696,2.1696,2.1696,2.1696,2.1696,2.1696,2.1696,2.1696,2.1696,2.1696,2.1696,2.1696,2.1696,2.1696,2.1696,2.1731,2.1919,2.2185,2.2397,2.2618,2.2882,2.3057,2.3091,2.3091,2.3091,2.3091,2.3091,2.3091,2.3091,2.3091,2.3091,2.3091,2.3091,2.3091,2.3091,2.3091,2.3091,2.3091,2.3091,2.3091,2.3091,2.3091,2.3091,2.3091,2.3379,2.3857,2.4238,2.4668,0.6607,0.7054,0.7504,0.7821,0.8304,0.882,0.9302,0.9375,0.936,0.9579,0.9579,0.9616,0.9575,1.048,1.1517,1.2517,1.3573,1.4729,1.5933,1.6123,1.615,1.6211,1.6436,1.6675,1.6805,1.703,1.7394,1.7866,1.8201,1.849,1.8687,1.8978,1.8966,1.8712,1.8712,1.8443,1.7911,1.7911,1.7684,1.73,1.7475,1.7625,1.7681,1.7914,1.8489,1.9368,1.9968,2.0783,2.1717,2.2476,2.3138,2.3646,2.4044,2.4202,2.4156,2.3694,2.3499,2.338,2.2556,2.2282,2.2217,2.1824,2.1696,2.1696,2.1696,2.1696,2.1696,2.1696,2.1696,2.1696,2.1696,2.1696,2.1696,2.1696,2.1696,2.1696,2.1696,2.1696,2.1785,2.1963,2.2052,2.223,2.2618,2.2759,2.2882,2.3057,2.3091,2.3091,2.3091,2.3091,2.3091,2.3091,2.3091,2.3091,2.3091,2.3091,2.3091,2.3091,2.3091,2.3091,2.3091,2.3091,2.3091,2.3091,2.3091,2.3091,2.3091,2.3091,2.3491,2.4287,2.4375,2.4834,0.6574,0.7082,0.763,0.8247,0.8678,0.9023,0.9339,0.9469,0.951,0.9608,0.9579,0.9579,0.9579,1.0462,1.1531,1.2538,1.3709,1.4879,1.6028,1.6312,1.6359,1.6224,1.6457,1.6656,1.6711,1.7009,1.7408,1.786,1.8167,1.8412,1.8555,1.8716,1.8709,1.8418,1.8418,1.8226,1.7746,1.7609,1.7425,1.7199,1.7154,1.7463,1.8032,1.8683,1.945,2.0351,2.1242,2.1954,2.2526,2.3238,2.3696,2.4003,2.4152,2.4202,2.4128,2.3435,2.3215,2.3096,2.2282,2.1998,2.1961,2.176,2.1696,2.1696,2.1696,2.1696,2.1696,2.1696,2.1696,2.1696,2.1696,2.1696,2.1696,2.1696,2.1696,2.1696,2.1696,2.1785,2.1919,2.2052,2.2274,2.2495,2.2759,2.2882,2.2969,2.3091,2.3091,2.3091,2.3091,2.3091,2.3091,2.3091,2.3091,2.3091,2.3091,2.3091,2.3091,2.3091,2.3091,2.3188,2.3437,2.3457,2.3305,2.3101,2.3091,2.3091,2.3091,2.3091,2.3539,2.4414,2.4414,2.4893,0.6461,0.7054,0.778,0.8649,0.898,0.9198,0.9455,0.962,0.969,0.9719,0.9677,0.9579,0.9579,1.0462,1.1531,1.2587,1.3854,1.507,1.617,1.6548,1.6588,1.6366,1.6548,1.6693,1.6767,1.7077,1.7473,1.778,1.8041,1.8218,1.8218,1.8269,1.8207,1.7967,1.7967,1.7839,1.7483,1.7294,1.7166,1.7103,1.6847,1.7382,1.8542,1.9641,2.0503,2.1121,2.245,2.3061,2.3129,2.3895,2.4202,2.4202,2.4202,2.4202,2.4101,2.3197,2.2904,2.2794,2.197,2.1696,2.1696,2.1696,2.1696,2.1696,2.1696,2.1696,2.1696,2.1696,2.1696,2.1696,2.1696,2.1696,2.1696,2.1696,2.1741,2.1785,2.1785,2.1919,2.2097,2.223,2.2574,2.2847,2.2847,2.3013,2.3091,2.3091,2.3091,2.3091,2.3091,2.3091,2.3091,2.3091,2.3091,2.3091,2.3091,2.3091,2.3091,2.3091,2.3091,2.3286,2.3769,2.3789,2.3652,2.3325,2.3315,2.3315,2.3315,2.3315,2.376,2.4531,2.4531,2.4961,0.608,0.6952,0.7979,0.8899,0.9153,0.9313,0.9858,1.0005,1.007,1.028,0.992,0.9579,0.9579,1.0462,1.1629,1.2834,1.4004,1.5213,1.6697,1.6932,1.6932,1.6885,1.6932,1.6947,1.6942,1.6996,1.7145,1.7363,1.7673,1.7882,1.7882,1.8145,1.8306,1.8256,1.8256,1.8023,1.7511,1.7477,1.7202,1.6743,1.6884,1.7652,1.8958,2.0297,2.1147,2.1674,2.3029,2.3637,2.3696,2.4053,2.4202,2.4202,2.4202,2.4202,2.4101,2.3197,2.2904,2.2794,2.197,2.1696,2.1696,2.1696,2.1696,2.1696,2.1696,2.1696,2.1696,2.1696,2.1696,2.1696,2.1696,2.1696,2.1696,2.1696,2.1874,2.2052,2.2052,2.2052,2.223,2.2627,2.2882,2.3057,2.3057,2.3091,2.3091,2.3091,2.3091,2.3091,2.3091,2.3091,2.3091,2.3091,2.3091,2.3091,2.3091,2.3091,2.3091,2.3091,2.3091,2.3286,2.3769,2.3789,2.3935,2.4238,2.4248,2.4248,2.4248,2.4248,2.4502,2.5028,2.5028,2.5254,0.6245,0.7199,0.812,0.8734,0.9118,0.9459,0.9725,0.9931,1.011,1.0189,1.0143,1.0068,1.0068,1.09,1.2019,1.3125,1.4334,1.554,1.6838,1.7113,1.7113,1.7026,1.7113,1.7113,1.7026,1.7113,1.7192,1.7279,1.7465,1.7545,1.7545,1.7677,1.7757,1.7757,1.7757,1.7556,1.7239,1.7314,1.7349,1.726,1.7673,1.8411,1.9414,2.076,2.1528,2.1852,2.3109,2.3689,2.3666,2.3764,2.395,2.4202,2.4202,2.4064,2.3739,2.3114,2.2757,2.2474,2.1897,2.1696,2.1696,2.1696,2.1696,2.1696,2.1696,2.1696,2.1696,2.1696,2.1696,2.1696,2.1696,2.1696,2.1696,2.1696,2.1919,2.2141,2.2372,2.2451,2.2583,2.2925,2.3057,2.3091,2.3091,2.3091,2.3091,2.3091,2.3091,2.3091,2.3091,2.3091,2.3091,2.3091,2.352,2.3754,2.3643,2.3725,2.3812,2.3812,2.3812,2.4053,2.4482,2.4548,2.4717,2.5099,2.4668,2.4414,2.4414,2.4414,2.4639,2.5116,2.5116,2.5312,0.6302,0.7189,0.7901,0.8407,0.8909,0.9341,0.958,0.9838,1.0139,1.0292,1.0439,1.0551,1.0596,1.1389,1.236,1.3414,1.4615,1.5771,1.6925,1.7192,1.7239,1.7113,1.7192,1.7239,1.7113,1.7192,1.7279,1.7279,1.7279,1.7279,1.7279,1.7279,1.7279,1.7279,1.7279,1.7214,1.7021,1.7403,1.7738,1.8102,1.8637,1.9326,2.0082,2.1202,2.1763,2.1931,2.3168,2.3617,2.3448,2.3501,2.3721,2.4005,2.4165,2.3904,2.3444,2.305,2.2638,2.2217,2.1833,2.1696,2.1696,2.1696,2.1696,2.1696,2.1696,2.1696,2.1696,2.1696,2.1696,2.1696,2.1696,2.1696,2.1741,2.1785,2.2008,2.2274,2.2637,2.2803,2.2925,2.3057,2.3091,2.3091,2.3091,2.3091,2.3091,2.3091,2.3091,2.3257,2.3695,2.3754,2.3754,2.3754,2.4329,2.4668,2.4473,2.4424,2.4414,2.4414,2.4414,2.4609,2.5096,2.5116,2.5283,2.5674,2.504,2.4746,2.4746,2.4746,2.4922,2.5234,2.5234,2.542,0.6053,0.6585,0.7191,0.8186,0.8595,0.8963,0.9794,0.9984,1.0168,1.0726,1.0858,1.0924,1.1112,1.1639,1.2408,1.3686,1.4752,1.5859,1.7099,1.7279,1.7279,1.7286,1.7279,1.7279,1.7286,1.7279,1.7279,1.7279,1.7279,1.7279,1.7279,1.7279,1.7279,1.7279,1.7279,1.7207,1.7008,1.7893,1.8611,1.9147,1.9803,2.0411,2.0934,2.1482,2.1822,2.2154,2.3249,2.3561,2.3298,2.3439,2.3508,2.3563,2.4055,2.3904,2.3444,2.305,2.2638,2.2217,2.1833,2.1696,2.1696,2.1696,2.1696,2.1696,2.1696,2.1696,2.1696,2.1696,2.1696,2.1696,2.1696,2.1696,2.1785,2.2008,2.223,2.2441,2.2759,2.2969,2.3101,2.3091,2.3091,2.3091,2.3091,2.3091,2.3091,2.3091,2.3091,2.3686,2.5343,2.5557,2.5557,2.5557,2.5596,2.5615,2.5606,2.4893,2.4414,2.4414,2.4414,2.4609,2.5096,2.5116,2.5283,2.5674,2.5645,2.5615,2.5615,2.5615,2.5635,2.5654,2.5654,2.5664,0.5408,0.6134,0.692,0.7548,0.8188,0.8832,0.9436,0.98,1.0099,1.0419,1.0712,1.092,1.099,1.1836,1.2845,1.398,1.4997,1.6062,1.7138,1.7279,1.7279,1.7279,1.7279,1.7279,1.7279,1.7279,1.7279,1.7279,1.7279,1.7279,1.7279,1.7279,1.7279,1.7279,1.7481,1.7854,1.8411,1.9034,1.9621,2.0121,2.0529,2.0907,2.1293,2.1544,2.1909,2.2328,2.2888,2.3128,2.311,2.3158,2.3084,2.301,2.3158,2.288,2.2327,2.2181,2.2034,2.1879,2.1742,2.1696,2.1696,2.1696,2.1696,2.1696,2.1696,2.1696,2.1696,2.1696,2.1696,2.1696,2.1696,2.1696,2.1776,2.222,2.2574,2.2882,2.2969,2.3271,2.3555,2.3555,2.3633,2.3701,2.3701,2.3344,2.3091,2.3091,2.4046,2.4982,2.5606,2.5693,2.5693,2.5693,2.5693,2.5693,2.5693,2.5391,2.5216,2.5216,2.5216,2.5332,2.5488,2.5498,2.5528,2.5684,2.5693,2.5693,2.5693,2.5693,2.5693,2.5693,2.5693,2.5693,0.5144,0.5834,0.6594,0.7055,0.7725,0.8415,0.8902,0.9285,0.9695,1.0123,1.0476,1.0761,1.0994,1.1989,1.309,1.4148,1.514,1.6157,1.7145,1.7279,1.7279,1.7279,1.7279,1.7279,1.7279,1.7279,1.7279,1.7279,1.7279,0.0,1.7279,1.7279,1.7372,1.7567,1.7893,1.8542,1.9554,2.0175,2.0664,2.0952,2.1177,2.132,2.1526,2.1642,2.1945,2.2441,2.275,2.2903,2.2948,2.2991,2.2911,2.2793,2.2897,2.2565,2.2023,2.1933,2.1806,2.1696,2.1696,2.1696,2.1696,2.1696,2.1696,2.1696,2.1696,2.1696,2.1696,2.1696,2.1696,2.1696,2.1696,2.182,2.2043,2.2441,2.2828,2.314,2.3286,2.3584,2.375,2.3603,2.3809,2.3955,2.375,2.3354,2.3296,2.3881,2.4953,2.5693,2.5693,2.5693,2.5693,2.5693,2.5693,2.5693,2.5693,2.5693,2.5693,2.5693,2.5693,2.5693,2.5693,2.5693,2.5693,2.5693,2.5693,2.5693,2.5693,2.5693,2.5693,2.5693,2.5693,2.5693,0.0,0.0,0.0,0.673,0.7168,0.7621,0.8226,0.8533,0.8926,0.9795,1.0149,1.0509,1.1166,1.2083,1.3067,1.4159,1.5175,1.615,1.7138,1.7279,1.7279,1.7279,1.7279,1.7279,1.7279,1.7279,1.7279,1.7279,1.7279,1.7279,1.7279,1.7279,1.7567,1.8087,1.8573,1.9309,2.0292,2.1257,2.1713,2.1687,2.1704,2.1713,2.1696,2.1704,2.1971,2.2441,2.2882,2.3013,2.2832,2.2957,2.2974,2.3011,2.3205,2.3028,2.261,2.2382,2.2007,2.1696,2.1696,2.1696,2.1696,2.1696,2.1696,2.1696,2.1696,2.1696,2.1696,2.1696,2.1696,2.1696,2.1696,2.2043,2.2485,2.2759,2.2969,2.3208,2.3682,2.3779,2.3682,2.3227,2.3617,2.3842,2.3266,2.3169,2.3744,2.544,2.5693,2.5693,2.5693,2.5693,2.5693,2.5693,2.5693,2.5693,2.5693,2.5693,2.5693,2.5693,2.5693,2.5693,2.5693,2.5693,2.5693,2.5693,2.5693,2.5693,2.5693,2.5693,2.5693,2.5693,2.5693,2.5693,0.5325,0.0,0.0,0.0,0.0,0.0,0.746,0.8014,0.8637,0.9171,0.9929,1.0722,1.1402,1.2462,1.3544,1.4494,1.5305,1.6137,1.7156,1.7279,1.7279,1.7279,1.7279,1.7279,1.7279,1.7279,1.7279,0.0,1.7279,1.7279,1.7279,1.7279,1.7652,1.8357,1.8988,1.9812,2.0826,2.1758,2.2122,2.2008,2.1776,2.1687,2.1696,2.1687,2.1954,2.2441,2.2882,2.3057,2.3013,2.3051,2.2828,2.2447,2.2484,2.2227,2.1798,2.1754,2.1699,2.1696,2.1696,2.1696,2.1696,2.1696,2.1696,2.1696,2.1696,2.1696,2.1696,2.1696,2.1696,2.1741,2.1919,2.2362,2.2715,2.2803,2.2969,2.313,2.3247,2.3652,2.4043,2.4346,2.4863,2.5157,2.5001,2.4972,2.5138,2.5615,2.5693,2.5693,2.5693,2.5693,2.5693,2.5693,2.5693,2.5693,2.5693,2.5693,2.5693,2.5693,2.5693,2.5693,2.5693,2.5693,2.5693,2.5693,2.5693,2.5693,2.5693,2.5693,2.5693,2.5693,2.5693,2.5693,0.5856,0.5949,0.604,0.6044,0.0,0.0,0.6984,0.7536,0.8127,0.8543,0.9414,1.0321,1.1042,1.2054,1.3133,1.4269,1.4986,1.5786,1.6955,1.7245,1.7282,1.715,1.7252,1.7274,1.7143,1.7252,1.7279,1.7279,1.7279,1.7279,1.7279,1.7279,1.7699,1.8589,1.9392,2.0257,2.1275,2.2211,2.253,2.223,2.1856,2.1678,2.1696,2.1678,2.1945,2.2441,2.2882,2.3091,2.3091,2.3091,2.2911,2.2568,2.2481,2.2298,2.2029,2.1811,2.1794,2.1874,2.1741,2.1696,2.1696,2.1696,2.1696,2.1696,2.1696,2.1696,2.1696,2.1696,2.1785,2.1963,2.2318,2.2583,2.2803,2.2925,2.3013,2.3159,2.3413,2.3857,2.417,2.416,2.4962,2.5693,2.5693,2.5693,2.5693,2.5693,2.5693,2.5693,2.5693,2.5693,2.5693,2.5693,2.5693,2.5693,2.5693,2.5693,2.5693,2.5693,2.5693,2.5693,2.5693,2.5693,2.5693,2.5693,2.5693,2.5693,2.5693,2.5693,2.5693,2.5693,2.5693,2.5693,0.6844,0.6764,0.6638,0.6525,0.6501,0.0,0.6655,0.7083,0.7536,0.793,0.8679,0.955,1.0368,1.1228,1.227,1.3588,1.4337,1.5184,1.6571,1.7026,1.7121,1.6881,1.7047,1.7113,1.6873,1.7055,1.7238,1.7274,1.7264,1.7333,1.7333,1.7372,1.7846,1.8874,1.9795,2.0754,2.1731,2.2662,2.2882,2.2441,2.1971,2.1802,2.1776,2.1802,2.2015,2.2485,2.2916,2.3091,2.3091,2.3091,2.3091,2.3091,2.2882,2.2803,2.2759,2.2318,2.2141,2.2052,2.183,2.1741,2.1696,2.1696,2.1696,2.1696,2.1696,2.1696,2.1696,2.1741,2.1963,2.2274,2.2715,2.2803,2.2882,2.3057,2.3091,2.3237,2.3799,2.4102,2.4066,2.3491,2.4631,2.5693,2.5693,2.5693,2.5693,2.5693,2.5693,2.5693,2.5693,2.5693,2.5693,2.5693,2.5693,2.5693,2.5693,2.5693,2.5693,2.5693,2.5693,2.5693,2.5693,2.5693,2.5693,2.5693,2.5693,2.5693,2.5693,2.5693,2.5693,2.5693,2.5693,2.5693,0.8015,0.785,0.7585,0.6716,0.6501,0.0,0.6134,0.652,0.7009,0.7318,0.8071,0.895,0.9792,1.0613,1.152,1.2617,1.3518,1.4538,1.5922,1.636,1.658,1.6514,1.6558,1.658,1.6514,1.6521,1.6712,1.6976,1.7179,1.738,1.7628,1.7807,1.8404,1.9409,2.0357,2.1221,2.2008,2.275,2.2969,2.2706,2.2388,2.2255,2.2264,2.2255,2.2432,2.2759,2.3013,2.3091,2.3091,2.3091,2.3091,2.3091,2.3057,2.2925,2.2803,2.2715,2.2407,2.2097,2.2052,2.1874,2.1696,2.1696,2.1696,2.1696,2.1696,2.1696,2.1741,2.1963,2.2318,2.2671,2.2803,2.2925,2.3047,2.3101,2.3091,2.312,2.3237,2.3305,2.3705,2.4943,2.546,2.5693,2.5693,2.5693,2.5693,2.5693,2.5693,2.5693,2.5693,2.5693,2.5693,2.5693,2.5693,2.5693,2.5693,2.5693,2.5693,2.5693,2.5693,2.5693,2.5693,2.5693,2.5693,2.5693,2.5693,2.5693,2.5693,2.5693,2.5693,2.5693,2.5693,2.5693,0.9236,0.8856,0.8393,0.7551,0.7177,0.0,0.0,0.6807,0.7135,0.7275,0.7897,0.8646,0.94,1.0127,1.089,1.1721,1.2616,1.3488,1.436,1.5431,1.614,1.614,1.6323,1.6309,1.6162,1.6323,1.6551,1.6873,1.7004,1.735,1.7846,1.8265,1.8904,1.992,2.0853,2.1624,2.222,2.2838,2.3047,2.2969,2.2794,2.274,2.274,2.274,2.2828,2.2969,2.3057,2.3091,2.3091,2.3091,2.3091,2.3091,2.3091,2.3057,2.2925,2.2847,2.2671,2.2407,2.2185,2.2008,2.1874,2.1741,2.1696,2.1696,2.1696,2.1776,2.1963,2.2362,2.2627,2.2838,2.2925,2.3013,2.3091,2.3091,2.3091,2.3091,2.3091,2.3091,2.3608,2.5352,2.5693,2.5693,2.5693,2.5693,2.5693,2.5693,2.5693,2.5693,2.5693,2.5693,2.5693,2.5693,2.5693,2.5693,2.5693,2.5693,2.5693,2.5693,2.5693,2.5693,2.5693,2.5693,2.5693,2.5693,2.5693,2.5693,2.5693,2.5693,2.5693,2.5693,2.5693,2.5693,1.056,1.0062,0.953,0.8803,0.8229,0.7745,0.0,0.0,0.0,0.7587,0.8021,0.8584,0.9176,0.9687,1.0205,1.0873,1.1674,1.2373,0.0,1.4282,0.0,1.5613,1.5855,1.5928,1.5745,1.6044,1.6382,1.6609,1.6728,1.7131,1.7919,1.8531,1.9294,2.0271,2.1311,2.2024,2.2485,2.2872,2.3091,2.3091,2.3091,2.3091,2.3091,2.3091,2.3091,2.3091,2.3091,2.3091,2.3091,2.3091,2.3091,2.3091,2.3091,2.3091,2.3091,2.2925,2.2847,2.2759,2.2362,2.2185,2.2141,2.1919,2.182,2.182,2.182,2.2008,2.2318,2.2715,2.2847,2.2891,2.3057,2.3091,2.3091,2.3091,2.3091,2.3091,2.3091,2.3354,2.4007,2.5421,2.5693,2.5693,2.5693,2.5693,2.5693,2.5693,2.5693,2.5693,2.5693,2.5693,2.5693,2.5693,2.5693,2.5693,2.5693,2.5693,2.5693,2.5693,2.5693,2.5693,2.5693,2.5693,2.5693,2.5693,2.5693,2.5693,2.5693,2.5693,2.5693,2.5693,2.5693,2.5693,1.2187,1.1942,1.1598,1.0516,0.9629,0.889,0.8367,0.0,0.8273,0.8273,0.0,0.8907,0.9169,0.0,0.0,1.0143,1.0808,0.0,1.2036,1.2833,1.366,1.457,1.4702,1.4779,1.4988,1.5501,1.5701,1.5584,1.6019,1.6618,1.7443,1.8487,1.9468,2.036,2.1671,2.2441,2.275,2.296,2.3091,2.3091,2.3091,2.3091,2.3091,2.3091,2.3091,2.3091,2.3091,2.3091,2.3091,2.3091,2.3091,2.3091,2.3091,2.3091,2.3091,2.3057,2.2969,2.2794,2.2759,2.2574,2.2353,2.2353,2.2309,2.2309,2.2309,2.253,2.2715,2.2803,2.2925,2.3057,2.3091,2.3091,2.3091,2.3091,2.3091,2.3091,2.3091,2.4309,2.545,2.5645,2.5693,2.5693,2.5693,2.5693,2.5693,2.5693,2.5693,2.5693,2.5693,2.5693,2.5693,2.5693,2.5693,2.5693,2.5693,2.5693,2.5693,2.5693,2.5693,2.5693,2.5693,2.5693,2.5693,2.5693,2.5693,2.5693,2.5693,2.5693,2.5693,2.5693,2.5693,2.5693,1.3317,1.2866,1.2274,1.1333,1.0529,0.9863,0.9324,0.9216,0.9216,0.9216,0.0,0.0,0.0,0.0,0.0,0.0,1.0553,0.0,0.0,0.0,1.2633,1.3762,0.0,0.0,1.4751,1.4979,1.5215,1.5449,1.555,1.619,1.7445,1.8524,1.9644,2.0813,2.19,2.2631,2.2969,2.3057,2.3091,2.3091,2.3091,2.3091,2.3091,2.3091,2.3091,2.3091,2.3091,2.3091,2.3091,2.3091,2.3091,2.3091,2.3091,2.3091,2.3091,2.3091,2.3057,2.2969,2.2838,2.2715,2.2618,2.2441,2.2397,2.2441,2.2574,2.2706,2.2838,2.2925,2.3047,2.3091,2.3091,2.3091,2.3091,2.3091,2.3091,2.3188,2.3574,2.4699,2.5693,2.5693,2.5693,2.5693,2.5693,2.5693,2.5693,2.5693,2.5693,2.5693,2.5693,2.5693,2.5693,2.5693,2.5693,2.5693,2.5693,2.5693,2.5693,2.5693,2.5693,2.5693,2.5693,2.5693,2.5693,2.5693,2.5693,2.5693,2.5693,2.5693,2.5693,2.5693,2.5693,2.5693,1.4194,1.3687,1.3012,1.2248,1.1503,1.0836,1.0276,1.0167,1.0187,1.0271,1.0354,0.0,0.0,0.0,1.0655,1.0427,0.0,1.0762,1.0821,1.1114,0.0,0.0,0.0,0.0,0.0,1.4358,1.4674,1.5133,1.5177,1.5879,1.7507,1.8591,1.974,2.1,2.2001,2.2656,2.2916,2.3033,2.3091,2.3091,2.3091,2.3091,2.3091,2.3091,2.3091,2.3091,2.3091,2.3091,2.3091,2.3091,2.3091,2.3091,2.3091,2.3091,2.3091,2.3091,2.3091,2.3091,2.2925,2.2882,2.2838,2.2662,2.2564,2.2618,2.2838,2.2882,2.2925,2.3057,2.3091,2.3091,2.3091,2.3091,2.3091,2.3091,2.3091,2.3257,2.3887,2.4795,2.5499,2.5664,2.5693,2.5693,2.5693,2.5693,2.5693,2.5693,2.5693,2.5693,2.5693,2.5693,2.5693,2.5693,2.5693,2.5693,2.5693,2.5693,2.5693,2.5693,2.5693,2.5693,2.5693,2.5693,2.5693,2.5693,2.5693,2.5693,2.5693,2.5693,2.5693,2.5693,2.5693,2.5693,0.0,0.0,0.0,1.3594,1.2704,1.1789,1.1209,1.1055,1.115,1.1465,1.174,1.2022,1.2349,1.1963,1.1443,1.1114,1.0799,0.0,0.0,1.0411,1.0982,0.0,0.0,0.0,0.0,1.3588,1.4111,0.0,1.4867,1.5856,1.7427,1.8632,1.9711,2.0573,2.182,2.2519,2.2539,2.2896,2.3091,2.3091,2.3091,2.3091,2.3091,2.3091,2.3091,2.3091,2.3091,2.3091,2.3091,2.3091,2.3091,2.3091,2.3091,2.3091,2.3091,2.3091,2.3091,2.3091,2.3091,2.3101,2.3101,2.3091,2.3091,2.3091,2.3101,2.3101,2.3101,2.3091,2.3091,2.3091,2.3091,2.3091,2.3091,2.3091,2.3091,2.3257,2.3887,2.4492,2.5078,2.5586,2.5693,2.5693,2.5693,2.5693,2.5693,2.5693,2.5693,2.5693,2.5693,2.5693,2.5693,2.5693,2.5693,2.5693,2.5693,2.5693,2.5693,2.5693,2.5693,2.5693,2.5693,2.5693,2.5693,2.5693,2.5693,2.5693,2.5693,2.5693,2.5693,2.5693,2.5693,2.5693,0.0,0.0,1.4626,1.3982,0.0,0.0,0.0,0.0,0.0,1.2175,1.2453,1.2716,1.2819,1.2489,1.2021,1.1511,1.0968,1.055,0.0,1.0331,0.0,1.1011,1.1806,1.2509,0.0,0.0,0.0,1.452,1.5021,0.0,1.7683,1.8711,1.9803,2.0981,2.1983,2.2645,2.2976,2.3232,2.3363,2.3363,2.3188,2.3091,2.3091,2.3091,2.3091,2.3091,2.3091,2.3091,2.3091,2.3091,2.3091,2.3091,2.3091,2.3091,2.3091,2.3091,2.3091,2.3091,2.3091,2.3091,2.3091,2.3091,2.3091,2.3091,2.3091,2.3091,2.3091,2.3091,2.3091,2.3091,2.3091,2.3305,2.3574,2.3574,2.3779,2.4121,2.4609,2.4863,2.5156,2.5596,2.5693,2.5693,2.5693,2.5693,2.5693,2.5693,2.5693,2.5693,2.5693,2.5693,2.5693,2.5693,2.5693,2.5693,2.5693,2.5693,2.5693,2.5693,2.5693,2.5693,2.5693,2.5693,2.5693,2.5693,2.5693,2.5693,2.5693,2.5693,2.5693,2.5693,2.5693,2.5693,1.5389,1.5148,0.0,1.4289,1.3946,0.0,1.2543,0.0,1.2899,0.0,0.0,0.0,1.3675,1.3302,1.2789,1.2028,1.1386,1.0843,0.0,1.0236,1.0177,1.0389,1.1172,1.1907,1.2516,1.291,1.3473,1.4305,1.5061,1.6131,0.0,1.8826,1.9918,2.0928,2.196,2.2664,2.2955,2.3335,2.3503,2.3503,2.3232,2.3091,2.3091,2.3091,2.3091,2.3091,2.3091,2.3091,2.3091,2.3091,2.3091,2.3091,2.3091,2.3091,2.3091,2.3091,2.3091,2.3091,2.3091,2.3091,2.3091,2.3091,2.3091,2.3091,2.3091,2.3091,2.3091,2.3091,2.3091,2.313,2.333,2.3574,2.3828,2.3975,2.4219,2.4531,2.5018,2.5116,2.5205,2.5596,2.5693,2.5693,2.5693,2.5693,2.5693,2.5693,2.5693,2.5693,2.5693,2.5693,2.5693,2.5693,2.5693,2.5693,2.5693,2.5693,2.5693,2.5693,2.5693,2.5693,2.5693,2.5693,2.5693,2.5693,2.5693,2.5693,2.5693,2.5693,2.5693,2.5693,2.5693,2.5693]}]]